[[{"header":{"parameterUnit":"m.s-1","parameterCategory":1,"la1":31.0,"la2":29.5877,"lo1":-88.7671,"lo2":-86.6584,"dy":0.0162,"dx":0.0185,"nx":115,"ny":88,"refTime":"2023-09-27T18:00:00:Z","depth":0,"parameterNumber":2,"parameterNumberName":"U-component_of_WINDS"},"data":[0.0,0.0,0.0,0.0,0.0,0.0,0.0,0.0,0.0,0.0,0.0,0.0,0.0,0.0,0.0,0.0,0.0,0.0,0.0,0.0,0.0,0.0,0.0,0.0,0.0,0.0,0.0,0.0,0.0,0.0,0.0,0.0,0.0,0.0,0.0,0.0,0.0,0.0,0.0,0.0,0.0,0.0,0.0,0.0,0.0,0.0,0.0,0.0,0.0,0.0,0.0,0.0,0.0,0.0,0.0,0.0,0.0,0.0,0.0,0.0,0.0,0.0,0.0,0.0,0.0,0.0,0.0,0.0,0.0,0.0,0.0,0.0,0.0,0.0,0.0,0.0,0.0,0.0,0.0,0.0,0.0,0.0,0.0,0.0,0.0,0.0,0.0,0.0,0.0,0.0,0.0,0.0,0.0,0.0,0.0,0.0,0.0,0.0,0.0,0.0,0.0,0.0,0.0,0.0,0.0,0.0,0.0,0.0,0.0,0.0,0.0,0.0,0.0,0.0,0.0,0.0,0.0,0.0,0.0,0.0,0.0,0.0,0.0,0.0,0.0,0.0,0.0,0.0,0.0,0.0,0.0,0.0,0.0,0.0,0.0,0.0,0.0,0.0,0.0,0.0,0.0,0.0,0.0,0.0,0.0,0.0,0.0,0.0,0.0,0.0,0.0,0.0,0.0,0.0,0.0,0.0,0.0,0.0,0.0,0.0,0.0,0.0,0.0,0.0,0.0,0.0,0.0,0.0,0.0,0.0,0.0,0.0,0.0,0.0,0.0,0.0,0.0,0.0,0.0,0.0,0.0,0.0,0.0,0.0,0.0,0.0,0.0,0.0,0.0,0.0,0.0,0.0,0.0,0.0,0.0,0.0,0.0,0.0,0.0,0.0,0.0,0.0,0.0,0.0,0.0,0.0,0.0,0.0,0.0,0.0,0.0,0.0,0.0,0.0,0.0,0.0,0.0,0.0,0.0,0.0,0.0,0.0,0.0,0.0,0.0,0.0,0.0,0.0,0.0,0.0,0.0,0.0,0.0,0.0,0.0,0.0,0.0,0.0,0.0,0.0,0.0,0.0,0.0,0.0,0.0,0.0,0.0,0.0,0.0,0.0,0.0,0.0,0.0,0.0,0.0,0.0,0.0,0.0,0.0,0.0,0.0,0.0,0.0,0.0,0.0,0.0,0.0,0.0,0.0,0.0,0.0,0.0,0.0,0.0,0.0,0.0,0.0,0.0,0.0,0.0,0.0,0.0,0.0,0.0,0.0,0.0,0.0,0.0,0.0,0.0,0.0,0.0,0.0,0.0,0.0,0.0,0.0,0.0,0.0,0.0,0.0,0.0,0.0,0.0,0.0,0.0,0.0,0.0,0.0,0.0,0.0,0.0,0.0,0.0,0.0,0.0,0.0,0.0,0.0,0.0,0.0,0.0,0.0,0.0,0.0,0.0,0.0,0.0,0.0,0.0,0.0,0.0,0.0,0.0,0.0,0.0,0.0,0.0,0.0,0.0,0.0,0.0,0.0,0.0,0.0,0.0,0.0,0.0,0.0,0.0,0.0,0.0,0.0,0.0,0.0,0.0,0.0,0.0,0.0,0.0,0.0,0.0,0.0,0.0,0.0,0.0,0.0,0.0,0.0,0.0,0.0,0.0,0.0,0.0,0.0,0.0,0.0,0.0,0.0,0.0,0.0,0.0,0.0,0.0,0.0,0.0,0.0,0.0,0.0,0.0,0.0,0.0,0.0,0.0,0.0,0.0,0.0,0.0,0.0,0.0,0.0,0.0,0.0,0.0,0.0,0.0,0.0,0.0,0.0,0.0,0.0,0.0,0.0,0.0,0.0,0.0,0.0,0.0,0.0,0.0,0.0,0.0,0.0,0.0,0.0,0.0,0.0,0.0,0.0,0.0,0.0,0.0,0.0,0.0,0.0,0.0,0.0,0.0,0.0,0.0,0.0,0.0,0.0,0.0,0.0,0.0,0.0,0.0,0.0,0.0,0.0,0.0,0.0,0.0,0.0,0.0,0.0,0.0,0.0,0.0,0.0,0.0,0.0,0.0,0.0,0.0,0.0,0.0,0.0,0.0,0.0,0.0,0.0,0.0,0.0,0.0,0.0,0.0,0.0,0.0,0.0,0.0,0.0,0.0,0.0,0.0,0.0,0.0,0.0,0.0,0.0,0.0,0.0,0.0,0.0,0.0,0.0,0.0,0.0,0.0,0.0,0.0,0.0,0.0,0.0,0.0,0.0,0.0,0.0,0.0,0.0,0.0,0.0,0.0,0.0,0.0,0.0,0.0,0.0,0.0,0.0,0.0,0.0,0.0,0.0,0.0,0.0,0.0,0.0,0.0,0.0,0.0,0.0,0.0,0.0,0.0,0.0,0.0,0.0,0.0,0.0,0.0,0.0,0.0,0.0,0.0,0.0,0.0,0.0,0.0,0.0,0.0,0.0,0.0,0.0,0.0,0.0,0.0,0.0,0.0,0.0,0.0,0.0,0.0,0.0,0.0,0.0,0.0,0.0,0.0,0.0,0.0,0.0,0.0,0.0,0.0,0.0,0.0,0.0,0.0,0.0,0.0,0.0,0.0,0.0,0.0,0.0,0.0,0.0,0.0,0.0,0.0,0.0,0.0,0.0,0.0,0.0,0.0,0.0,0.0,0.0,0.0,0.0,0.0,0.0,0.0,0.0,0.0,0.0,0.0,0.0,0.0,0.0,0.0,0.0,0.0,0.0,0.0,0.0,0.0,0.0,0.0,0.0,0.0,0.0,0.0,0.0,0.0,0.0,0.0,0.0,0.0,0.0,0.0,0.0,0.0,0.0,0.0,0.0,0.0,0.0,0.0,0.0,0.0,0.0,0.0,0.0,0.0,0.0,0.0,0.0,0.0,0.0,0.0,0.0,0.0,0.0,0.0,0.0,0.0,0.0,0.0,0.0,0.0,0.0,0.0,0.0,0.0,0.0,0.0,0.0,0.0,0.0,0.0,0.0,0.0,0.0,0.0,0.0,0.0,0.0,0.0,0.0,0.0,0.0,0.0,0.0,0.0,0.0,0.0,0.0,0.0,0.0,0.0,0.0,0.0,0.0,0.0,0.0,0.0,0.0,0.0,0.0,0.0,0.0,0.0,0.0,0.0,0.0,0.0,0.0,0.0,0.0,0.0,0.0,0.0,0.0,0.0,0.0,0.0,0.0,0.0,0.0,0.0,0.0,0.0,0.0,0.0,0.0,0.0,0.0,0.0,0.0,0.0,0.0,0.0,0.0,0.0,0.0,0.0,0.0,0.0,0.0,0.0,0.0,0.0,0.0,0.0,0.0,0.0,0.0,0.0,0.0,0.0,0.0,0.0,0.0,0.0,0.0,0.0,0.0,0.0,0.0,0.0,0.0,0.0,0.0,0.0,0.0,0.0,0.0,0.0,0.0,0.0,0.0,0.0,0.0,0.0,0.0,0.0,0.0,0.0,0.0,0.0,0.0,0.0,0.0,0.0,0.0,0.0,0.0,0.0,0.0,0.0,0.0,0.0,0.0,0.0,0.0,0.0,0.0,0.0,0.0,0.0,0.0,0.0,0.0,0.0,0.0,0.0,0.0,0.0,0.0,0.0,0.0,0.0,0.0,0.0,0.0,0.0,0.0,0.0,0.0,0.0,0.0,0.0,0.0,0.0,0.0,0.0,0.0,0.0,0.0,0.0,0.0,0.0,0.0,0.0,0.0,0.0,0.0,0.0,0.0,0.0,0.0,0.0,0.0,0.0,0.0,0.0,0.0,0.0,0.0,0.0,0.0,0.0,0.0,0.0,0.0,0.0,0.0,0.0,0.0,0.0,0.0,0.0,0.0,0.0,0.0,0.0,0.0,0.0,0.0,0.0,0.0,0.0,0.0,0.0,0.0,0.0,0.0,0.0,0.0,0.0,0.0,0.0,0.0,0.0,0.0,0.0,0.0,0.0,0.0,0.0,0.0,0.0,0.0,0.0,0.0,0.0,0.0,0.0,0.0,0.0,0.0,0.0,0.0,0.0,0.0,0.0,0.0,0.0,0.0,0.0,0.0,0.0,0.0,0.0,0.0,0.0,0.0,0.0,0.0,0.0,0.0,0.0,0.0,0.0,0.0,0.0,0.0,0.0,0.0,0.0,0.0,0.0,0.0,0.0,0.0,0.0,0.0,0.0,0.0,0.0,0.0,0.0,0.0,0.0,0.0,0.0,0.0,0.0,0.0,0.0,0.0,0.0,0.0,0.0,0.0,0.0,0.0,0.0,0.0,0.0,0.0,0.0,0.533,0.0,0.0,0.0,0.0,0.0,0.0,0.0,0.0,0.0,0.0,0.0,0.0,0.0,0.0,0.0,0.0,0.0,0.0,0.0,0.0,0.0,0.0,0.0,0.0,0.0,0.0,0.0,0.0,0.0,0.0,0.0,0.0,0.0,0.0,0.0,0.0,0.0,0.0,0.0,0.0,0.0,0.0,0.0,0.0,0.0,0.0,0.0,0.0,0.0,0.0,0.0,0.0,0.0,0.0,0.0,0.0,0.0,0.0,0.0,0.0,0.0,0.0,0.0,0.0,0.0,0.0,0.0,0.0,0.0,0.0,0.0,0.0,0.0,0.0,0.0,0.0,0.0,0.0,0.0,0.0,0.0,0.0,0.0,0.0,0.0,0.0,0.0,0.0,0.0,0.0,0.0,0.0,0.0,0.0,0.0,0.0,0.0,0.0,0.0,0.0,0.0,0.0,0.0,0.0,0.0,0.0,0.0,0.0,0.0,0.0,0.634,0.5985,0.5896,0.5748,0.553,0.0,0.0,0.0,0.0,0.0,0.0,0.0,0.0,0.0,0.0,0.0,0.0,0.0,0.0,0.0,0.0,0.0,0.0,0.0,0.0,0.0,0.0,0.0,0.0,0.0,0.0,0.0,0.0,0.0,0.0,0.0,0.0,0.0,0.0,0.0,0.0,0.0,0.0,0.0,0.0,0.0,0.0,0.0,0.0,0.0,0.0,0.0,0.0,0.0,0.0,0.0,0.0,0.0,0.0,0.0,0.0,0.0,0.0,0.0,0.0,0.0,0.0,0.0,0.0,0.0,0.0,0.0,0.0,0.0,0.0,0.0,0.0,0.0,0.0,0.0,0.0,0.0,0.0,0.0,0.0,0.0,0.0,0.0,0.0,0.0,0.0,0.0,0.0,0.0,0.0,0.0,0.0,0.0,0.0,0.0,0.0,0.0,0.0,0.0,0.0,0.0,0.0,0.0,0.0,0.0,0.0,0.0,0.0,0.0,0.0,0.0,0.0,0.6139,0.6021,0.5796,0.0,0.0,0.0,0.0,0.0,0.0,0.0,0.0,0.0,0.0,0.0,0.0,0.0,0.0,0.0,0.0,0.0,0.0,0.0,0.0,0.0,0.0,0.0,0.0,0.0,0.0,0.0,0.0,0.0,0.0,0.0,0.0,0.0,0.0,0.0,0.0,0.0,0.0,0.0,0.0,0.0,0.0,0.0,0.0,0.0,0.0,0.0,0.0,0.0,0.0,0.0,0.0,0.0,0.0,0.0,0.0,0.0,0.0,0.0,0.0,0.0,0.0,0.0,0.0,0.0,0.0,0.0,0.0,0.0,0.0,0.0,0.0,0.0,0.0,0.0,0.0,0.0,0.0,0.0,0.0,0.0,0.0,0.0,0.0,0.0,0.0,0.0,0.0,0.0,0.0,0.0,0.0,0.0,0.0,0.0,0.0,0.0,0.0,0.0,0.0,0.0,0.0,0.0,0.0,0.0,0.0,0.0,0.0,0.0,0.0,0.6636,0.6461,0.6451,0.0,0.6343,0.0,0.0,0.0,0.0,0.0,0.0,0.0,0.0,0.0,0.0,0.0,0.0,0.0,0.0,0.0,0.0,0.0,0.0,0.0,0.0,0.0,0.0,0.0,0.0,0.0,0.0,0.0,0.0,0.0,0.0,0.0,0.0,0.0,0.0,0.0,0.0,0.0,0.0,0.0,0.0,0.0,0.0,0.0,0.0,0.0,0.0,0.0,0.0,0.0,0.0,0.0,0.0,0.0,0.0,0.0,0.0,0.0,0.0,0.0,0.0,0.0,0.0,0.0,0.0,0.0,0.0,0.0,0.0,0.0,0.0,0.0,0.0,0.0,0.0,0.0,0.0,0.0,0.0,0.0,0.0,0.0,0.0,0.0,0.0,0.0,0.0,0.0,0.0,0.0,0.0,0.0,0.0,0.0,0.0,0.0,0.0,0.0,0.0,0.0,0.0,0.0,0.0,0.0,0.0,0.0,0.0,0.0,0.0,0.0,0.0,0.6638,0.6498,0.6468,0.6415,0.0,0.0,0.0,0.0,0.0,0.0,0.0,0.0,0.0,0.0,0.0,0.0,0.0,0.0,0.0,0.0,0.0,0.0,0.0,0.0,0.0,0.0,0.0,0.0,0.0,0.0,0.0,0.0,0.0,0.0,0.0,0.0,0.0,0.0,0.0,0.0,0.0,0.0,0.0,0.0,0.0,0.0,0.0,0.0,0.0,0.0,0.0,0.0,0.0,0.0,0.0,0.0,0.0,0.0,0.0,0.0,0.0,0.0,0.0,0.0,0.0,0.0,0.0,0.0,0.0,0.0,0.0,0.0,0.0,0.0,0.0,0.0,0.0,0.0,0.0,0.0,0.0,0.0,0.0,0.0,0.0,0.0,0.0,0.0,0.0,0.0,0.0,0.0,0.0,0.0,0.0,0.0,0.0,0.0,0.0,0.0,0.0,0.0,0.0,0.0,0.0,0.0,0.0,0.0,0.0,0.0,0.0,0.0,0.0,0.0,0.6672,0.6596,0.6498,0.6509,0.6489,0.6406,0.0,0.0,0.0,0.0,0.0,0.0,0.0,0.0,0.0,0.0,0.0,0.0,0.0,0.0,0.0,0.0,0.0,0.0,0.0,0.0,0.0,0.0,0.0,0.0,0.0,0.0,0.0,0.0,0.0,0.0,0.0,0.0,0.0,0.0,0.0,0.0,0.0,0.0,0.0,0.0,0.0,0.0,0.0,0.0,0.0,0.0,0.0,0.0,0.0,0.0,0.0,0.0,0.0,0.0,0.0,0.0,0.0,0.0,0.0,0.0,0.0,0.0,0.0,0.0,0.0,0.0,0.0,0.0,0.0,0.0,0.0,0.0,0.0,0.0,0.0,0.0,0.0,0.0,0.0,0.0,0.0,0.0,0.0,0.0,0.0,0.0,0.0,0.0,0.0,0.0,0.0,0.0,0.0,0.0,0.0,0.0,0.0,0.0,0.0,0.0,0.0,0.0,0.0,0.0,0.0,0.0,0.0,0.0,0.6694,0.6598,0.6511,0.6512,0.6693,0.666,0.0,0.0,0.0,0.0,0.0,0.0,0.0,0.0,0.0,0.0,0.0,0.0,0.0,0.0,0.0,0.0,0.0,0.0,0.0,0.0,0.0,0.0,0.0,0.0,0.0,0.0,0.0,0.0,0.0,0.0,0.0,0.0,0.0,0.0,0.0,0.0,0.0,0.0,0.0,0.0,0.0,0.0,0.0,0.0,0.0,0.0,0.0,0.0,0.0,0.0,0.0,0.0,0.0,0.0,0.0,0.0,0.0,0.0,0.0,0.0,0.0,0.0,0.0,0.0,0.0,0.0,0.0,0.0,0.0,0.0,0.0,0.0,0.0,0.0,0.0,0.0,0.0,0.0,0.0,0.0,0.0,0.0,0.0,0.0,0.0,0.0,0.0,0.0,0.0,0.0,0.0,0.0,0.0,0.0,0.0,0.0,0.0,0.0,0.0,0.0,0.0,0.0,0.0,0.0,0.0,0.0,0.0,0.0,0.0,0.6813,0.6954,0.7007,0.6995,0.6876,0.6756,0.0,0.0,0.0,0.0,0.0,0.0,0.0,0.0,0.0,0.0,0.0,0.0,0.0,0.0,0.0,0.0,0.0,0.0,0.0,0.0,0.0,0.0,0.0,0.0,0.0,0.0,0.0,0.0,0.0,0.0,0.0,0.0,0.0,0.0,0.0,0.0,0.0,0.0,0.0,0.0,0.0,0.0,0.0,0.0,0.0,0.0,0.0,0.0,0.0,0.0,0.0,0.0,0.0,0.0,0.0,0.0,0.0,0.0,0.0,0.0,0.0,0.0,0.0,0.0,0.0,0.0,0.0,0.0,0.0,0.0,0.0,0.0,0.0,0.0,0.0,0.0,0.0,0.0,0.0,0.0,0.0,0.0,0.0,0.0,0.0,0.0,0.0,0.0,0.0,0.0,0.0,0.0,0.0,0.0,0.0,0.0,0.0,0.0,0.0,0.0,0.0,0.0,0.0,0.0,0.0,0.0,0.0,0.0,0.0,0.6995,0.0,0.734,0.7266,0.7145,0.6976,0.0,0.0,0.0,0.0,0.0,0.0,0.0,0.0,0.0,0.0,0.0,0.0,0.0,0.0,0.0,0.0,0.0,0.0,0.0,0.0,0.0,0.0,0.0,0.0,0.0,0.0,0.0,0.0,0.0,0.0,0.0,0.0,0.0,0.0,0.0,0.0,0.0,0.0,0.0,0.0,0.0,0.0,0.0,0.0,0.0,0.0,0.0,0.0,0.0,0.0,0.0,0.0,0.0,0.0,0.0,0.0,0.0,0.0,0.0,0.0,0.0,0.0,0.0,0.0,0.0,0.0,0.0,0.0,0.0,0.0,0.0,0.0,0.0,0.0,0.0,0.0,0.0,0.0,0.0,0.0,0.0,0.0,0.0,0.0,0.0,0.0,0.0,0.0,0.0,0.0,0.0,0.0,0.0,0.0,0.0,0.0,0.0,0.0,0.0,0.0,0.0,0.0,0.0,0.0,0.0,0.0,0.0,0.0,0.702,0.7218,0.7486,0.7522,0.7231,0.7473,0.7352,0.0,0.0,0.0,0.0,0.0,0.0,0.0,0.0,0.0,0.0,0.0,0.0,0.0,0.0,0.0,0.0,0.0,0.0,0.0,0.0,0.0,0.0,0.0,0.0,0.0,0.0,0.0,0.0,0.0,0.0,0.0,0.0,0.0,0.0,0.0,0.0,0.0,0.0,0.0,0.0,0.0,0.0,0.0,0.0,0.0,0.0,0.0,0.0,0.0,0.0,0.0,0.0,0.0,0.0,0.0,0.0,0.0,0.0,0.0,0.0,0.0,0.0,0.0,0.0,0.0,0.0,0.0,0.0,0.0,0.0,0.0,0.0,0.0,0.0,0.0,0.0,0.0,0.0,0.0,0.0,0.0,0.0,0.0,0.0,0.0,0.0,0.0,0.0,0.0,0.0,0.0,0.0,0.0,0.0,0.0,0.0,0.0,0.0,0.0,0.0,0.0,0.0,0.0,0.0,0.0,0.0,0.0,0.0,0.0,0.7687,0.8109,0.8315,0.8231,0.7953,0.7724,0.0,0.0,0.0,0.0,0.0,0.0,0.0,0.0,0.0,0.0,0.0,0.0,0.0,0.0,0.0,0.0,0.0,0.0,0.0,0.0,0.0,0.0,0.0,0.0,0.0,0.0,0.0,0.0,0.0,0.0,0.0,0.0,0.0,0.0,0.0,0.0,0.0,0.0,0.0,0.0,0.0,0.0,0.0,0.0,0.0,0.0,0.0,0.0,0.0,0.0,0.0,0.0,0.0,0.0,0.0,0.0,0.0,0.0,0.0,0.0,0.0,0.0,0.0,0.0,0.0,0.0,0.0,0.0,0.0,0.0,0.0,0.0,0.0,0.0,0.0,0.0,0.0,0.0,0.0,0.0,0.0,0.0,0.0,0.0,0.0,0.0,0.0,0.0,0.0,0.0,0.0,0.0,0.0,0.0,0.0,0.0,0.0,0.0,0.0,0.0,0.0,0.0,0.0,0.0,0.0,0.0,0.0,0.0,0.0,0.8948,0.9068,0.9188,0.93,0.8779,0.8345,0.8045,0.0,0.0,0.0,0.0,0.0,0.0,0.0,0.0,0.0,0.0,0.0,0.0,0.0,0.0,0.0,0.0,0.0,0.0,0.0,0.0,0.0,0.0,0.0,0.0,0.0,0.0,0.0,0.0,0.0,0.0,0.0,0.0,0.0,0.0,0.0,0.0,0.0,0.0,0.0,0.0,0.0,0.0,0.0,0.0,0.0,0.0,0.0,0.0,0.0,0.0,0.0,0.0,0.0,0.0,0.0,0.0,0.0,0.0,0.0,0.0,0.0,0.0,0.0,0.0,0.0,0.0,0.0,0.0,0.0,0.0,0.0,0.0,0.0,0.0,0.0,0.0,0.0,0.0,0.0,0.0,0.0,0.0,0.0,0.0,0.0,0.0,0.0,0.0,0.0,0.0,0.0,0.0,0.0,0.0,0.0,0.0,0.0,0.0,0.0,0.0,0.0,0.0,0.0,0.0,0.0,0.0,0.0,0.0,1.0785,1.0322,1.0178,1.0334,0.9841,0.92,0.0,0.0,0.0,0.0,0.0,0.0,0.0,0.0,0.0,0.0,0.0,0.0,0.0,0.0,0.0,0.0,0.0,0.0,0.0,0.0,0.0,0.0,0.0,0.0,0.0,0.0,0.0,0.0,0.0,0.0,0.0,0.0,0.0,0.0,0.0,0.0,0.0,0.0,0.0,0.0,0.0,0.0,0.0,0.0,0.0,0.0,0.0,0.0,0.0,0.0,0.0,0.0,0.0,0.0,0.0,0.0,0.0,0.0,0.0,0.0,0.0,0.0,0.0,0.0,0.0,0.0,0.0,0.0,0.0,0.0,0.0,0.0,0.0,0.0,0.0,0.0,0.0,0.0,0.0,0.0,0.0,0.0,0.0,0.0,0.0,0.0,0.0,0.0,0.0,0.0,0.0,0.0,0.0,0.0,0.0,0.0,0.0,0.0,0.0,0.0,0.0,0.0,0.0,0.0,0.0,0.0,0.0,0.0,0.0,1.1854,1.2135,1.193,1.12,1.0677,1.0106,0.0,0.0,0.0,0.0,0.0,0.0,0.0,0.0,0.0,0.0,0.0,0.0,0.0,0.0,0.0,0.0,0.0,0.0,0.0,0.0,0.0,0.0,0.0,0.0,0.0,0.0,0.0,0.0,0.0,0.0,0.0,0.0,0.0,0.0,0.0,0.0,0.0,0.0,0.0,0.0,0.0,0.0,0.0,0.0,0.0,0.0,0.0,0.0,0.0,0.0,0.0,0.0,0.0,0.0,0.0,0.0,0.0,0.0,0.0,0.0,0.0,0.0,0.0,0.0,0.0,0.0,0.0,0.0,0.0,0.0,0.0,0.0,0.0,0.0,0.0,0.0,0.0,0.0,0.0,0.0,0.0,0.0,0.0,0.0,0.0,0.0,0.0,0.0,0.0,0.0,0.0,0.0,0.0,0.0,0.0,0.0,0.0,0.0,0.0,0.0,0.0,0.0,0.0,0.0,0.0,0.0,0.0,0.0,1.1557,1.2605,1.3268,1.3314,1.2689,1.1713,1.0906,0.0,0.0,0.0,0.0,0.0,0.0,0.0,0.0,0.0,0.0,0.0,0.0,0.0,0.0,0.0,0.0,0.0,0.0,0.0,0.0,0.0,0.0,0.0,0.0,0.0,0.0,0.0,0.0,0.0,0.0,0.0,0.0,0.0,0.0,0.0,0.0,0.0,0.0,0.0,0.0,0.0,0.0,0.0,0.0,0.0,0.0,0.0,0.0,0.0,0.0,0.0,0.0,0.0,0.0,0.0,0.0,0.0,0.0,0.0,0.0,0.0,0.0,0.0,0.0,0.0,0.0,0.0,0.0,0.0,0.0,0.0,0.0,0.0,0.0,0.0,0.0,0.0,0.0,0.0,0.0,0.0,0.0,0.0,0.0,0.0,0.0,0.0,0.0,0.0,0.0,0.0,0.0,0.0,0.0,0.0,0.0,0.0,0.0,0.0,0.0,0.0,0.0,0.0,0.0,0.0,0.0,0.0,0.0,1.2147,1.3208,1.3967,1.4401,1.434,1.2868,1.1665,0.0,0.0,0.0,0.0,0.0,0.0,0.0,0.0,0.0,0.0,0.0,0.0,0.0,0.0,0.0,0.0,0.0,0.0,0.0,0.0,0.0,0.0,0.0,0.0,0.0,0.0,0.0,0.0,0.0,0.0,0.0,0.0,0.0,0.0,0.0,0.0,0.0,0.0,0.0,0.0,0.0,0.0,0.0,0.0,0.0,0.0,0.0,0.0,0.0,0.0,0.0,0.0,0.0,0.0,0.0,0.0,0.0,0.0,0.0,0.0,0.0,0.0,0.0,0.0,0.0,0.0,0.0,0.0,0.0,0.0,0.0,0.0,0.0,0.0,0.0,0.0,0.0,0.0,0.0,0.0,0.0,0.0,0.0,0.0,0.0,0.0,0.0,0.0,0.0,0.0,0.0,0.0,0.0,0.0,0.0,0.0,0.0,0.0,0.0,0.0,0.0,0.0,0.0,0.0,0.0,0.0,0.0,0.0,1.2976,1.4026,1.463,1.4932,1.4932,1.3592,1.2569,0.0,0.0,0.0,0.0,0.0,0.0,0.0,0.0,0.0,0.0,0.0,0.0,0.0,0.0,0.0,0.0,0.0,0.0,0.0,0.0,0.0,0.0,0.0,0.0,0.0,0.0,0.0,0.0,0.0,0.0,0.0,0.0,0.0,0.0,0.0,0.0,0.0,0.0,0.0,0.0,0.0,0.0,0.0,0.0,0.0,0.0,0.0,0.0,1.2624,0.0,0.0,0.0,0.0,0.0,0.0,0.0,0.0,0.0,0.0,0.0,0.0,0.0,0.0,0.0,0.0,0.0,0.0,0.0,0.0,0.0,0.0,0.0,0.0,0.0,0.0,0.0,0.0,0.0,0.0,0.0,0.0,0.0,0.0,0.0,0.0,0.0,0.0,0.0,0.0,0.0,0.0,0.0,0.0,0.0,0.0,0.0,0.0,0.0,0.0,0.0,0.0,0.0,0.0,0.0,0.0,0.0,0.0,0.0,1.335,1.428,1.4823,1.5113,1.5077,1.4148,1.328,0.0,0.0,0.0,0.0,0.0,0.0,0.0,0.0,0.0,0.0,0.0,0.0,0.0,0.0,0.0,0.0,0.0,0.0,0.0,0.0,0.0,0.0,0.0,0.0,0.0,0.0,0.0,0.0,0.0,0.0,0.0,0.0,0.0,0.0,0.0,0.0,0.0,0.0,0.0,0.0,0.0,0.0,0.0,0.0,0.0,0.0,0.0,0.0,0.0,0.0,0.0,0.0,0.0,0.0,0.0,0.0,0.0,0.0,0.0,0.0,0.0,0.0,0.0,0.0,0.0,0.0,0.0,0.0,0.0,0.0,0.0,0.0,0.0,0.0,0.0,0.0,0.0,0.0,0.0,0.0,0.0,0.0,0.0,0.0,0.0,0.0,0.0,0.0,0.0,0.0,0.0,0.0,0.0,0.0,0.0,0.0,0.0,0.0,0.0,0.0,0.0,0.0,0.0,0.0,0.0,0.0,0.0,1.2726,1.3641,1.4509,1.4992,1.5184,1.5161,1.4642,1.3857,1.2795,0.0,0.0,0.0,0.0,0.0,0.0,0.0,0.0,0.0,0.0,0.0,0.0,0.0,0.0,0.0,0.0,0.0,0.0,0.0,0.0,0.0,0.0,0.0,0.0,0.0,0.0,0.0,0.0,0.0,0.0,0.0,0.0,0.0,0.0,0.0,0.0,0.0,0.0,1.1851,1.2679,0.0,0.0,0.0,0.0,0.0,0.0,0.0,0.0,1.4149,0.0,0.0,0.0,0.0,0.0,0.0,0.0,0.0,0.0,0.0,0.0,0.0,0.0,0.0,0.0,0.0,0.0,0.0,0.0,0.0,0.0,0.0,0.0,0.0,0.0,0.0,0.0,0.0,0.0,0.0,0.0,0.0,0.0,0.0,0.0,0.0,0.0,0.0,0.0,0.0,0.0,0.0,0.0,0.0,0.0,0.0,0.0,0.0,0.0,0.0,0.0,0.0,0.0,0.0,0.0,0.0,1.281,1.3449,1.4377,1.5596,1.5716,1.5656,1.5439,1.4932,1.4123,1.3063,0.0,0.0,0.0,0.0,0.0,0.0,0.0,0.0,0.0,0.0,0.0,0.0,0.0,0.0,0.0,0.0,0.0,0.0,0.0,0.0,0.0,0.0,0.0,0.0,0.0,0.0,0.0,0.0,0.0,0.0,0.0,0.0,0.0,0.0,0.0,0.0,0.0,0.0,0.0,1.3853,1.4431,0.0,0.0,0.0,0.0,0.0,0.0,0.0,0.0,1.4965,0.0,0.0,0.0,0.0,0.0,0.0,0.0,0.0,0.0,0.0,0.0,0.0,0.0,0.0,0.0,0.0,0.0,0.0,0.0,0.0,0.0,0.0,0.0,0.0,0.0,0.0,0.0,0.0,0.0,0.0,0.0,0.0,0.0,0.0,0.0,0.0,0.0,0.0,0.0,0.0,0.0,0.0,0.0,0.0,0.0,0.0,0.0,0.0,0.0,0.0,0.0,0.0,0.0,0.0,0.0,1.3256,1.422,1.5173,1.6054,1.6235,1.6115,1.5704,1.5197,1.4425,0.0,0.0,0.0,0.0,0.0,0.0,0.0,0.0,0.0,0.0,0.0,0.0,0.0,0.0,0.0,0.0,0.0,0.0,0.0,0.0,0.0,0.0,0.0,0.0,0.0,0.0,0.0,0.0,0.0,0.0,0.0,0.0,0.0,0.0,0.0,0.0,0.0,0.0,0.0,0.0,1.466,1.4971,1.5306,0.0,0.0,0.0,0.0,0.0,0.0,1.5696,1.562,0.0,0.0,0.0,0.0,0.0,0.0,0.0,0.0,0.0,0.0,0.0,0.0,0.0,0.0,0.0,0.0,0.0,0.0,0.0,0.0,0.0,0.0,0.0,0.0,0.0,0.0,0.0,0.0,0.0,0.0,0.0,0.0,0.0,0.0,0.0,0.0,0.0,0.0,0.0,0.0,0.0,0.0,0.0,0.0,0.0,0.0,0.0,0.0,0.0,0.0,0.0,0.0,0.0,0.0,0.0,1.3583,1.4846,1.5777,1.6371,1.6585,1.6465,1.5982,1.5403,1.4581,0.0,0.0,0.0,0.0,0.0,0.0,0.0,0.0,0.0,0.0,0.0,0.0,0.0,0.0,0.0,0.0,0.0,0.0,0.0,0.0,0.0,0.0,0.0,0.0,0.0,0.0,0.0,0.0,0.0,0.0,0.0,0.0,0.0,0.0,0.0,0.0,0.0,0.0,0.0,0.0,0.0,1.5535,1.5933,1.5745,0.0,0.0,0.0,0.0,1.6131,1.637,0.0,0.0,0.0,0.0,0.0,0.0,0.0,0.0,0.0,0.0,0.0,0.0,0.0,0.0,0.0,0.0,0.0,0.0,0.0,0.0,0.0,0.0,0.0,0.0,0.0,0.0,0.0,0.0,0.0,0.0,0.0,0.0,0.0,0.0,0.0,0.0,0.0,0.0,0.0,0.0,0.0,0.0,0.0,0.0,0.0,0.0,0.0,0.0,0.0,0.0,0.0,0.0,0.0,0.0,0.0,0.0,1.3898,1.4951,1.5847,1.661,1.6682,1.6549,1.6263,1.5511,1.4606,0.0,0.0,0.0,0.0,0.0,0.0,0.0,0.0,0.0,0.0,0.0,0.0,0.0,0.0,0.0,0.0,0.0,0.0,0.0,0.0,0.0,0.0,0.0,0.0,0.0,0.0,0.0,0.0,0.0,0.0,0.0,0.0,0.0,0.0,0.0,0.0,0.0,0.0,0.0,0.0,0.0,1.6469,1.6897,1.69,1.6851,0.0,0.0,1.7297,1.7299,1.7531,0.0,0.0,0.0,0.0,0.0,0.0,0.0,0.0,0.0,0.0,0.0,0.0,0.0,0.0,0.0,0.0,0.0,0.0,0.0,0.0,0.0,0.0,0.0,0.0,0.0,0.0,0.0,0.0,0.0,0.0,0.0,0.0,0.0,0.0,0.0,0.0,0.0,0.0,0.0,0.0,0.0,0.0,0.0,0.0,0.0,0.0,0.0,0.0,0.0,0.0,0.0,0.0,0.0,0.0,0.0,1.2715,1.4192,1.5515,1.6501,1.7145,1.717,1.702,1.6783,1.5825,1.4896,0.0,0.0,0.0,0.0,0.0,0.0,0.0,0.0,0.0,0.0,0.0,0.0,0.0,0.0,0.0,0.0,0.0,0.0,0.0,0.0,0.0,0.0,0.0,0.0,0.0,0.0,0.0,0.0,0.0,0.0,0.0,0.0,0.0,0.0,0.0,0.0,0.0,0.0,0.0,0.0,0.0,0.0,1.6844,1.7173,0.0,0.0,0.0,1.8023,1.7821,0.0,0.0,0.0,0.0,0.0,0.0,0.0,0.0,0.0,0.0,0.0,0.0,0.0,0.0,0.0,0.0,0.0,0.0,0.0,0.0,0.0,0.0,0.0,0.0,0.0,0.0,0.0,0.0,0.0,0.0,0.0,0.0,0.0,0.0,0.0,0.0,0.0,0.0,0.0,0.0,0.0,0.0,0.0,0.0,0.0,0.0,0.0,0.0,0.0,0.0,0.0,0.0,0.0,0.0,0.0,0.0,0.0,1.4401,1.5991,1.7056,1.7581,1.7544,1.7418,1.7303,1.6347,0.0,0.0,0.0,0.0,0.0,0.0,0.0,0.0,0.0,0.0,0.0,0.0,0.0,0.0,0.0,0.0,0.0,0.0,0.0,0.0,0.0,0.0,0.0,0.0,0.0,0.0,0.0,1.132,0.0,0.0,0.0,0.0,0.0,0.0,0.0,0.0,0.0,0.0,0.0,0.0,0.0,0.0,1.6831,1.7001,1.755,1.7839,0.0,0.0,1.8517,1.8276,1.8434,1.833,0.0,0.0,0.0,0.0,0.0,0.0,0.0,0.0,0.0,0.0,0.0,0.0,0.0,0.0,0.0,0.0,0.0,0.0,0.0,0.0,0.0,0.0,0.0,0.0,0.0,0.0,0.0,0.0,0.0,0.0,0.0,0.0,0.0,0.0,0.0,0.0,0.0,0.0,0.0,0.0,0.0,0.0,0.0,0.0,0.0,0.0,0.0,0.0,0.0,0.0,0.0,0.0,0.0,0.0,1.3437,1.4417,1.6172,1.7322,1.7847,1.7641,1.7629,1.7835,1.7044,1.6127,0.0,0.0,0.0,0.0,0.0,0.0,0.0,0.0,0.0,0.0,0.0,0.0,0.0,0.0,0.0,0.0,0.0,0.0,0.0,0.0,0.0,0.0,0.0,0.0,0.0,0.0,0.0,0.0,0.0,0.0,0.0,0.0,0.0,0.0,0.0,0.0,0.0,0.0,0.0,0.0,0.0,1.7548,1.7876,1.8448,1.8808,0.0,1.8821,1.8863,1.8836,1.8847,1.8671,1.8022,0.0,0.0,0.0,0.0,0.0,0.0,0.0,0.0,0.0,0.0,0.0,0.0,0.0,0.0,0.0,0.0,0.0,0.0,0.0,0.0,0.0,0.0,0.0,0.0,0.0,0.0,0.0,0.0,0.0,0.0,0.0,0.0,0.0,0.0,0.0,0.0,0.0,0.0,0.0,0.0,0.0,0.0,0.0,0.0,0.0,0.0,0.0,0.0,0.0,0.0,0.0,0.0,0.0,1.3362,1.4645,1.621,1.7338,1.7895,1.798,1.8064,1.8131,1.7387,1.6585,0.0,0.0,0.0,0.0,0.0,0.0,0.0,0.0,0.0,0.0,0.0,0.0,0.0,0.0,0.0,0.0,0.0,0.0,0.0,0.0,0.0,0.0,0.0,0.0,0.0,0.0,0.0,0.0,1.4252,1.4656,1.4579,0.0,0.0,0.0,0.0,0.0,0.0,0.0,0.0,0.0,0.0,1.8225,1.8744,1.932,0.0,0.0,1.9407,1.9401,1.9463,1.9266,1.889,1.8115,1.7583,0.0,0.0,0.0,0.0,0.0,0.0,0.0,0.0,0.0,0.0,0.0,0.0,0.0,0.0,0.0,0.0,0.0,0.0,0.0,0.0,0.0,0.0,0.0,0.0,0.0,0.0,0.0,0.0,0.0,0.0,0.0,0.0,0.0,0.0,0.0,0.0,0.0,0.0,0.0,0.0,0.0,0.0,0.0,0.0,0.0,0.0,0.0,0.0,0.0,0.0,0.0,0.0,1.3524,1.4887,1.6366,1.744,1.8106,1.8227,1.8324,1.8415,1.7781,1.7194,0.0,0.0,0.0,0.0,0.0,0.0,0.0,0.0,0.0,0.0,0.0,0.0,0.0,0.0,0.0,0.0,0.0,0.0,0.0,0.0,0.0,0.0,0.0,0.0,0.0,0.0,0.0,0.0,1.4686,1.4917,1.4665,0.0,0.0,0.0,0.0,0.0,0.0,0.0,0.0,0.0,0.0,1.8701,1.921,1.98,2.0076,1.9815,1.975,1.974,1.9797,1.9453,1.8978,1.8335,0.0,0.0,0.0,0.0,0.0,0.0,0.0,0.0,0.0,0.0,0.0,0.0,0.0,0.0,0.0,0.0,0.0,0.0,0.0,0.0,0.0,0.0,0.0,0.0,0.0,0.0,0.0,1.055,0.0,0.0,0.9769,0.0,0.0,0.0,0.0,0.0,0.0,0.0,0.0,0.0,0.0,0.0,0.0,0.0,0.0,0.0,0.0,0.0,0.0,0.0,0.0,0.0,0.0,1.41,1.519,1.6663,1.7795,1.8625,1.842,1.842,1.8693,1.8408,1.7919,1.7109,0.0,0.0,0.0,0.0,0.0,0.0,0.0,0.0,0.0,0.0,0.0,0.0,0.0,0.0,0.0,0.0,0.0,0.0,0.0,0.0,0.0,0.0,0.0,0.0,0.0,0.0,1.4516,1.4843,1.4993,0.0,0.0,0.0,0.0,0.0,0.0,0.0,0.0,0.0,1.7449,1.829,1.8927,1.9281,1.9813,2.0085,1.9781,1.9757,1.9797,1.981,1.9308,1.8881,0.0,0.0,0.0,0.0,0.0,0.0,0.0,0.0,0.0,0.0,0.0,0.0,0.0,0.0,0.0,0.0,0.0,0.0,0.0,0.0,0.0,0.0,0.0,0.0,0.0,0.0,0.0,1.2676,1.2689,0.0,0.0,0.0,0.0,0.0,0.0,0.0,0.0,0.0,0.0,0.0,1.4914,1.4616,0.0,0.0,0.0,0.0,0.0,0.0,0.0,0.0,0.0,0.0,0.0,0.0,1.4685,1.5931,1.7255,1.8182,1.8686,1.877,1.8886,1.8971,1.8686,1.8094,1.7117,0.0,0.0,0.0,0.0,0.0,0.0,0.0,0.0,0.0,0.0,0.0,0.0,0.0,0.0,0.0,0.0,0.0,0.0,0.0,0.0,0.0,0.0,0.0,0.0,0.0,1.471,0.0,0.0,0.0,0.0,0.0,0.0,0.0,0.0,0.0,0.0,0.0,1.7221,1.7976,1.8648,1.9261,1.9778,1.9982,2.0173,0.0,0.0,0.0,0.0,0.0,0.0,0.0,0.0,0.0,0.0,0.0,0.0,0.0,0.0,1.6639,1.5896,1.5632,1.548,1.5203,0.0,0.0,0.0,0.0,0.0,0.0,0.0,0.0,0.0,0.0,0.0,0.0,0.0,0.0,1.4089,0.0,1.3845,0.0,0.0,0.0,0.0,0.0,0.0,0.0,0.0,1.5505,1.5996,1.6375,1.6055,1.5943,0.0,1.512,1.4296,0.0,0.0,0.0,0.0,0.0,0.0,0.0,0.0,1.531,1.6561,1.7626,1.8407,1.8819,1.8988,1.9104,1.9104,1.885,1.8391,1.7689,1.6875,1.6042,0.0,0.0,0.0,0.0,0.0,0.0,0.0,0.0,0.0,0.0,0.0,0.0,0.0,0.0,0.0,0.0,0.0,0.0,0.0,0.0,0.0,0.0,0.0,1.5457,0.0,0.0,0.0,0.0,0.0,0.0,0.0,0.0,0.0,1.5706,1.6839,1.7865,1.8482,1.8982,1.9412,1.9718,0.0,0.0,0.0,0.0,0.0,0.0,0.0,1.9297,1.9131,1.9204,1.9232,1.9005,1.9,1.8908,1.8646,0.0,0.0,1.6983,1.6693,1.6562,1.6269,1.6284,1.6431,1.6692,1.7026,1.7314,0.0,0.0,0.0,0.0,0.0,0.0,0.0,0.0,1.4648,1.4797,0.0,1.4844,0.0,0.0,0.0,0.0,0.0,1.5322,0.0,0.0,1.6858,1.7416,1.7373,1.7109,1.715,1.7379,1.6325,1.5934,1.6137,1.4406,0.0,0.0,0.0,0.0,0.0,0.0,1.606,1.7138,1.7857,1.8491,1.906,1.9104,1.9104,1.9104,1.8831,1.8686,1.8681,1.7913,1.729,1.673,1.5716,0.0,0.0,0.0,0.0,0.0,0.0,0.0,0.0,0.0,0.0,0.0,0.0,0.0,0.0,0.0,0.0,0.0,0.0,0.0,0.0,1.5955,0.0,0.0,0.0,0.0,0.0,0.0,0.0,0.0,0.0,0.0,1.6501,1.7264,1.8131,1.895,0.0,0.0,0.0,0.0,2.0083,1.9588,2.003,2.0466,2.0459,2.0075,1.9756,1.9699,0.0,0.0,1.954,1.9568,1.9592,1.9604,1.9524,1.919,1.8207,1.7773,1.7619,1.7588,1.7394,1.7363,1.7603,1.8007,1.8293,1.7755,0.0,0.0,0.0,0.0,1.5814,1.6232,1.7126,1.6785,1.6672,1.6793,1.6522,0.0,0.0,0.0,0.0,0.0,0.0,1.6186,1.6537,1.6889,1.688,1.6564,1.6769,1.687,1.683,1.6373,1.6586,1.7265,1.6416,1.5373,1.4186,0.0,0.0,0.0,0.0,1.6844,1.7913,1.8524,1.8936,1.9104,1.9104,1.9104,1.9104,1.9,1.8911,1.8717,1.8487,1.7998,1.7315,1.6791,0.0,0.0,0.0,0.0,0.0,0.0,0.0,0.0,0.0,0.0,0.0,0.0,0.0,0.0,0.0,0.0,0.0,0.0,0.0,1.6242,1.6463,1.6315,0.0,0.0,0.0,0.0,0.0,0.0,0.0,0.0,0.0,1.6838,1.7663,1.8275,0.0,0.0,1.8961,1.8891,1.9225,1.947,1.9484,1.9644,0.0,2.0062,1.9795,1.9564,1.9577,1.9692,1.984,2.0012,2.0095,2.0014,1.973,1.9645,1.9459,1.8936,1.8663,1.844,1.8237,1.8267,1.8342,1.8467,1.8709,1.8895,1.9822,1.8161,1.7654,1.7519,1.7624,1.7283,1.7523,1.8141,1.7806,1.7657,1.7635,1.7487,1.7147,1.663,1.6125,0.0,0.0,0.0,1.5964,1.6334,1.6376,1.6448,1.6528,1.6858,1.6892,1.6636,1.637,1.6365,1.6609,1.6064,1.5401,1.4607,0.0,0.0,1.5767,1.6164,1.68,1.7662,1.8492,1.8865,1.8755,1.9158,1.9431,1.9431,1.9398,1.9326,1.9169,1.9157,1.8923,1.833,1.7943,1.7242,0.0,0.0,0.0,0.0,0.0,0.0,0.0,0.0,0.0,0.0,0.0,1.3566,1.4032,0.0,0.0,0.0,1.5908,1.6341,1.6665,1.6657,0.0,0.0,0.0,0.0,0.0,0.0,0.0,1.578,1.6139,1.6485,1.6813,1.7446,1.7981,1.8328,1.8591,1.8661,1.8379,0.0,1.8823,1.861,1.8702,1.8896,1.9123,1.9015,1.8876,1.8874,1.8985,1.9149,1.9324,1.9356,1.9281,1.9103,1.9291,1.9479,1.9216,1.9123,1.9013,1.8728,1.8907,1.9036,1.895,1.9273,1.9462,2.1333,2.012,1.9835,1.9405,1.8833,1.8595,1.843,1.8366,1.8088,1.7971,1.7954,1.7877,1.7665,1.7304,1.6541,0.0,1.5739,1.5379,1.538,1.5605,1.5605,1.6005,1.6773,1.7117,1.6992,1.6548,1.6261,1.5726,1.4942,1.4398,1.4318,1.4678,1.5511,1.6033,1.6222,1.6118,1.6335,1.6915,1.8128,1.8619,1.8351,1.9368,1.9881,1.9881,1.9881,1.9914,1.9881,1.9914,1.9793,1.9503,1.9032,1.8384,1.7563,0.0,0.0,0.0,0.0,0.0,0.0,0.0,0.0,0.0,0.0,0.0,0.0,0.0,0.0,1.6282,1.695,0.0,1.6697,1.6659,0.0,0.0,0.0,1.491,1.4632,1.4755,1.5111,1.5639,0.0,0.0,1.6526,1.6786,1.7356,1.8449,1.8577,1.8328,1.7739,1.8099,1.811,1.7458,1.7569,1.7879,1.8173,1.8079,1.799,1.8017,1.7922,1.7983,1.8023,1.7993,1.7942,1.7983,1.8622,1.9152,1.9162,1.9131,1.9164,1.898,1.9149,1.9271,1.9159,1.9591,1.9787,2.13,2.0374,2.0787,2.0357,1.9341,1.928,1.9107,1.8893,1.8605,1.8501,1.8458,1.7699,1.6917,1.6115,1.5762,1.5554,1.5427,1.5485,1.5501,1.552,1.5529,1.5347,1.5057,1.5654,1.57,1.5284,1.5521,1.5737,1.5859,1.5533,1.5569,1.5912,1.5636,1.5879,1.6608,1.664,1.7302,1.8662,1.8998,1.9267,1.9502,1.9781,1.9881,1.9881,1.9881,1.9881,1.9881,1.9881,1.976,1.9515,1.9382,1.8947,1.8161,1.6972,0.0,0.0,0.0,0.0,0.0,0.0,0.0,0.0,0.0,1.5005,1.5582,0.0,1.678,0.0,1.6827,1.6779,1.6206,1.6258,0.0,0.0,1.5399,1.5267,1.5336,1.5568,1.5725,1.5767,1.611,1.6342,1.6309,1.6431,1.6793,1.7509,1.751,1.739,1.7319,1.7597,1.776,1.7549,1.7663,1.7912,1.7921,1.7929,1.7897,1.7903,1.7892,1.7922,1.7922,1.7922,1.7922,1.7922,1.804,1.8198,1.8247,1.8237,1.8229,1.8183,1.8251,1.8504,1.9113,1.9429,1.9364,2.136,2.06,2.0767,2.0307,1.9495,1.9235,1.9063,1.8932,1.8423,1.8203,1.8159,1.7464,1.6668,1.5828,1.5361,1.5082,1.4896,1.4681,1.4596,1.4566,1.4566,1.4489,1.4421,1.492,1.4959,1.4501,1.4866,1.4973,1.4755,1.4625,1.483,1.5274,1.4881,1.5195,1.6211,1.6377,1.6974,1.8116,1.8224,1.8442,1.872,1.882,1.8969,1.9232,1.9287,1.9477,1.9792,1.9886,1.9775,1.9453,1.9334,1.8986,1.8388,1.7338,1.6497,0.0,0.0,0.0,0.0,0.0,0.0,0.0,0.0,0.0,0.0,0.0,1.6818,1.6405,1.657,1.6461,1.583,1.5822,1.5745,1.5341,1.5202,1.5195,1.521,1.5403,1.5624,1.5826,1.6045,1.6171,1.616,1.6233,1.6371,1.6592,1.6577,1.6711,1.7051,1.7229,1.7268,1.7088,1.7012,1.7114,1.7184,1.7193,1.7188,1.7307,1.7293,1.7307,1.7219,1.7202,1.7175,1.7096,1.74,1.7682,1.7682,1.7833,1.8062,1.8468,1.8214,1.8232,1.9085,1.9374,1.9374,2.1208,2.0612,2.0142,1.9738,1.9321,1.8766,1.8586,1.8688,1.7979,1.7575,1.7375,1.6993,1.6418,1.5706,1.5028,1.4558,1.425,1.3735,1.3484,1.3508,1.3508,1.3827,1.4397,1.464,1.4508,1.4156,1.4386,1.4042,1.3182,1.3146,1.3397,1.4016,1.3987,1.4543,1.5597,1.5791,1.6161,1.6809,1.7015,1.7204,1.7379,1.7577,1.7887,1.8349,1.8495,1.8867,1.9495,1.9625,1.9551,1.9247,1.9004,1.8667,1.8225,1.7337,1.6597,0.0,1.5242,0.0,0.0,0.0,0.0,0.0,0.0,0.0,0.0,1.6364,1.637,1.6075,1.6259,1.6115,1.5507,1.5489,1.5297,1.4911,1.4943,1.4981,1.486,1.496,1.5253,1.5808,1.5875,1.596,1.6063,1.6121,1.607,1.6041,1.6123,1.6353,1.6841,1.6953,1.6811,1.6384,1.6219,1.6328,1.6401,1.64,1.6457,1.6612,1.6655,1.6527,1.6424,1.6408,1.6325,1.6237,1.6774,1.7269,1.731,1.7631,1.8179,1.8938,1.8385,1.8197,1.9032,1.944,1.9645,2.0167,1.9715,1.9344,1.8982,1.8541,1.7872,1.791,1.8469,1.8078,1.7305,1.6258,1.5604,1.4932,1.431,1.3973,1.3796,1.377,1.3804,1.388,1.4062,1.4062,1.4171,1.4403,1.4444,1.4424,1.4359,1.442,1.4314,1.4117,1.38,1.4038,1.4773,1.4469,1.4876,1.5938,0.0,0.0,0.0,1.7556,1.7673,1.7705,1.7898,1.8057,1.8158,1.8325,0.0,1.8626,1.8652,1.8531,1.8276,1.8233,0.0,0.0,0.0,0.0,0.0,0.0,0.0,0.0,0.0,0.0,0.0,1.5002,1.537,1.5769,1.5889,1.5912,1.5863,1.5748,1.5582,1.5275,1.5394,1.552,1.5566,1.5492,1.5461,1.5545,1.548,1.5471,1.5543,1.5836,1.5984,1.6073,1.6311,1.6499,1.6431,1.6454,1.657,1.6787,1.674,1.6623,1.6562,1.6503,1.6487,1.6527,1.6578,1.6552,1.6619,1.6584,1.6576,1.6535,1.6527,1.6527,1.6462,1.6648,1.6766,1.6766,1.7112,1.7517,1.7695,1.8084,1.8596,1.9195,1.9336,1.9277,1.9433,1.9184,1.8696,1.8195,0.0,1.7093,1.6841,1.6992,1.6881,1.6244,1.5333,1.4956,1.455,1.4154,1.4029,1.3998,1.3998,1.4087,1.4213,1.4302,1.409,1.4027,1.4106,1.3884,1.3913,1.4069,1.3962,1.4048,1.4323,1.4037,1.4122,1.4622,1.4422,1.4576,1.5144,1.4952,1.5224,1.5976,1.6305,1.6286,1.5864,1.6232,1.6544,1.6877,1.6998,0.0,0.0,0.0,0.0,0.0,0.0,0.0,0.0,1.6299,0.0,1.5663,1.5476,1.522,1.4923,1.5156,1.5229,1.5037,1.5197,1.533,1.5462,1.5563,1.5667,1.5662,1.5538,1.5473,1.5374,1.5536,1.5675,1.5756,1.5772,1.5804,1.5991,1.5959,1.5943,1.604,1.6194,1.6308,1.6308,1.6454,1.6576,1.6584,1.6665,1.6704,1.6785,1.6736,1.6738,1.6828,1.6844,1.6844,1.6844,1.6844,1.6836,1.6844,1.6844,1.6803,1.673,1.6714,1.669,1.6609,1.6584,1.6584,1.6619,1.6959,1.7273,1.7409,1.7947,1.8452,1.8824,1.9002,1.9184,1.8711,1.8613,1.7819,1.7307,1.694,1.6352,1.5873,1.5495,0.0,0.0,0.0,1.4686,1.4551,1.4395,1.4395,1.4358,1.4284,1.4284,1.4279,1.4268,1.394,1.3821,1.3845,1.3537,1.3537,1.3853,1.3634,1.3807,1.426,1.4007,1.3976,1.4174,1.4149,1.4109,1.4109,1.4109,1.4078,1.4095,1.4757,1.4811,1.4154,1.4635,1.511,1.5615,1.5727,1.6058,1.6714,1.6805,1.6699,1.6449,1.6477,1.6326,1.5975,1.5976,1.5885,1.5596,1.5543,1.5413,1.5203,1.5202,1.5245,1.5229,1.5384,1.5358,1.5269,1.5417,1.5528,1.5561,1.5561,1.5585,1.565,1.578,1.5935,1.5959,1.6073,1.6169,1.6365,1.6365,1.6389,1.6552,1.6584,1.6625,1.6625,1.658,1.6545,1.6569,1.6639,1.6787,1.689,1.6882,1.6898,1.7003,1.7063,1.7096,1.7112,1.7136,1.7153,1.7145,1.7177,1.7153,1.6995,1.6947,1.689,1.6852,1.6771,1.6795,1.6822,1.7157,1.7415,1.761,1.8026,1.8374,1.8558,1.8759,1.9111,1.7563,1.7443,1.6361,1.5882,1.5808,1.5734,1.5439,1.5098,1.5084,1.5038,1.4953,1.4613,1.4408,1.4395,1.4395,1.421,1.3892,1.3892,1.386,1.3823,1.3746,1.3857,1.4127,1.4094,1.4094,1.4134,1.4109,1.4132,1.4162,1.3826,1.3807,1.4109,1.3869,1.3669,1.3662,1.3669,1.3507,1.323,1.4275,1.4987,1.5248,1.551,1.566,1.5781,1.5948,1.608,1.6232,1.6235,1.6188,1.615,1.6339,1.6244,1.5868,1.5996,1.5934,1.5565,1.5512,1.5497,1.5435,1.5453,1.5462,1.544,1.5281,1.5248,1.5431,1.5472,1.5577,1.5715,1.5748,1.5869,1.6137,1.6211,1.6349,1.6574,1.6576,1.6576,1.6696,1.6641,1.656,1.6558,1.6679,1.6768,1.669,1.6534,1.6395,1.6411,1.645,1.6645,1.7013,1.7177,1.7096,1.7104,1.7112,1.7112,1.7161,1.7258,1.7287,1.7348,1.7416,1.7473,1.7433,1.7416,1.74,1.7425,1.7376,1.7392,1.7445,1.7808,1.799,1.8096,1.8401,1.8757,1.8783,1.8838,1.8875,1.6976,1.6928,1.6401,1.6055,1.5863,1.5641,1.5449,1.5295,1.5256,1.5083,1.4819,1.4616,1.4541,1.4519,1.4519,1.4352,1.4013,1.4013,1.4019,1.3958,1.3769,1.3724,1.3855,1.3636,1.3669,1.3869,1.3715,1.3751,1.3926,1.364,1.3601,1.3764,1.3601,1.3479,1.3479,1.3479,1.352,1.3608,1.4165,1.4588,1.4787,1.5352,1.5627,1.5627,1.5741,1.5777,1.5777,1.587,1.596,1.592,1.6035,1.6006,1.5807,1.5799,1.5671,1.5512,1.5273,1.5201,1.5297,1.5133,1.5105,1.5157,1.5324,1.5502,1.5676,1.5589,1.5696,1.6015,1.6187,1.6276,1.6438,1.6501,1.6631,1.6785,1.6852,1.6901,1.6966,1.6925,1.6782,1.6565,1.6542,1.6467,1.6248,1.6099,1.6051,1.6127,1.6166,1.6399,1.6655,1.6646,1.6771,1.7218,1.7181,1.7136,1.7307,1.7192,1.7256,1.7436,1.7538,1.7595,1.7595,1.7603,1.7603,1.7595,1.7603,1.7595,1.7603,1.7776,1.792,1.792,1.8047,1.8228,1.8228,1.8228,1.8259,1.6585,1.6576,1.6466,1.6259,1.5941,1.5632,1.5512,1.5472,1.5393,1.512,1.4766,1.4734,1.4694,1.4649,1.4546,1.4339,1.4094,1.4069,1.4044,1.396,1.3639,1.3493,1.3528,1.3219,1.3259,1.3502,1.3336,1.3425,1.365,1.3507,1.3397,1.3397,1.3397,1.3397,1.3397,1.3397,1.3569,1.3928,1.4109,1.426,1.4501,1.5233,1.5594,1.5634,1.5594,1.5594,1.5642,1.5764,1.5837,1.5837,1.591,1.5975,1.6016,1.5967,1.5894,1.573,1.5525,1.5377,1.5316,1.5225,1.5131,1.4969,1.5363,1.5628,1.5694,1.552,1.5655,1.6137,1.6309,1.6363,1.6299,1.6368,1.6514,1.6562,1.6681,1.6693,1.6761,1.6884,1.6777,1.6404,1.6367,1.6295,1.5934,1.5683,1.5698,1.5778,1.5888,1.5969,1.6097,1.6157,1.6522,1.7009,1.7023,1.6862,1.7187,1.7136,1.7159,1.7478,1.7526,1.7558,1.752,1.7451,1.7405,1.7383,1.7367,1.7337,1.7405,1.7504,1.7558,1.762,1.7757,1.7832,1.784,1.784,1.7812,1.614,1.61,1.5807,1.5592,1.5568,1.5528,1.5489,1.5449,1.5074,1.4851,1.4797,1.4797,1.4765,1.4724,1.4406,1.4022,1.3684,1.3669,1.3547,1.3349,1.3274,1.3309,1.3418,1.339,1.3397,1.3432,1.3404,1.3404,1.3445,1.3431,1.3397,1.3397,1.3397,1.3403,1.3403,1.3403,1.3403,1.3486,1.3873,1.4477,1.5252,1.5712,1.5958,1.5958,1.595,1.5958,1.5901,1.5975,1.5983,1.6007,1.6299,1.6576,1.6704,1.7031,1.7017,1.6588,1.686,1.6825,1.6082,1.6376,1.609,1.5298,1.5198,1.5248,1.5278,1.5045,1.5174,1.5763,1.5937,1.5852,1.5536,1.5589,1.5722,1.591,1.594,1.5837,1.5947,1.6233,1.6331,1.6002,1.6285,1.6421,1.5987,1.5624,1.5471,1.5447,1.5497,1.5699,1.6121,1.619,1.628,1.6617,1.6444,1.6272,1.6461,1.6834,1.7041,1.721,1.7327,1.7374,1.7328,1.7064,1.6823,1.7056,1.6869,1.6916,1.7094,1.7103,1.7483,1.774,1.7919,1.8127,1.8174,1.8127,1.8084,1.6024,1.6024,1.5869,1.5666,1.5463,1.5463,1.5293,1.5008,1.4804,1.4764,1.4723,1.4486,1.4305,1.4176,1.4048,1.3774,1.35,1.35,1.3411,1.3308,1.3308,1.3342,1.3397,1.3397,1.3397,1.3397,1.3397,1.3397,1.3397,1.3397,1.3397,1.3397,1.3397,1.3444,1.3526,1.3539,1.3538,1.3661,1.4091,1.4513,1.4863,1.5108,1.5262,1.5355,1.5362,1.537,1.5401,1.5647,1.5825,1.5832,1.6048,1.6164,1.6133,1.6207,1.6097,1.583,1.5736,1.5415,1.4801,1.4923,1.4894,1.4578,1.4801,1.4967,1.5104,1.5221,1.5396,1.5462,1.5694,1.5745,1.5675,1.5705,1.5772,1.5958,1.5995,1.5943,1.5943,1.6122,1.607,1.5685,1.5783,1.5753,1.5371,1.5234,1.5144,1.5172,1.522,1.545,1.5692,1.5699,1.572,1.5755,1.5671,1.5892,1.6302,1.6393,1.6584,1.6832,1.6916,1.6962,1.6992,1.6974,1.6852,1.6902,1.6909,1.7142,1.7739,1.765,1.7804,1.8065,1.8304,1.8501,1.8501,1.8501,1.8412,1.6007,1.5966,1.5875,1.5669,1.5381,1.5257,1.5002,1.4713,1.4589,1.4555,1.4514,1.4108,1.3837,1.3698,1.3691,1.359,1.3431,1.3397,1.3397,1.3397,1.3397,1.3397,1.3397,1.3397,1.3397,1.3397,1.3397,1.3397,1.3403,1.3451,1.3464,1.3464,1.3505,1.358,1.3632,1.3646,1.3693,1.3824,1.4144,1.4336,1.4379,1.4449,1.4614,1.4934,1.4991,1.4991,1.4999,1.5341,1.557,1.557,1.5683,1.5742,1.5712,1.563,1.5512,1.5445,1.501,1.4591,1.4244,1.4331,1.4315,1.421,1.4573,1.4834,1.4889,1.5167,1.5246,1.5057,1.5259,1.5452,1.5546,1.5568,1.5626,1.5773,1.578,1.5734,1.5682,1.5825,1.5749,1.5388,1.5448,1.5325,1.5007,1.5003,1.5071,1.5085,1.5194,1.5248,1.5255,1.533,1.5364,1.5309,1.5309,1.5587,1.6248,1.631,1.627,1.6514,1.6755,1.6755,1.6667,1.6722,1.6637,1.6464,1.679,1.7076,1.7374,1.7598,1.815,1.8649,1.8818,1.8728,1.868,1.8712,1.872,1.6007,1.5917,1.5587,1.5381,1.5381,1.4919,1.4713,1.4589,1.4266,1.4108,1.4066,1.3652,1.3438,1.3424,1.3459,1.3431,1.3397,1.3397,1.3397,1.3397,1.3397,1.3397,1.3397,1.3397,1.3403,1.3403,1.3417,1.3417,1.3417,1.3504,1.3578,1.3585,1.3693,1.3774,1.3788,1.3788,1.3795,1.3829,1.3921,1.3962,1.4114,1.3948,1.4301,1.5049,1.517,1.512,1.5127,1.5192,1.5222,1.5214,1.5321,1.5483,1.566,1.5831,1.5898,1.5972,1.5524,1.5229,1.5163,1.5453,1.5283,1.4534,1.4676,1.4815,1.4479,1.4575,1.4651,1.4568,1.4781,1.4849,1.4876,1.4968,1.4929,1.4904,1.4851,1.4851,1.4845,1.529,1.5279,1.5154,1.5387,1.5482,1.518,1.5167,1.5187,1.5215,1.5316,1.5404,1.5418,1.5513,1.5526,1.5533,1.5539,1.5615,1.5718,1.5931,1.6361,1.6536,1.6522,1.6693,1.651,1.6328,1.6188,1.6188,1.6706,1.6966,1.6951,1.7411,1.8235,1.8713,1.8818,1.8809,1.8858,1.8769,1.8785,1.5175,1.5175,1.5002,1.4803,1.4563,1.4397,1.4149,1.3852,1.3735,1.3652,1.3611,1.3486,1.3397,1.3397,1.3397,1.3397,1.3397,1.3397,1.3397,1.3397,1.3397,1.3397,1.341,1.3498,1.3492,1.3424,1.3498,1.3546,1.3559,1.3653,1.372,1.3727,1.3768,1.3842,1.3973,1.3987,1.4034,1.4122,1.4136,1.4163,1.4204,1.4163,1.4311,1.461,1.4519,1.4513,1.4469,1.4652,1.4757,1.4757,1.486,1.4967,1.4925,1.4928,1.4928,1.4977,1.4764,1.4647,1.4691,1.4825,1.4794,1.4524,1.4568,1.4654,1.4608,1.4586,1.4654,1.4787,1.4841,1.4916,1.4984,1.4943,1.4923,1.5004,1.5025,1.5011,1.5025,1.5164,1.5238,1.5199,1.5368,1.5465,1.5411,1.5411,1.5472,1.5479,1.5472,1.5547,1.5512,1.556,1.5607,1.5593,1.5593,1.5661,1.592,1.5827,1.5925,1.6001,1.6105,1.6209,1.6118,1.6595,1.6637,1.6779,1.7091,1.7617,1.7816,1.8259,1.8929,1.8931,1.9021,1.8988,1.9118,1.8996,1.9013,1.4713,1.4672,1.4555,1.4356,1.4066,1.3942,1.3694,1.3397,1.3397,1.3397,1.3397,1.3397,1.3397,1.3397,1.3397,1.3431,1.3464,1.3424,1.3397,1.3403,1.3451,1.3471,1.3498,1.3585,1.3599,1.3566,1.3599,1.3653,1.3673,1.3802,1.3869,1.3876,1.3916,1.4041,1.4129,1.4143,1.4204,1.4285,1.4299,1.4299,1.4299,1.4299,1.4299,1.4285,1.4197,1.415,1.4193,1.434,1.4441,1.4455,1.4543,1.4505,1.4441,1.4353,1.4299,1.4299,1.4299,1.4299,1.4306,1.4346,1.4414,1.4502,1.4563,1.4593,1.4687,1.4741,1.4869,1.4996,1.5025,1.5086,1.518,1.5092,1.5079,1.516,1.5181,1.5181,1.5181,1.5174,1.5221,1.5194,1.5303,1.5391,1.5432,1.5499,1.556,1.5587,1.5676,1.571,1.571,1.5757,1.5784,1.5735,1.5798,1.5879,1.5995,1.5998,1.6046,1.6121,1.6177,1.6164,1.6348,1.6849,1.725,1.7408,1.7832,1.8381,1.8877,1.9274,1.9369,1.9289,1.9216,1.9159,1.9249,1.9281,1.9249,1.4679,1.4563,1.4273,1.4073,1.3983,1.3611,1.3397,1.3397,1.3397,1.341,1.3431,1.3417,1.3431,1.3424,1.3458,1.3457,1.3551,1.3505,1.3451,1.3458,1.3531,1.3585,1.3599,1.3734,1.3802,1.3781,1.3795,1.3802,1.3808,1.3994,1.4075,1.4139,1.4204,1.4251,1.4292,1.4292,1.4306,1.4326,1.4333,1.4333,1.4306,1.434,1.4346,1.4333,1.4326,1.4319,1.4312,1.4326,1.4346,1.4346,1.434,1.4312,1.4326,1.4306,1.4306,1.4319,1.4312,1.4306,1.4333,1.4448,1.4516,1.4577,1.462,1.4753,1.4762,1.4903,1.4977,1.5011,1.5092,1.5181,1.5181,1.5187,1.5181,1.5181,1.5181,1.5181,1.5181,1.5187,1.5187,1.5228,1.5357,1.5418,1.5452,1.5546,1.5648,1.5675,1.5784,1.5908,1.5866,1.5947,1.6049,1.6056,1.6008,1.6015,1.6105,1.6139,1.6296,1.6418,1.6506,1.6536,1.6934,1.743,1.7732,1.7933,1.8302,1.8841,1.9068,1.9361,1.9304,1.9314,1.9314,1.9363,1.9454,1.9454,1.9404,1.393,1.3916,1.3735,1.3611,1.3611,1.3445,1.3397,1.3397,1.3397,1.3458,1.3504,1.3559,1.3565,1.3646,1.366,1.3687,1.3727,1.368,1.366,1.3715,1.3707,1.3734,1.3761,1.3926,1.4,1.4,1.4,1.4,1.4027,1.4156,1.4224,1.4245,1.4272,1.4299,1.4312,1.4394,1.4448,1.4455,1.455,1.4559,1.4559,1.4597,1.4604,1.4604,1.4559,1.4559,1.4559,1.4502,1.4502,1.4545,1.4502,1.4407,1.4326,1.4299,1.4346,1.4434,1.4448,1.4502,1.4545,1.4599,1.4713,1.4808,1.4875,1.4943,1.5031,1.5079,1.516,1.5113,1.516,1.5181,1.5194,1.5282,1.5296,1.5194,1.5181,1.5194,1.5208,1.5276,1.533,1.5371,1.556,1.5745,1.5737,1.5839,1.5913,1.592,1.5974,1.6051,1.6064,1.6035,1.6076,1.6133,1.6133,1.6182,1.6225,1.6424,1.6657,1.6876,1.6926,1.7119,1.7473,1.7818,1.8134,1.8455,1.882,1.9072,1.9296,1.9371,1.933,1.9314,1.9314,1.9454,1.9651,1.9651,1.9454,1.3558,1.3532,1.3437,1.3397,1.341,1.3458,1.3485,1.3498,1.3504,1.362,1.3653,1.3666,1.3714,1.3781,1.3795,1.3829,1.3919,1.3926,1.396,1.3944,1.3896,1.3926,1.3946,1.4082,1.4156,1.42,1.4156,1.42,1.4163,1.4251,1.4299,1.4299,1.4353,1.438,1.4394,1.4471,1.4597,1.4611,1.464,1.4694,1.4694,1.4694,1.4694,1.4694,1.4694,1.4721,1.4808,1.4733,1.4726,1.4794,1.4733,1.4638,1.4557,1.4509,1.4457,1.4525,1.4552,1.4638,1.4687,1.4787,1.4862,1.4957,1.5064,1.5079,1.516,1.5181,1.5194,1.5255,1.5269,1.5289,1.5357,1.5432,1.5445,1.5364,1.5364,1.5323,1.5303,1.535,1.5398,1.5459,1.5704,1.5867,1.5935,1.5981,1.6126,1.6133,1.6133,1.6133,1.6133,1.6126,1.6133,1.6133,1.6133,1.6225,1.6424,1.6722,1.7062,1.7269,1.742,1.7649,1.7999,1.8221,1.8544,1.8804,1.9131,1.9164,1.9346,1.9338,1.9314,1.9314,1.9314,1.9355,1.9503,1.9454,1.9355,1.3518,1.3431,1.3417,1.3424,1.3444,1.3538,1.3641,1.3619,1.372,1.3781,1.3808,1.3815,1.3829,1.3829,1.3876,1.398,1.4061,1.4132,1.4143,1.4197,1.415,1.4082,1.4102,1.4217,1.4265,1.4278,1.4278,1.4285,1.4278,1.4319,1.4312,1.434,1.4462,1.4523,1.4557,1.4626,1.4708,1.4753,1.4728,1.4748,1.4748,1.4741,1.4741,1.4748,1.4755,1.4855,1.4957,1.4984,1.503,1.5017,1.4983,1.4909,1.4909,1.4814,1.4667,1.4701,1.4708,1.4721,1.4755,1.4909,1.503,1.5057,1.5146,1.5181,1.5181,1.5187,1.5235,1.5364,1.5391,1.5452,1.5519,1.5642,1.56,1.5614,1.5539,1.5513,1.5438,1.5432,1.5459,1.5506,1.5683,1.5922,1.5942,1.6058,1.6112,1.6133,1.6133,1.6133,1.6133,1.6133,1.6133,1.6189,1.6295,1.6636,1.6907,1.7355,1.7704,1.7854,1.8053,1.8263,1.842,1.8642,1.8807,1.9107,1.9231,1.9272,1.9314,1.9314,1.9314,1.9314,1.9314,1.9314,1.9363,1.9404,1.9404,1.372,1.3673,1.3572,1.3566,1.3587,1.368,1.3741,1.3747,1.3781,1.3919,1.3987,1.4014,1.4068,1.417,1.417,1.4204,1.4224,1.4231,1.4251,1.4285,1.4265,1.4238,1.4245,1.4278,1.4299,1.4306,1.4312,1.4299,1.4312,1.4414,1.4455,1.4462,1.4604,1.4633,1.466,1.4835,1.4903,1.493,1.5018,1.5059,1.5052,1.5052,1.5065,1.5065,1.5059,1.5072,1.514,1.5235,1.5181,1.5037,1.5017,1.4916,1.4848,1.4741,1.4762,1.4896,1.4909,1.4957,1.5045,1.5092,1.5166,1.5126,1.5214,1.5181,1.5181,1.5181,1.5262,1.5371,1.5411,1.5486,1.558,1.5737,1.5832,1.59,1.5696,1.5479,1.5519,1.5533,1.5615,1.5786,1.5949,1.6037,1.6071,1.6092,1.6133,1.6133,1.6133,1.6133,1.6133,1.6232,1.6282,1.6622,1.685,1.7164,1.755,1.8001,1.8352,1.8536,1.8689,1.8934,1.8984,1.9041,1.914,1.9264,1.9272,1.9264,1.9314,1.9314,1.9314,1.9314,1.9314,1.9314,1.9503,1.9602,1.9553,1.3822,1.3707,1.3687,1.3673,1.3693,1.3871,1.3896,1.391,1.3964,1.4075,1.4156,1.417,1.4217,1.4292,1.4299,1.4299,1.4299,1.4299,1.4299,1.4312,1.436,1.4353,1.4312,1.4299,1.4326,1.4387,1.4387,1.4428,1.4489,1.457,1.4604,1.4638,1.476,1.4789,1.4848,1.4984,1.5105,1.5119,1.5194,1.5181,1.5181,1.5181,1.5181,1.5181,1.5181,1.5181,1.5194,1.5269,1.5276,1.5235,1.5194,1.5113,1.5031,1.4911,1.497,1.5105,1.5105,1.5146,1.516,1.5181,1.5215,1.5262,1.5276,1.5316,1.5364,1.5377,1.5445,1.5676,1.5635,1.571,1.5866,1.5947,1.6037,1.6015,1.5784,1.5635,1.5723,1.573,1.5764,1.5915,1.603,1.6133,1.6133,1.6133,1.6133,1.6133,1.6133,1.6133,1.6133,1.6282,1.6572,1.6992,1.74,1.7767,1.8144,1.8571,1.8803,1.8981,1.9091,1.937,1.9379,1.9371,1.9337,1.9337,1.9297,1.933,1.9363,1.9354,1.9314,1.9314,1.9314,1.9306,1.9503,1.9602,1.9602,1.3919,1.3688,1.3768,1.3822,1.3842,1.4027,1.4095,1.4122,1.4217,1.4278,1.4285,1.4292,1.4285,1.4299,1.4299,1.4299,1.4299,1.4333,1.436,1.4407,1.4468,1.4482,1.4401,1.4401,1.4448,1.4523,1.4536,1.4552,1.4633,1.4687,1.4714,1.4801,1.4916,1.503,1.5057,1.516,1.5174,1.5167,1.5167,1.5181,1.5181,1.5181,1.5181,1.5181,1.5181,1.5181,1.5181,1.5208,1.5282,1.5519,1.5459,1.5357,1.5343,1.5255,1.5201,1.5201,1.5208,1.5215,1.5221,1.5255,1.5303,1.5411,1.5452,1.5506,1.5608,1.5587,1.5737,1.5974,1.5983,1.6003,1.6123,1.6137,1.6126,1.6062,1.5983,1.5935,1.5922,1.5915,1.5908,1.5935,1.6064,1.6139,1.611,1.6117,1.6137,1.6246,1.6275,1.6383,1.6483,1.6741,1.7077,1.7581,1.7985,1.8392,1.8772,1.9147,1.9298,1.942,1.9454,1.9532,1.9459,1.9451,1.9459,1.9467,1.9484,1.9467,1.9443,1.9402,1.9321,1.9314,1.9314,1.9314,1.9314,1.9404,1.9404,1.4078,1.398,1.4007,1.4021,1.4048,1.4183,1.4251,1.4251,1.4278,1.4299,1.4299,1.4299,1.4299,1.4299,1.4306,1.4299,1.4333,1.4421,1.4523,1.4599,1.462,1.4633,1.4645,1.4593,1.4613,1.4647,1.4647,1.4667,1.4721,1.4875,1.4923,1.4943,1.5045,1.518,1.514,1.5153,1.5181,1.5181,1.5181,1.5181,1.5181,1.5181,1.5181,1.5181,1.5181,1.5181,1.5181,1.5181,1.5215,1.5255,1.5323,1.5377,1.5364,1.5276,1.5255,1.5343,1.5364,1.5371,1.5384,1.5479,1.5506,1.5553,1.5689,1.582,1.5847,1.5854,1.5942,1.6015,1.5996,1.6017,1.6103,1.611,1.6133,1.6119,1.6105,1.6035,1.6064,1.5976,1.5969,1.6071,1.6144,1.6259,1.6259,1.6334,1.6368,1.6415,1.6517,1.6625,1.6916,1.7148,1.769,1.8184,1.8666,1.9033,1.9359,1.9604,1.9602,1.9674,1.9743,1.9727,1.9654,1.967,1.9719,1.9719,1.9703,1.967,1.9597,1.9467,1.9378,1.9321,1.9314,1.9314,1.9314,1.9314,1.9314,1.418,1.4082,1.415,1.4177,1.419,1.4265,1.4299,1.4299,1.4299,1.4299,1.4299,1.4299,1.4299,1.4306,1.4367,1.4401,1.4434,1.455,1.4613,1.4694,1.4755,1.4848,1.4875,1.4903,1.4923,1.4862,1.4848,1.4875,1.4957,1.5018,1.5119,1.5119,1.5194,1.5167,1.5181,1.5181,1.5181,1.5181,1.5181,1.5181,1.5181,1.5181,1.5181,1.5181,1.5181,1.5181,1.5181,1.5181,1.5451,1.5682,1.5772,1.5622,1.5445,1.5337,1.5377,1.5493,1.5588,1.5615,1.5655,1.575,1.5845,1.5839,1.592,1.5947,1.601,1.601,1.6085,1.611,1.6119,1.6051,1.6119,1.6133,1.6133,1.6146,1.6151,1.6185,1.6164,1.6056,1.603,1.6076,1.6137,1.6225,1.6307,1.6537,1.6534,1.6578,1.7,1.7159,1.7349,1.7698,1.8383,1.8903,1.9355,1.9743,1.9962,2.0057,1.9909,1.9955,1.993,1.9922,1.989,1.9946,2.0011,1.9938,1.9833,1.9808,1.9727,1.9589,1.9443,1.941,1.9362,1.9297,1.9314,1.9314,1.9314,1.4224,1.4159,1.4245,1.4299,1.4299,1.4299,1.4299,1.4299,1.4299,1.4299,1.4306,1.4319,1.4353,1.4367,1.4489,1.455,1.4618,1.4699,1.4755,1.4816,1.4957,1.5044,1.5071,1.5079,1.5092,1.5004,1.4997,1.5065,1.5126,1.5181,1.5153,1.5221,1.5174,1.5181,1.5181,1.5181,1.5181,1.5181,1.5181,1.5181,1.5181,1.5181,1.5181,1.5181,1.5228,1.5262,1.5296,1.5384,1.5609,1.6326,1.6417,1.6097,1.5719,1.5609,1.5629,1.5737,1.5839,1.5901,1.5928,1.6024,1.6098,1.6133,1.611,1.6117,1.6117,1.6123,1.6171,1.6191,1.6164,1.6112,1.6133,1.6133,1.6096,1.6137,1.6246,1.6307,1.6313,1.6218,1.6178,1.6187,1.6426,1.6623,1.6743,1.6891,1.6823,1.6858,1.7288,1.7661,1.7961,1.829,1.8952,1.9418,1.9815,1.9951,2.0171,2.0231,2.0133,2.0109,2.0085,2.0093,2.0093,2.0133,2.0141,2.0011,1.993,1.9933,1.9768,1.9573,1.9475,1.9475,1.9402,1.9289,1.9314,1.9314,1.9314,1.4285,1.4265,1.4292,1.4299,1.4299,1.4299,1.4299,1.4299,1.4299,1.4299,1.4319,1.4421,1.4462,1.4516,1.4593,1.4767,1.4862,1.4923,1.4984,1.5059,1.512,1.5173,1.518,1.52,1.516,1.516,1.514,1.52,1.5221,1.5181,1.5181,1.5181,1.5181,1.5181,1.5181,1.5181,1.5181,1.5181,1.5181,1.5181,1.5181,1.5201,1.5235,1.5302,1.5398,1.55,1.5615,1.5724,1.5861,1.6021,1.6088,1.6054,1.6097,1.6391,1.6454,1.6175,1.6069,1.6042,1.6105,1.6126,1.6139,1.611,1.6185,1.6246,1.6252,1.6252,1.6246,1.6259,1.6198,1.6096,1.6133,1.6117,1.6157,1.6232,1.6313,1.6381,1.6456,1.65,1.6439,1.6472,1.6793,1.7161,1.7283,1.747,1.7608,1.7724,1.807,1.8507,1.8773,1.9107,1.948,1.9883,2.0175,2.0236,2.0304,2.0296,2.0263,2.0247,2.0231,2.0231,2.0247,2.0271,2.0231,2.0028,1.9922,1.9933,1.9735,1.9557,1.9459,1.9419,1.9345,1.9314,1.9314,1.9314,1.9314,1.4367,1.4299,1.4299,1.4299,1.4299,1.4299,1.4299,1.4299,1.4299,1.434,1.4414,1.4482,1.4557,1.4652,1.4787,1.4936,1.5045,1.5079,1.5166,1.5181,1.5181,1.5181,1.5181,1.5181,1.5181,1.5181,1.5181,1.5187,1.5181,1.5181,1.5181,1.5181,1.5181,1.5181,1.5181,1.5181,1.5181,1.5181,1.5181,1.5187,1.5201,1.5255,1.5357,1.5609,1.5884,1.6105,1.6335,1.6707,1.7047,1.7375,1.7505,1.7342,1.7206,1.7185,1.7113,1.6412,1.6191,1.6198,1.6218,1.6252,1.6286,1.6218,1.6273,1.6259,1.6218,1.6185,1.6252,1.6293,1.6354,1.6273,1.6218,1.6259,1.6307,1.6327,1.6429,1.6551,1.6663,1.6889,1.7002,1.6983,1.7232,1.7588,1.7931,1.8137,1.8418,1.8701,1.8895,1.9224,1.9545,1.9746,1.9955,2.0059,2.032,2.032,2.032,2.032,2.0268,2.0268,2.0268,2.0268,2.0312,2.0304,2.0141,1.993,1.9873,1.9825,1.9776,1.963,1.95,1.937,1.9313,1.9322,1.9314,1.9314,1.9314,1.4428,1.4299,1.4299,1.4299,1.4299,1.4299,1.4319,1.434,1.4346,1.4434,1.4505,1.4604,1.4685,1.4755,1.4936,1.5079,1.5181,1.5174,1.5174,1.5181,1.5181,1.5181,1.5181,1.5181,1.5181,1.5187,1.5242,1.5208,1.5181,1.5181,1.5181,1.5181,1.5181,1.5181,1.5181,1.5181,1.5181,1.5187,1.5221,1.5235,1.5296,1.5398,1.5602,1.5986,1.6482,1.6764,1.7077,1.7411,1.7806,1.8097,1.8265,1.8137,1.7842,1.7785,1.7264,1.6357,1.6232,1.6293,1.6327,1.6327,1.632,1.6286,1.6266,1.6239,1.6293,1.632,1.63,1.6354,1.6429,1.649,1.6429,1.6412,1.6497,1.6588,1.6742,1.6962,1.7138,1.7411,1.7878,1.7864,1.7843,1.8049,1.8483,1.8944,1.9267,1.9342,1.9537,1.959,1.9903,2.0007,2.0164,2.0216,2.0268,2.0268,2.0268,2.032,2.0268,2.0268,2.0268,2.0268,2.0296,2.0279,2.0085,1.9914,1.9743,1.9695,1.9695,1.9696,1.9451,1.9313,1.9346,1.933,1.9314,1.9314,1.9314,1.4428,1.4299,1.4299,1.4299,1.4306,1.4306,1.438,1.4482,1.4489,1.457,1.4719,1.4841,1.4949,1.497,1.5079,1.516,1.5181,1.5181,1.5181,1.5181,1.5181,1.5181,1.5181,1.5181,1.5181,1.5208,1.5309,1.5296,1.5221,1.5187,1.5194,1.5201,1.5194,1.5187,1.5215,1.5215,1.5181,1.5215,1.5323,1.5445,1.5554,1.5601,1.5884,1.6258,1.6664,1.7104,1.7736,1.7989,1.8056,1.7763,1.7654,1.7184,1.6519,1.6467,1.6433,1.6228,1.6212,1.6307,1.6286,1.6232,1.6225,1.6239,1.6205,1.6327,1.6469,1.6598,1.6585,1.6439,1.6537,1.6578,1.656,1.6592,1.6666,1.6927,1.719,1.7474,1.7673,1.8083,1.8559,1.8827,1.8788,1.8949,1.9223,1.9688,2.0095,2.0156,2.0164,2.0111,2.0164,2.0268,2.0268,2.0268,2.0268,2.0268,2.0268,2.0268,2.0268,2.0268,2.0268,2.0268,2.0288,2.0247,2.0117,1.9938,1.9743,1.9532,1.9467,1.9452,1.9346,1.933,1.9322,1.9322,1.9314,1.9314,1.9297,1.4475,1.4407,1.4333,1.4346,1.4414,1.4421,1.4502,1.4572,1.4599,1.4726,1.4862,1.4936,1.5057,1.5132,1.5214,1.5181,1.5181,1.5181,1.5181,1.5181,1.5181,1.5181,1.5181,1.5181,1.5181,1.5242,1.5309,1.5309,1.5255,1.5282,1.5309,1.5296,1.5235,1.5242,1.5303,1.5309,1.5371,1.5438,1.552,1.5615,1.5821,1.6063,1.6426,1.6835,1.7402,1.7956,1.8374,1.8862,1.8831,1.8559,1.8318,1.7767,1.7149,1.6786,1.6536,1.616,1.6137,1.6178,1.6171,1.6117,1.6151,1.6185,1.6212,1.6347,1.654,1.6723,1.6815,1.6615,1.6734,1.6781,1.6781,1.6775,1.6996,1.7297,1.7704,1.7948,1.8298,1.879,1.9208,1.9485,1.9746,1.9719,1.9724,1.9987,2.0208,2.0216,2.0216,2.0216,2.0216,2.0268,2.0268,2.0268,2.0268,2.0268,2.0268,2.0268,2.0268,2.0268,2.0268,2.0312,2.0279,2.0214,2.0085,1.9906,1.9687,1.9492,1.9305,1.9314,1.9322,1.9314,1.9314,1.9314,1.9322,1.9386,1.9435,1.4518,1.4512,1.4414,1.4414,1.4516,1.455,1.4658,1.4787,1.4748,1.4882,1.4991,1.5078,1.5092,1.516,1.5181,1.5181,1.5181,1.5181,1.5181,1.5181,1.5187,1.5208,1.5221,1.5228,1.5228,1.5296,1.5432,1.5452,1.5452,1.5459,1.5499,1.5418,1.5309,1.5337,1.5432,1.5479,1.5527,1.5662,1.5683,1.5868,1.6174,1.6504,1.6878,1.7405,1.8066,1.8687,1.8776,1.9142,1.9247,1.8652,1.8267,1.7634,1.7091,1.6686,1.6445,1.6232,1.6253,1.633,1.6278,1.6198,1.6185,1.6259,1.6402,1.6612,1.6554,1.6842,1.6971,1.6822,1.6883,1.6956,1.706,1.7154,1.7513,1.7872,1.8246,1.8477,1.8806,1.9276,1.9642,1.9851,2.0059,2.0111,2.0131,2.02,2.0268,2.0268,2.0268,2.0268,2.0268,2.0268,2.0268,2.0268,2.0268,2.0268,2.0268,2.0268,2.0268,2.0268,2.0268,2.032,2.0296,2.0174,2.0079,1.9841,1.9654,1.9467,1.9346,1.933,1.9314,1.9314,1.9314,1.9314,1.9305,1.9435,1.9573,1.4681,1.4667,1.4563,1.4516,1.4543,1.462,1.4814,1.495,1.5003,1.5031,1.5133,1.5207,1.5153,1.5181,1.5181,1.5181,1.5181,1.5181,1.5181,1.5181,1.5187,1.5255,1.5289,1.5303,1.533,1.5485,1.5608,1.5676,1.5799,1.5703,1.5622,1.5445,1.5425,1.5451,1.5539,1.56,1.5716,1.5818,1.5888,1.6145,1.6489,1.6828,1.7062,1.7573,1.8099,1.8352,1.8004,1.8421,1.839,1.7716,1.7427,1.7149,1.6764,1.6466,1.6273,1.6407,1.6535,1.6583,1.6488,1.6476,1.6469,1.6605,1.6768,1.6904,1.6775,1.6998,1.7073,1.7017,1.707,1.7335,1.7566,1.7865,1.8056,1.8483,1.8821,1.9112,1.9381,1.9746,2.0111,2.0216,2.0268,2.0268,2.0268,2.0268,2.0268,2.0268,2.0268,2.0268,2.0268,2.0268,2.0268,2.0268,2.0268,2.0268,2.0268,2.0268,2.0268,2.0268,2.0268,2.0268,2.0312,2.0166,2.0063,1.9933,1.9711,1.95,1.9337,1.9345,1.9337,1.933,1.9314,1.9297,1.9452,1.9565,1.9695,1.4606,1.4694,1.4774,1.4794,1.4801,1.4855,1.4964,1.5086,1.5099,1.5126,1.5181,1.5181,1.5181,1.5181,1.5181,1.5181,1.5181,1.5181,1.5181,1.5181,1.5201,1.5276,1.533,1.5398,1.5438,1.558,1.5723,1.5723,1.5703,1.5832,1.586,1.5738,1.5601,1.5649,1.5737,1.5845,1.5927,1.6003,1.6037,1.6227,1.6347,1.6772,1.702,1.7211,1.7714,1.7943,1.7846,1.7958,1.7767,1.7483,1.7049,1.6778,1.6585,1.6405,1.6504,1.6738,1.6945,1.6951,1.6994,1.6976,1.6958,1.6861,1.6958,1.7012,1.689,1.708,1.71,1.7138,1.7346,1.771,1.7808,1.8154,1.8506,1.9076,1.9443,1.9657,1.9903,2.0164,2.0268,2.0268,2.0268,2.0268,2.0268,2.0268,2.0268,2.0268,2.0268,2.0268,2.0268,2.0268,2.0268,2.0268,2.0268,2.0268,2.0268,2.0268,2.0268,2.0268,2.0268,2.0268,2.0312,2.0174,2.0071,1.9957,1.9817,1.9678,1.9557,1.9484,1.941,1.9387,1.9387,1.9362,1.9508,1.9737,1.9841,1.4713,1.4775,1.5017,1.5057,1.5023,1.5064,1.5132,1.5167,1.5174,1.5181,1.5181,1.5181,1.5181,1.5187,1.5242,1.5215,1.5215,1.5228,1.5215,1.5221,1.5242,1.5337,1.5384,1.5465,1.5539,1.5737,1.5791,1.5854,1.5825,1.5935,1.5956,1.5935,1.5832,1.5859,1.5913,1.6064,1.6133,1.6133,1.6133,1.6225,1.6374,1.6672,1.6921,1.7013,1.7466,1.7424,1.734,1.7275,1.7325,1.7084,1.6843,1.6757,1.6741,1.6774,1.6902,1.7188,1.7462,1.757,1.7616,1.7336,1.7217,1.7119,1.7053,1.7053,1.7078,1.7232,1.7362,1.7373,1.7706,1.8073,1.8177,1.8701,1.9119,1.9629,1.9778,1.9955,2.0059,2.0268,2.0268,2.0268,2.0268,2.0268,2.0268,2.0268,2.0268,2.0268,2.0268,2.0268,2.0268,2.0268,2.0268,2.0268,2.0268,2.0268,2.0268,2.0268,2.0268,2.0268,2.0268,2.0268,2.0279,2.0166,2.0136,2.0055,1.9981,1.9857,1.976,1.9646,1.9508,1.9428,1.9419,1.9475,1.9638,1.9825,2.0028,1.5003,1.4984,1.516,1.5139,1.5051,1.5166,1.5174,1.5181,1.5181,1.5181,1.5181,1.5181,1.5194,1.5228,1.5323,1.5309,1.5269,1.5343,1.5343,1.5269,1.5357,1.5438,1.5533,1.5614,1.575,1.5961,1.6017,1.5996,1.6029,1.6071,1.6092,1.6098,1.6058,1.6015,1.6069,1.6126,1.6133,1.6133,1.6133,1.6374,1.6623,1.6722,1.6772,1.6871,1.7169,1.7027,1.6722,1.6771,1.6786,1.6514,1.6407,1.644,1.6614,1.6924,1.7263,1.7624,1.8579,1.8735,1.8432,1.7524,1.7291,1.7416,1.7408,1.7232,1.7216,1.7412,1.7787,1.7758,1.8282,1.8806,1.9172,1.9493,1.9798,1.9955,2.0059,2.0164,2.0268,2.0268,2.0268,2.0268,2.0268,2.0268,2.0268,2.0268,2.0268,2.0268,2.0268,2.0268,2.0268,2.0268,2.0268,2.0268,2.0268,2.0268,2.0268,2.0268,2.0268,2.0268,2.0268,2.0268,2.0268,2.0271,2.019,2.0161,2.012,2.0036,1.9922,1.9792,1.967,1.9615,1.9565,1.963,1.9792,1.9955,2.015,1.5071,1.5113,1.516,1.5153,1.512,1.516,1.5181,1.5181,1.5181,1.5181,1.5181,1.5181,1.5248,1.533,1.5377,1.5384,1.5377,1.5479,1.5479,1.5371,1.5445,1.5642,1.5737,1.5798,1.5893,1.6064,1.6071,1.6058,1.6119,1.6133,1.6133,1.6133,1.6182,1.6133,1.6126,1.6133,1.6133,1.6133,1.6133,1.6232,1.6374,1.6374,1.6381,1.6431,1.6637,1.6536,1.6269,1.6476,1.646,1.6371,1.6334,1.6618,1.7004,1.7442,1.7938,1.85,1.9345,1.8993,1.8662,1.8212,1.7794,1.7864,1.7741,1.7587,1.7608,1.7653,1.7968,1.8387,1.8858,1.9276,1.9441,1.9851,2.0111,2.0164,2.0216,2.0268,2.0268,2.0268,2.0268,2.0268,2.0268,2.0268,2.0268,2.0268,2.0268,2.0268,2.0268,2.0268,2.0268,2.0268,2.0268,2.0268,2.0268,2.0268,2.0268,2.0268,2.0268,2.0268,2.0268,2.0268,2.0268,2.0268,2.0296,2.0214,2.0214,2.0214,2.0101,1.9987,1.9873,1.9792,1.98,1.9808,1.9914,2.0068,2.0239,1.5146,1.5181,1.5181,1.5181,1.5181,1.5181,1.5181,1.5181,1.5181,1.5181,1.5181,1.5181,1.5262,1.5384,1.5466,1.5438,1.5506,1.5635,1.5587,1.5527,1.5642,1.575,1.5881,1.5962,1.5981,1.6112,1.6133,1.6133,1.6133,1.6133,1.6133,1.6133,1.6275,1.6275,1.6225,1.6133,1.6133,1.6133,1.6133,1.6133,1.6182,1.6139,1.6167,1.6201,1.6235,1.6232,1.6341,1.6351,1.6422,1.6554,1.6756,1.7016,1.7533,1.8181,1.8716,1.9393,1.9705,1.9562,1.957,1.925,1.8986,1.8832,1.8292,1.798,1.8087,1.8387,1.8596,1.8962,1.9441,1.965,1.9851,2.0268,2.0268,2.0268,2.0268,2.0268,2.0268,2.0268,2.0268,2.0268,2.0268,2.0268,2.0268,2.0268,2.0268,2.0268,2.0268,2.0268,2.0268,2.0268,2.0268,2.0268,2.0268,2.0268,2.0268,2.0268,2.0268,2.0268,2.0268,2.0268,2.0268,2.0268,2.0268,2.0268,2.0296,2.0271,2.0271,2.0198,2.0076,2.0044,2.0076,2.0085,2.0136,2.0174,2.0312,1.5181,1.5181,1.5181,1.5181,1.5181,1.504,1.5087,1.5134,1.5134,1.5181,1.5181,1.5181,1.5282,1.5438,1.5567,1.5628,1.5627,1.5798,1.575,1.5723,1.5798,1.5901,1.5969,1.6051,1.6098,1.6119,1.6133,1.6133,1.6133,1.6133,1.6133,1.6275,1.6573,1.6523,1.6374,1.6275,1.6225,1.6126,1.6133,1.6133,1.6133,1.616,1.6178,1.6239,1.63,1.6395,1.6483,1.6486,1.6551,1.6776,1.709,1.7425,1.7997,1.8887,1.9413,1.9899,2.0271,2.0473,2.0428,2.0038,1.9925,1.9499,1.8759,1.8459,1.8596,1.8962,1.9224,1.9485,1.9903,2.0059,2.0268,2.0268,2.0268,2.0268,2.0268,2.0268,2.0268,2.0268,2.0268,2.0268,2.0268,2.0268,2.0268,2.0268,2.0268,2.0268,2.0268,2.0268,2.0268,2.0268,2.0268,2.0268,2.0268,2.0268,2.0268,2.0268,2.0268,2.0268,2.0268,2.0268,2.0268,2.0268,2.0268,2.0268,2.0268,2.0312,2.0304,2.0304,2.0288,2.0279,2.0239,2.0214,2.0174,2.0223,2.032,1.5181,1.5181,1.5181,1.4993,1.4617,1.4288,1.4294,1.461,1.4664,1.4805,1.5181,1.5181,1.5289,1.5567,1.5573,1.5703,1.5818,1.5956,1.5942,1.5942,1.5927,1.6037,1.6078,1.6105,1.6133,1.6133,1.6133,1.6133,1.6133,1.6133,1.6374,1.6672,1.6921,1.6821,1.6722,1.6672,1.6424,1.6175,1.6133,1.6139,1.613,1.6178,1.6266,1.6341,1.6429,1.6537,1.6697,1.6731,1.6869,1.7432,1.7557,1.7979,1.9043,1.9466,1.9877,2.0308,2.0535,2.0527,2.043,2.0019,1.983,1.9982,1.9421,1.9241,1.9291,1.9433,1.9702,1.9955,2.0111,2.0268,2.0268,2.0268,2.0268,2.0268,2.0268,2.0268,2.0268,2.0268,2.0268,2.0268,2.0268,2.0268,2.0268,2.0268,2.0268,2.0268,2.0268,2.0268,2.0268,2.0268,2.0268,2.0268,2.0268,2.0268,2.0268,2.0268,2.0268,2.0268,2.0268,2.0268,2.0268,2.0268,2.0268,2.0268,2.0268,2.0268,2.0268,2.032,2.032,2.032,2.034,2.0279,2.0279,2.0408,2.0633,1.5181,1.5181,1.4946,1.4469,1.3817,1.3493,1.3565,1.3879,1.4077,1.4455,1.4938,1.4992,1.5295,1.5689,1.5737,1.5805,1.5947,1.6008,1.6015,1.6001,1.6085,1.6105,1.6126,1.6133,1.6133,1.6133,1.6133,1.6133,1.6182,1.6424,1.6672,1.7218,1.7367,1.7218,1.707,1.702,1.6722,1.6381,1.6139,1.6117,1.6191,1.6273,1.6347,1.6476,1.6527,1.6738,1.7068,1.7089,1.7517,1.8111,1.823,1.8708,1.9569,1.9851,2.0157,2.0543,2.0588,2.0499,2.0341,2.0083,2.0059,2.0111,2.0007,1.9858,1.9806,1.9903,2.0059,2.0216,2.0268,2.0268,2.0268,2.0268,2.0268,2.0268,2.0268,2.0268,2.0268,2.0268,2.0268,2.0268,2.0268,2.0268,2.0268,2.0268,2.0268,2.0268,2.0268,2.0268,2.0268,2.0268,2.0268,2.0268,2.0268,2.0268,2.0268,2.0268,2.0268,2.0268,2.0268,2.0268,2.0268,2.0268,2.0268,2.0268,2.0268,2.032,2.0372,2.032,2.032,2.0424,2.0685,2.0877,2.092,2.0877,2.1101,1.5181,1.504,1.4523,1.3782,1.2992,1.2903,1.2925,1.3118,1.3453,1.3976,1.4552,1.4709,1.5092,1.5442,1.5727,1.5864,1.5959,1.6019,1.6076,1.6076,1.6119,1.6133,1.6133,1.6133,1.6133,1.6133,1.6133,1.6175,1.6325,1.6672,1.7218,1.7771,1.805,1.7851,1.7218,1.7319,1.6985,1.6294,1.6151,1.6178,1.6279,1.6361,1.6463,1.6628,1.6865,1.7082,1.7604,1.7908,1.8125,1.8701,1.9067,1.9388,1.9849,2.0083,2.0426,2.0564,2.0556,2.0458,2.0361,2.0216,2.0216,2.0268,2.0268,2.0216,2.0111,2.0111,2.0216,2.0268,2.0268,2.0268,2.0268,2.0268,2.0268,2.0268,2.0268,2.0268,2.0268,2.0268,2.0268,2.0268,2.0268,2.0268,2.0268,2.032,2.0476,2.0372,2.032,2.032,2.0424,2.0424,2.032,2.032,2.032,2.032,2.0268,2.0268,2.0268,2.0268,2.0268,2.0268,2.0268,2.0268,2.0268,2.0268,2.032,2.0424,2.0424,2.0529,2.0737,2.1101,2.1362,2.1509,2.157,2.1518,2.1674,1.4946,1.4523,1.3629,1.3169,1.3024,1.2648,1.2571,1.2633,1.2756,1.333,1.4127,1.4532,1.4711,1.4864,1.5529,1.5707,1.5602,1.5877,1.6083,1.6126,1.6133,1.6133,1.6133,1.6133,1.6133,1.6133,1.6182,1.6424,1.6821,1.7318,1.7722,1.8183,1.8302,1.7841,1.7433,1.7442,1.6956,1.6303,1.6387,1.6407,1.6476,1.6551,1.6655,1.6899,1.7148,1.7597,1.8027,1.8282,1.8701,1.9224,1.9381,1.9765,2.0312,2.0389,2.0474,2.0547,2.0474,2.0393,2.0353,2.0268,2.0268,2.0268,2.0268,2.0268,2.0268,2.0268,2.0268,2.0268,2.0268,2.0268,2.0268,2.0268,2.0268,2.0268,2.0268,2.0268,2.0268,2.0268,2.0268,2.0268,2.0268,2.032,2.032,2.0424,2.0581,2.0581,2.0372,2.0372,2.0685,2.0737,2.0476,2.0424,2.032,2.032,2.032,2.0268,2.0268,2.0268,2.0268,2.0268,2.032,2.032,2.032,2.032,2.032,2.0581,2.0841,2.0997,2.1258,2.1674,2.1873,2.2029,2.234,2.2392,2.2444,1.4664,1.4294,1.3364,1.2912,1.2741,1.2508,1.2504,1.2547,1.2613,1.2934,1.3508,1.3969,1.4244,1.4305,1.5058,1.543,1.5323,1.5578,1.5877,1.6033,1.6133,1.6133,1.6133,1.6182,1.6325,1.6374,1.6779,1.7119,1.7516,1.787,1.8282,1.8516,1.8282,1.7968,1.7623,1.7271,1.6959,1.6408,1.671,1.6881,1.6974,1.7117,1.7214,1.7412,1.7811,1.8236,1.8604,1.891,1.9276,1.9694,1.9851,1.9979,2.0305,2.0325,2.0377,2.0418,2.0385,2.0268,2.0268,2.0268,2.0268,2.0268,2.0268,2.0268,2.0268,2.0268,2.0268,2.0268,2.0268,2.0268,2.0268,2.0268,2.0268,2.0268,2.0268,2.0268,2.0268,2.0268,2.0268,2.0268,2.0372,2.0529,2.0476,2.0424,2.0685,2.1258,2.1049,2.0937,2.1154,2.0997,2.0789,2.0529,2.0424,2.032,2.0268,2.0268,2.0268,2.0268,2.0268,2.032,2.032,2.032,2.032,2.0581,2.0789,2.1049,2.1258,2.1466,2.183,2.2236,2.2392,2.2547,2.2858,2.3117,2.3065,1.4341,1.4096,1.3358,1.2805,1.246,1.2509,1.2574,1.2716,1.2727,1.2786,1.2946,1.3309,1.3796,1.4097,1.4626,1.4881,1.518,1.5578,1.5827,1.5983,1.6133,1.6225,1.6282,1.6282,1.6623,1.707,1.7474,1.7863,1.8309,1.8454,1.849,1.8656,1.8482,1.8189,1.7618,1.7318,1.7179,1.7177,1.7409,1.7751,1.791,1.8004,1.8018,1.8226,1.8609,1.9197,1.9421,1.9681,1.989,2.0007,2.0216,2.0232,2.0292,2.0336,2.0336,2.0344,2.0353,2.0268,2.0268,2.0268,2.0268,2.0268,2.0268,2.0268,2.0268,2.0268,2.0268,2.0268,2.0268,2.0268,2.0268,2.0268,2.0268,2.0268,2.0268,2.0268,2.0268,2.0268,2.0268,2.0268,2.0424,2.0581,2.0633,2.0529,2.0997,2.1622,2.1873,2.1873,2.1769,2.1362,2.0997,2.0737,2.0529,2.0424,2.032,2.0268,2.0268,2.0268,2.032,2.0372,2.0424,2.0581,2.0841,2.1154,2.1414,2.157,2.1821,2.208,2.2444,2.2755,2.291,2.3014,2.3169,2.3376,2.3479,1.3973,1.3322,1.2777,1.2557,1.2623,1.2661,1.2743,1.2841,1.2846,1.2868,1.2923,1.2923,1.3123,1.329,1.4682,1.5081,1.4831,1.5379,1.5877,1.6083,1.6225,1.6424,1.6672,1.6871,1.7119,1.7523,1.8027,1.8366,1.8577,1.8613,1.8633,1.8652,1.8012,1.7888,1.8128,1.7865,1.7804,1.7914,1.8143,1.8447,1.8677,1.8766,1.8833,1.9113,1.9501,1.9676,1.9848,2.0178,2.0293,2.0317,2.0268,2.0268,2.0268,2.0268,2.0268,2.0268,2.0268,2.0268,2.0268,2.0268,2.0268,2.0268,2.0268,2.0268,2.0268,2.0268,2.0268,2.0268,2.0268,2.0268,2.0268,2.0268,2.0268,2.0268,2.0268,2.0268,2.0268,2.0268,2.0268,2.0268,2.032,2.0529,2.0633,2.0841,2.1301,2.1821,2.2089,2.208,2.2288,2.1821,2.1258,2.0945,2.0685,2.0476,2.0268,2.0268,2.0268,2.0268,2.0372,2.0476,2.0685,2.0997,2.131,2.1726,2.1933,2.2029,2.234,2.2651,2.2858,2.3169,2.3376,2.3531,2.3583,2.3583,2.3583]},{"header":{"parameterUnit":"m.s-1","parameterCategory":1,"la1":31.0,"la2":29.5877,"lo1":-88.7671,"lo2":-86.6584,"dy":0.0162,"dx":0.0185,"nx":115,"ny":88,"refTime":"2023-09-27T18:00:00:Z","depth":0,"parameterNumber":3,"parameterNumberName":"V-component_of_WINDS"},"data":[0.0,0.0,0.0,0.0,0.0,0.0,0.0,0.0,0.0,0.0,0.0,0.0,0.0,0.0,0.0,0.0,0.0,0.0,0.0,0.0,0.0,0.0,0.0,0.0,0.0,0.0,0.0,0.0,0.0,0.0,0.0,0.0,0.0,0.0,0.0,0.0,0.0,0.0,0.0,0.0,0.0,0.0,0.0,0.0,0.0,0.0,0.0,0.0,0.0,0.0,0.0,0.0,0.0,0.0,0.0,0.0,0.0,0.0,0.0,0.0,0.0,0.0,0.0,0.0,0.0,0.0,0.0,0.0,0.0,0.0,0.0,0.0,0.0,0.0,0.0,0.0,0.0,0.0,0.0,0.0,0.0,0.0,0.0,0.0,0.0,0.0,0.0,0.0,0.0,0.0,0.0,0.0,0.0,0.0,0.0,0.0,0.0,0.0,0.0,0.0,0.0,0.0,0.0,0.0,0.0,0.0,0.0,0.0,0.0,0.0,0.0,0.0,0.0,0.0,0.0,0.0,0.0,0.0,0.0,0.0,0.0,0.0,0.0,0.0,0.0,0.0,0.0,0.0,0.0,0.0,0.0,0.0,0.0,0.0,0.0,0.0,0.0,0.0,0.0,0.0,0.0,0.0,0.0,0.0,0.0,0.0,0.0,0.0,0.0,0.0,0.0,0.0,0.0,0.0,0.0,0.0,0.0,0.0,0.0,0.0,0.0,0.0,0.0,0.0,0.0,0.0,0.0,0.0,0.0,0.0,0.0,0.0,0.0,0.0,0.0,0.0,0.0,0.0,0.0,0.0,0.0,0.0,0.0,0.0,0.0,0.0,0.0,0.0,0.0,0.0,0.0,0.0,0.0,0.0,0.0,0.0,0.0,0.0,0.0,0.0,0.0,0.0,0.0,0.0,0.0,0.0,0.0,0.0,0.0,0.0,0.0,0.0,0.0,0.0,0.0,0.0,0.0,0.0,0.0,0.0,0.0,0.0,0.0,0.0,0.0,0.0,0.0,0.0,0.0,0.0,0.0,0.0,0.0,0.0,0.0,0.0,0.0,0.0,0.0,0.0,0.0,0.0,0.0,0.0,0.0,0.0,0.0,0.0,0.0,0.0,0.0,0.0,0.0,0.0,0.0,0.0,0.0,0.0,0.0,0.0,0.0,0.0,0.0,0.0,0.0,0.0,0.0,0.0,0.0,0.0,0.0,0.0,0.0,0.0,0.0,0.0,0.0,0.0,0.0,0.0,0.0,0.0,0.0,0.0,0.0,0.0,0.0,0.0,0.0,0.0,0.0,0.0,0.0,0.0,0.0,0.0,0.0,0.0,0.0,0.0,0.0,0.0,0.0,0.0,0.0,0.0,0.0,0.0,0.0,0.0,0.0,0.0,0.0,0.0,0.0,0.0,0.0,0.0,0.0,0.0,0.0,0.0,0.0,0.0,0.0,0.0,0.0,0.0,0.0,0.0,0.0,0.0,0.0,0.0,0.0,0.0,0.0,0.0,0.0,0.0,0.0,0.0,0.0,0.0,0.0,0.0,0.0,0.0,0.0,0.0,0.0,0.0,0.0,0.0,0.0,0.0,0.0,0.0,0.0,0.0,0.0,0.0,0.0,0.0,0.0,0.0,0.0,0.0,0.0,0.0,0.0,0.0,0.0,0.0,0.0,0.0,0.0,0.0,0.0,0.0,0.0,0.0,0.0,0.0,0.0,0.0,0.0,0.0,0.0,0.0,0.0,0.0,0.0,0.0,0.0,0.0,0.0,0.0,0.0,0.0,0.0,0.0,0.0,0.0,0.0,0.0,0.0,0.0,0.0,0.0,0.0,0.0,0.0,0.0,0.0,0.0,0.0,0.0,0.0,0.0,0.0,0.0,0.0,0.0,0.0,0.0,0.0,0.0,0.0,0.0,0.0,0.0,0.0,0.0,0.0,0.0,0.0,0.0,0.0,0.0,0.0,0.0,0.0,0.0,0.0,0.0,0.0,0.0,0.0,0.0,0.0,0.0,0.0,0.0,0.0,0.0,0.0,0.0,0.0,0.0,0.0,0.0,0.0,0.0,0.0,0.0,0.0,0.0,0.0,0.0,0.0,0.0,0.0,0.0,0.0,0.0,0.0,0.0,0.0,0.0,0.0,0.0,0.0,0.0,0.0,0.0,0.0,0.0,0.0,0.0,0.0,0.0,0.0,0.0,0.0,0.0,0.0,0.0,0.0,0.0,0.0,0.0,0.0,0.0,0.0,0.0,0.0,0.0,0.0,0.0,0.0,0.0,0.0,0.0,0.0,0.0,0.0,0.0,0.0,0.0,0.0,0.0,0.0,0.0,0.0,0.0,0.0,0.0,0.0,0.0,0.0,0.0,0.0,0.0,0.0,0.0,0.0,0.0,0.0,0.0,0.0,0.0,0.0,0.0,0.0,0.0,0.0,0.0,0.0,0.0,0.0,0.0,0.0,0.0,0.0,0.0,0.0,0.0,0.0,0.0,0.0,0.0,0.0,0.0,0.0,0.0,0.0,0.0,0.0,0.0,0.0,0.0,0.0,0.0,0.0,0.0,0.0,0.0,0.0,0.0,0.0,0.0,0.0,0.0,0.0,0.0,0.0,0.0,0.0,0.0,0.0,0.0,0.0,0.0,0.0,0.0,0.0,0.0,0.0,0.0,0.0,0.0,0.0,0.0,0.0,0.0,0.0,0.0,0.0,0.0,0.0,0.0,0.0,0.0,0.0,0.0,0.0,0.0,0.0,0.0,0.0,0.0,0.0,0.0,0.0,0.0,0.0,0.0,0.0,0.0,0.0,0.0,0.0,0.0,0.0,0.0,0.0,0.0,0.0,0.0,0.0,0.0,0.0,0.0,0.0,0.0,0.0,0.0,0.0,0.0,0.0,0.0,0.0,0.0,0.0,0.0,0.0,0.0,0.0,0.0,0.0,0.0,0.0,0.0,0.0,0.0,0.0,0.0,0.0,0.0,0.0,0.0,0.0,0.0,0.0,0.0,0.0,0.0,0.0,0.0,0.0,0.0,0.0,0.0,0.0,0.0,0.0,0.0,0.0,0.0,0.0,0.0,0.0,0.0,0.0,0.0,0.0,0.0,0.0,0.0,0.0,0.0,0.0,0.0,0.0,0.0,0.0,0.0,0.0,0.0,0.0,0.0,0.0,0.0,0.0,0.0,0.0,0.0,0.0,0.0,0.0,0.0,0.0,0.0,0.0,0.0,0.0,0.0,0.0,0.0,0.0,0.0,0.0,0.0,0.0,0.0,0.0,0.0,0.0,0.0,0.0,0.0,0.0,0.0,0.0,0.0,0.0,0.0,0.0,0.0,0.0,0.0,0.0,0.0,0.0,0.0,0.0,0.0,0.0,0.0,0.0,0.0,0.0,0.0,0.0,0.0,0.0,0.0,0.0,0.0,0.0,0.0,0.0,0.0,0.0,0.0,0.0,0.0,0.0,0.0,0.0,0.0,0.0,0.0,0.0,0.0,0.0,0.0,0.0,0.0,0.0,0.0,0.0,0.0,0.0,0.0,0.0,0.0,0.0,0.0,0.0,0.0,0.0,0.0,0.0,0.0,0.0,0.0,0.0,0.0,0.0,0.0,0.0,0.0,0.0,0.0,0.0,0.0,0.0,0.0,0.0,0.0,0.0,0.0,0.0,0.0,0.0,0.0,0.0,0.0,0.0,0.0,0.0,0.0,0.0,0.0,0.0,0.0,0.0,0.0,0.0,0.0,0.0,0.0,0.0,0.0,0.0,0.0,0.0,0.0,0.0,0.0,0.0,0.0,0.0,0.0,0.0,0.0,0.0,0.0,0.0,0.0,0.0,0.0,0.0,0.0,0.0,0.0,0.0,0.0,0.0,0.0,0.0,0.0,0.0,0.0,0.0,0.0,0.0,0.0,0.0,0.0,0.0,0.0,0.0,0.0,0.0,0.0,0.0,0.0,0.0,0.0,0.0,0.0,0.0,0.0,0.0,0.0,0.0,0.0,0.0,0.0,0.0,0.0,0.0,0.0,0.0,0.0,0.0,0.0,0.0,0.0,0.0,0.0,0.0,0.0,0.0,0.0,0.0,0.0,0.0,0.0,0.0,0.0,0.0,0.0,0.0,0.0,0.0,0.0,0.0,0.0,0.0,0.0,0.0,0.0,0.0,0.0,0.0,0.0,0.0,0.0,0.0,0.0,0.0,0.0,0.0,0.0,0.0,0.0,0.0,0.0,0.0,0.0,0.0,0.0,0.0,0.0,0.0,0.0,0.0,0.0,0.0,0.0,0.0,0.0,1.6873,0.0,0.0,0.0,0.0,0.0,0.0,0.0,0.0,0.0,0.0,0.0,0.0,0.0,0.0,0.0,0.0,0.0,0.0,0.0,0.0,0.0,0.0,0.0,0.0,0.0,0.0,0.0,0.0,0.0,0.0,0.0,0.0,0.0,0.0,0.0,0.0,0.0,0.0,0.0,0.0,0.0,0.0,0.0,0.0,0.0,0.0,0.0,0.0,0.0,0.0,0.0,0.0,0.0,0.0,0.0,0.0,0.0,0.0,0.0,0.0,0.0,0.0,0.0,0.0,0.0,0.0,0.0,0.0,0.0,0.0,0.0,0.0,0.0,0.0,0.0,0.0,0.0,0.0,0.0,0.0,0.0,0.0,0.0,0.0,0.0,0.0,0.0,0.0,0.0,0.0,0.0,0.0,0.0,0.0,0.0,0.0,0.0,0.0,0.0,0.0,0.0,0.0,0.0,0.0,0.0,0.0,0.0,0.0,0.0,0.0,1.806,1.7728,1.7717,1.756,1.7179,0.0,0.0,0.0,0.0,0.0,0.0,0.0,0.0,0.0,0.0,0.0,0.0,0.0,0.0,0.0,0.0,0.0,0.0,0.0,0.0,0.0,0.0,0.0,0.0,0.0,0.0,0.0,0.0,0.0,0.0,0.0,0.0,0.0,0.0,0.0,0.0,0.0,0.0,0.0,0.0,0.0,0.0,0.0,0.0,0.0,0.0,0.0,0.0,0.0,0.0,0.0,0.0,0.0,0.0,0.0,0.0,0.0,0.0,0.0,0.0,0.0,0.0,0.0,0.0,0.0,0.0,0.0,0.0,0.0,0.0,0.0,0.0,0.0,0.0,0.0,0.0,0.0,0.0,0.0,0.0,0.0,0.0,0.0,0.0,0.0,0.0,0.0,0.0,0.0,0.0,0.0,0.0,0.0,0.0,0.0,0.0,0.0,0.0,0.0,0.0,0.0,0.0,0.0,0.0,0.0,0.0,0.0,0.0,0.0,0.0,0.0,0.0,1.8583,1.8292,1.7708,0.0,0.0,0.0,0.0,0.0,0.0,0.0,0.0,0.0,0.0,0.0,0.0,0.0,0.0,0.0,0.0,0.0,0.0,0.0,0.0,0.0,0.0,0.0,0.0,0.0,0.0,0.0,0.0,0.0,0.0,0.0,0.0,0.0,0.0,0.0,0.0,0.0,0.0,0.0,0.0,0.0,0.0,0.0,0.0,0.0,0.0,0.0,0.0,0.0,0.0,0.0,0.0,0.0,0.0,0.0,0.0,0.0,0.0,0.0,0.0,0.0,0.0,0.0,0.0,0.0,0.0,0.0,0.0,0.0,0.0,0.0,0.0,0.0,0.0,0.0,0.0,0.0,0.0,0.0,0.0,0.0,0.0,0.0,0.0,0.0,0.0,0.0,0.0,0.0,0.0,0.0,0.0,0.0,0.0,0.0,0.0,0.0,0.0,0.0,0.0,0.0,0.0,0.0,0.0,0.0,0.0,0.0,0.0,0.0,0.0,1.9446,1.9381,1.9384,0.0,1.9379,0.0,0.0,0.0,0.0,0.0,0.0,0.0,0.0,0.0,0.0,0.0,0.0,0.0,0.0,0.0,0.0,0.0,0.0,0.0,0.0,0.0,0.0,0.0,0.0,0.0,0.0,0.0,0.0,0.0,0.0,0.0,0.0,0.0,0.0,0.0,0.0,0.0,0.0,0.0,0.0,0.0,0.0,0.0,0.0,0.0,0.0,0.0,0.0,0.0,0.0,0.0,0.0,0.0,0.0,0.0,0.0,0.0,0.0,0.0,0.0,0.0,0.0,0.0,0.0,0.0,0.0,0.0,0.0,0.0,0.0,0.0,0.0,0.0,0.0,0.0,0.0,0.0,0.0,0.0,0.0,0.0,0.0,0.0,0.0,0.0,0.0,0.0,0.0,0.0,0.0,0.0,0.0,0.0,0.0,0.0,0.0,0.0,0.0,0.0,0.0,0.0,0.0,0.0,0.0,0.0,0.0,0.0,0.0,0.0,0.0,1.9486,1.9492,1.9543,1.9561,0.0,0.0,0.0,0.0,0.0,0.0,0.0,0.0,0.0,0.0,0.0,0.0,0.0,0.0,0.0,0.0,0.0,0.0,0.0,0.0,0.0,0.0,0.0,0.0,0.0,0.0,0.0,0.0,0.0,0.0,0.0,0.0,0.0,0.0,0.0,0.0,0.0,0.0,0.0,0.0,0.0,0.0,0.0,0.0,0.0,0.0,0.0,0.0,0.0,0.0,0.0,0.0,0.0,0.0,0.0,0.0,0.0,0.0,0.0,0.0,0.0,0.0,0.0,0.0,0.0,0.0,0.0,0.0,0.0,0.0,0.0,0.0,0.0,0.0,0.0,0.0,0.0,0.0,0.0,0.0,0.0,0.0,0.0,0.0,0.0,0.0,0.0,0.0,0.0,0.0,0.0,0.0,0.0,0.0,0.0,0.0,0.0,0.0,0.0,0.0,0.0,0.0,0.0,0.0,0.0,0.0,0.0,0.0,0.0,0.0,1.9516,1.9501,1.9492,1.9777,1.9824,1.9605,0.0,0.0,0.0,0.0,0.0,0.0,0.0,0.0,0.0,0.0,0.0,0.0,0.0,0.0,0.0,0.0,0.0,0.0,0.0,0.0,0.0,0.0,0.0,0.0,0.0,0.0,0.0,0.0,0.0,0.0,0.0,0.0,0.0,0.0,0.0,0.0,0.0,0.0,0.0,0.0,0.0,0.0,0.0,0.0,0.0,0.0,0.0,0.0,0.0,0.0,0.0,0.0,0.0,0.0,0.0,0.0,0.0,0.0,0.0,0.0,0.0,0.0,0.0,0.0,0.0,0.0,0.0,0.0,0.0,0.0,0.0,0.0,0.0,0.0,0.0,0.0,0.0,0.0,0.0,0.0,0.0,0.0,0.0,0.0,0.0,0.0,0.0,0.0,0.0,0.0,0.0,0.0,0.0,0.0,0.0,0.0,0.0,0.0,0.0,0.0,0.0,0.0,0.0,0.0,0.0,0.0,0.0,0.0,1.9509,1.9541,1.9529,1.957,2.0333,2.0385,0.0,0.0,0.0,0.0,0.0,0.0,0.0,0.0,0.0,0.0,0.0,0.0,0.0,0.0,0.0,0.0,0.0,0.0,0.0,0.0,0.0,0.0,0.0,0.0,0.0,0.0,0.0,0.0,0.0,0.0,0.0,0.0,0.0,0.0,0.0,0.0,0.0,0.0,0.0,0.0,0.0,0.0,0.0,0.0,0.0,0.0,0.0,0.0,0.0,0.0,0.0,0.0,0.0,0.0,0.0,0.0,0.0,0.0,0.0,0.0,0.0,0.0,0.0,0.0,0.0,0.0,0.0,0.0,0.0,0.0,0.0,0.0,0.0,0.0,0.0,0.0,0.0,0.0,0.0,0.0,0.0,0.0,0.0,0.0,0.0,0.0,0.0,0.0,0.0,0.0,0.0,0.0,0.0,0.0,0.0,0.0,0.0,0.0,0.0,0.0,0.0,0.0,0.0,0.0,0.0,0.0,0.0,0.0,0.0,2.0252,2.0822,2.1093,2.1097,2.089,2.0641,0.0,0.0,0.0,0.0,0.0,0.0,0.0,0.0,0.0,0.0,0.0,0.0,0.0,0.0,0.0,0.0,0.0,0.0,0.0,0.0,0.0,0.0,0.0,0.0,0.0,0.0,0.0,0.0,0.0,0.0,0.0,0.0,0.0,0.0,0.0,0.0,0.0,0.0,0.0,0.0,0.0,0.0,0.0,0.0,0.0,0.0,0.0,0.0,0.0,0.0,0.0,0.0,0.0,0.0,0.0,0.0,0.0,0.0,0.0,0.0,0.0,0.0,0.0,0.0,0.0,0.0,0.0,0.0,0.0,0.0,0.0,0.0,0.0,0.0,0.0,0.0,0.0,0.0,0.0,0.0,0.0,0.0,0.0,0.0,0.0,0.0,0.0,0.0,0.0,0.0,0.0,0.0,0.0,0.0,0.0,0.0,0.0,0.0,0.0,0.0,0.0,0.0,0.0,0.0,0.0,0.0,0.0,0.0,0.0,2.1097,0.0,2.2259,2.1995,2.1747,2.135,0.0,0.0,0.0,0.0,0.0,0.0,0.0,0.0,0.0,0.0,0.0,0.0,0.0,0.0,0.0,0.0,0.0,0.0,0.0,0.0,0.0,0.0,0.0,0.0,0.0,0.0,0.0,0.0,0.0,0.0,0.0,0.0,0.0,0.0,0.0,0.0,0.0,0.0,0.0,0.0,0.0,0.0,0.0,0.0,0.0,0.0,0.0,0.0,0.0,0.0,0.0,0.0,0.0,0.0,0.0,0.0,0.0,0.0,0.0,0.0,0.0,0.0,0.0,0.0,0.0,0.0,0.0,0.0,0.0,0.0,0.0,0.0,0.0,0.0,0.0,0.0,0.0,0.0,0.0,0.0,0.0,0.0,0.0,0.0,0.0,0.0,0.0,0.0,0.0,0.0,0.0,0.0,0.0,0.0,0.0,0.0,0.0,0.0,0.0,0.0,0.0,0.0,0.0,0.0,0.0,0.0,0.0,0.0,2.1212,2.2011,2.2868,2.298,2.213,2.2831,2.246,0.0,0.0,0.0,0.0,0.0,0.0,0.0,0.0,0.0,0.0,0.0,0.0,0.0,0.0,0.0,0.0,0.0,0.0,0.0,0.0,0.0,0.0,0.0,0.0,0.0,0.0,0.0,0.0,0.0,0.0,0.0,0.0,0.0,0.0,0.0,0.0,0.0,0.0,0.0,0.0,0.0,0.0,0.0,0.0,0.0,0.0,0.0,0.0,0.0,0.0,0.0,0.0,0.0,0.0,0.0,0.0,0.0,0.0,0.0,0.0,0.0,0.0,0.0,0.0,0.0,0.0,0.0,0.0,0.0,0.0,0.0,0.0,0.0,0.0,0.0,0.0,0.0,0.0,0.0,0.0,0.0,0.0,0.0,0.0,0.0,0.0,0.0,0.0,0.0,0.0,0.0,0.0,0.0,0.0,0.0,0.0,0.0,0.0,0.0,0.0,0.0,0.0,0.0,0.0,0.0,0.0,0.0,0.0,0.0,2.3748,2.5048,2.5638,2.5378,2.4524,2.3859,0.0,0.0,0.0,0.0,0.0,0.0,0.0,0.0,0.0,0.0,0.0,0.0,0.0,0.0,0.0,0.0,0.0,0.0,0.0,0.0,0.0,0.0,0.0,0.0,0.0,0.0,0.0,0.0,0.0,0.0,0.0,0.0,0.0,0.0,0.0,0.0,0.0,0.0,0.0,0.0,0.0,0.0,0.0,0.0,0.0,0.0,0.0,0.0,0.0,0.0,0.0,0.0,0.0,0.0,0.0,0.0,0.0,0.0,0.0,0.0,0.0,0.0,0.0,0.0,0.0,0.0,0.0,0.0,0.0,0.0,0.0,0.0,0.0,0.0,0.0,0.0,0.0,0.0,0.0,0.0,0.0,0.0,0.0,0.0,0.0,0.0,0.0,0.0,0.0,0.0,0.0,0.0,0.0,0.0,0.0,0.0,0.0,0.0,0.0,0.0,0.0,0.0,0.0,0.0,0.0,0.0,0.0,0.0,0.0,2.7692,2.8064,2.8435,2.8728,2.7171,2.5875,2.4946,0.0,0.0,0.0,0.0,0.0,0.0,0.0,0.0,0.0,0.0,0.0,0.0,0.0,0.0,0.0,0.0,0.0,0.0,0.0,0.0,0.0,0.0,0.0,0.0,0.0,0.0,0.0,0.0,0.0,0.0,0.0,0.0,0.0,0.0,0.0,0.0,0.0,0.0,0.0,0.0,0.0,0.0,0.0,0.0,0.0,0.0,0.0,0.0,0.0,0.0,0.0,0.0,0.0,0.0,0.0,0.0,0.0,0.0,0.0,0.0,0.0,0.0,0.0,0.0,0.0,0.0,0.0,0.0,0.0,0.0,0.0,0.0,0.0,0.0,0.0,0.0,0.0,0.0,0.0,0.0,0.0,0.0,0.0,0.0,0.0,0.0,0.0,0.0,0.0,0.0,0.0,0.0,0.0,0.0,0.0,0.0,0.0,0.0,0.0,0.0,0.0,0.0,0.0,0.0,0.0,0.0,0.0,0.0,3.3256,3.1886,3.144,3.1924,3.04,2.8472,0.0,0.0,0.0,0.0,0.0,0.0,0.0,0.0,0.0,0.0,0.0,0.0,0.0,0.0,0.0,0.0,0.0,0.0,0.0,0.0,0.0,0.0,0.0,0.0,0.0,0.0,0.0,0.0,0.0,0.0,0.0,0.0,0.0,0.0,0.0,0.0,0.0,0.0,0.0,0.0,0.0,0.0,0.0,0.0,0.0,0.0,0.0,0.0,0.0,0.0,0.0,0.0,0.0,0.0,0.0,0.0,0.0,0.0,0.0,0.0,0.0,0.0,0.0,0.0,0.0,0.0,0.0,0.0,0.0,0.0,0.0,0.0,0.0,0.0,0.0,0.0,0.0,0.0,0.0,0.0,0.0,0.0,0.0,0.0,0.0,0.0,0.0,0.0,0.0,0.0,0.0,0.0,0.0,0.0,0.0,0.0,0.0,0.0,0.0,0.0,0.0,0.0,0.0,0.0,0.0,0.0,0.0,0.0,0.0,3.6482,3.7417,3.6786,3.4599,3.2921,3.1218,0.0,0.0,0.0,0.0,0.0,0.0,0.0,0.0,0.0,0.0,0.0,0.0,0.0,0.0,0.0,0.0,0.0,0.0,0.0,0.0,0.0,0.0,0.0,0.0,0.0,0.0,0.0,0.0,0.0,0.0,0.0,0.0,0.0,0.0,0.0,0.0,0.0,0.0,0.0,0.0,0.0,0.0,0.0,0.0,0.0,0.0,0.0,0.0,0.0,0.0,0.0,0.0,0.0,0.0,0.0,0.0,0.0,0.0,0.0,0.0,0.0,0.0,0.0,0.0,0.0,0.0,0.0,0.0,0.0,0.0,0.0,0.0,0.0,0.0,0.0,0.0,0.0,0.0,0.0,0.0,0.0,0.0,0.0,0.0,0.0,0.0,0.0,0.0,0.0,0.0,0.0,0.0,0.0,0.0,0.0,0.0,0.0,0.0,0.0,0.0,0.0,0.0,0.0,0.0,0.0,0.0,0.0,0.0,3.5634,3.8866,4.091,4.0977,3.9126,3.6117,3.3627,0.0,0.0,0.0,0.0,0.0,0.0,0.0,0.0,0.0,0.0,0.0,0.0,0.0,0.0,0.0,0.0,0.0,0.0,0.0,0.0,0.0,0.0,0.0,0.0,0.0,0.0,0.0,0.0,0.0,0.0,0.0,0.0,0.0,0.0,0.0,0.0,0.0,0.0,0.0,0.0,0.0,0.0,0.0,0.0,0.0,0.0,0.0,0.0,0.0,0.0,0.0,0.0,0.0,0.0,0.0,0.0,0.0,0.0,0.0,0.0,0.0,0.0,0.0,0.0,0.0,0.0,0.0,0.0,0.0,0.0,0.0,0.0,0.0,0.0,0.0,0.0,0.0,0.0,0.0,0.0,0.0,0.0,0.0,0.0,0.0,0.0,0.0,0.0,0.0,0.0,0.0,0.0,0.0,0.0,0.0,0.0,0.0,0.0,0.0,0.0,0.0,0.0,0.0,0.0,0.0,0.0,0.0,0.0,3.7454,4.0724,4.3065,4.4238,4.4135,3.9602,3.5968,0.0,0.0,0.0,0.0,0.0,0.0,0.0,0.0,0.0,0.0,0.0,0.0,0.0,0.0,0.0,0.0,0.0,0.0,0.0,0.0,0.0,0.0,0.0,0.0,0.0,0.0,0.0,0.0,0.0,0.0,0.0,0.0,0.0,0.0,0.0,0.0,0.0,0.0,0.0,0.0,0.0,0.0,0.0,0.0,0.0,0.0,0.0,0.0,0.0,0.0,0.0,0.0,0.0,0.0,0.0,0.0,0.0,0.0,0.0,0.0,0.0,0.0,0.0,0.0,0.0,0.0,0.0,0.0,0.0,0.0,0.0,0.0,0.0,0.0,0.0,0.0,0.0,0.0,0.0,0.0,0.0,0.0,0.0,0.0,0.0,0.0,0.0,0.0,0.0,0.0,0.0,0.0,0.0,0.0,0.0,0.0,0.0,0.0,0.0,0.0,0.0,0.0,0.0,0.0,0.0,0.0,0.0,0.0,3.9937,4.3169,4.5026,4.5955,4.5955,4.1832,3.8755,0.0,0.0,0.0,0.0,0.0,0.0,0.0,0.0,0.0,0.0,0.0,0.0,0.0,0.0,0.0,0.0,0.0,0.0,0.0,0.0,0.0,0.0,0.0,0.0,0.0,0.0,0.0,0.0,0.0,0.0,0.0,0.0,0.0,0.0,0.0,0.0,0.0,0.0,0.0,0.0,0.0,0.0,0.0,0.0,0.0,0.0,0.0,0.0,3.2728,0.0,0.0,0.0,0.0,0.0,0.0,0.0,0.0,0.0,0.0,0.0,0.0,0.0,0.0,0.0,0.0,0.0,0.0,0.0,0.0,0.0,0.0,0.0,0.0,0.0,0.0,0.0,0.0,0.0,0.0,0.0,0.0,0.0,0.0,0.0,0.0,0.0,0.0,0.0,0.0,0.0,0.0,0.0,0.0,0.0,0.0,0.0,0.0,0.0,0.0,0.0,0.0,0.0,0.0,0.0,0.0,0.0,0.0,0.0,4.1089,4.3949,4.5621,4.6513,4.6401,4.3622,4.0947,0.0,0.0,0.0,0.0,0.0,0.0,0.0,0.0,0.0,0.0,0.0,0.0,0.0,0.0,0.0,0.0,0.0,0.0,0.0,0.0,0.0,0.0,0.0,0.0,0.0,0.0,0.0,0.0,0.0,0.0,0.0,0.0,0.0,0.0,0.0,0.0,0.0,0.0,0.0,0.0,0.0,0.0,0.0,0.0,0.0,0.0,0.0,0.0,0.0,0.0,0.0,0.0,0.0,0.0,0.0,0.0,0.0,0.0,0.0,0.0,0.0,0.0,0.0,0.0,0.0,0.0,0.0,0.0,0.0,0.0,0.0,0.0,0.0,0.0,0.0,0.0,0.0,0.0,0.0,0.0,0.0,0.0,0.0,0.0,0.0,0.0,0.0,0.0,0.0,0.0,0.0,0.0,0.0,0.0,0.0,0.0,0.0,0.0,0.0,0.0,0.0,0.0,0.0,0.0,0.0,0.0,0.0,3.9238,4.2062,4.4655,4.6141,4.6818,4.6661,4.5064,4.2649,3.938,0.0,0.0,0.0,0.0,0.0,0.0,0.0,0.0,0.0,0.0,0.0,0.0,0.0,0.0,0.0,0.0,0.0,0.0,0.0,0.0,0.0,0.0,0.0,0.0,0.0,0.0,0.0,0.0,0.0,0.0,0.0,0.0,0.0,0.0,0.0,0.0,0.0,0.0,2.9379,3.153,0.0,0.0,0.0,0.0,0.0,0.0,0.0,0.0,3.6619,0.0,0.0,0.0,0.0,0.0,0.0,0.0,0.0,0.0,0.0,0.0,0.0,0.0,0.0,0.0,0.0,0.0,0.0,0.0,0.0,0.0,0.0,0.0,0.0,0.0,0.0,0.0,0.0,0.0,0.0,0.0,0.0,0.0,0.0,0.0,0.0,0.0,0.0,0.0,0.0,0.0,0.0,0.0,0.0,0.0,0.0,0.0,0.0,0.0,0.0,0.0,0.0,0.0,0.0,0.0,0.0,3.9498,4.1467,4.4246,4.7999,4.837,4.8184,4.7516,4.5955,4.3548,4.0278,0.0,0.0,0.0,0.0,0.0,0.0,0.0,0.0,0.0,0.0,0.0,0.0,0.0,0.0,0.0,0.0,0.0,0.0,0.0,0.0,0.0,0.0,0.0,0.0,0.0,0.0,0.0,0.0,0.0,0.0,0.0,0.0,0.0,0.0,0.0,0.0,0.0,0.0,0.0,3.5225,3.6635,0.0,0.0,0.0,0.0,0.0,0.0,0.0,0.0,3.8607,0.0,0.0,0.0,0.0,0.0,0.0,0.0,0.0,0.0,0.0,0.0,0.0,0.0,0.0,0.0,0.0,0.0,0.0,0.0,0.0,0.0,0.0,0.0,0.0,0.0,0.0,0.0,0.0,0.0,0.0,0.0,0.0,0.0,0.0,0.0,0.0,0.0,0.0,0.0,0.0,0.0,0.0,0.0,0.0,0.0,0.0,0.0,0.0,0.0,0.0,0.0,0.0,0.0,0.0,0.0,4.0873,4.3845,4.6698,4.941,4.9968,4.9596,4.8333,4.6773,4.4395,0.0,0.0,0.0,0.0,0.0,0.0,0.0,0.0,0.0,0.0,0.0,0.0,0.0,0.0,0.0,0.0,0.0,0.0,0.0,0.0,0.0,0.0,0.0,0.0,0.0,0.0,0.0,0.0,0.0,0.0,0.0,0.0,0.0,0.0,0.0,0.0,0.0,0.0,0.0,0.0,3.7636,3.9065,4.0735,0.0,0.0,0.0,0.0,0.0,0.0,4.184,4.1159,0.0,0.0,0.0,0.0,0.0,0.0,0.0,0.0,0.0,0.0,0.0,0.0,0.0,0.0,0.0,0.0,0.0,0.0,0.0,0.0,0.0,0.0,0.0,0.0,0.0,0.0,0.0,0.0,0.0,0.0,0.0,0.0,0.0,0.0,0.0,0.0,0.0,0.0,0.0,0.0,0.0,0.0,0.0,0.0,0.0,0.0,0.0,0.0,0.0,0.0,0.0,0.0,0.0,0.0,0.0,4.204,4.5778,4.8556,5.0293,5.1045,5.0673,4.9187,4.7404,4.496,0.0,0.0,0.0,0.0,0.0,0.0,0.0,0.0,0.0,0.0,0.0,0.0,0.0,0.0,0.0,0.0,0.0,0.0,0.0,0.0,0.0,0.0,0.0,0.0,0.0,0.0,0.0,0.0,0.0,0.0,0.0,0.0,0.0,0.0,0.0,0.0,0.0,0.0,0.0,0.0,0.0,4.1275,4.3627,4.2822,0.0,0.0,0.0,0.0,4.4095,4.4299,0.0,0.0,0.0,0.0,0.0,0.0,0.0,0.0,0.0,0.0,0.0,0.0,0.0,0.0,0.0,0.0,0.0,0.0,0.0,0.0,0.0,0.0,0.0,0.0,0.0,0.0,0.0,0.0,0.0,0.0,0.0,0.0,0.0,0.0,0.0,0.0,0.0,0.0,0.0,0.0,0.0,0.0,0.0,0.0,0.0,0.0,0.0,0.0,0.0,0.0,0.0,0.0,0.0,0.0,0.0,0.0,4.3662,4.6359,4.8862,5.1119,5.1342,5.0933,4.9959,4.7738,4.4952,0.0,0.0,0.0,0.0,0.0,0.0,0.0,0.0,0.0,0.0,0.0,0.0,0.0,0.0,0.0,0.0,0.0,0.0,0.0,0.0,0.0,0.0,0.0,0.0,0.0,0.0,0.0,0.0,0.0,0.0,0.0,0.0,0.0,0.0,0.0,0.0,0.0,0.0,0.0,0.0,0.0,4.3469,4.5269,4.5352,4.4995,0.0,0.0,4.6496,4.6579,4.7201,0.0,0.0,0.0,0.0,0.0,0.0,0.0,0.0,0.0,0.0,0.0,0.0,0.0,0.0,0.0,0.0,0.0,0.0,0.0,0.0,0.0,0.0,0.0,0.0,0.0,0.0,0.0,0.0,0.0,0.0,0.0,0.0,0.0,0.0,0.0,0.0,0.0,0.0,0.0,0.0,0.0,0.0,0.0,0.0,0.0,0.0,0.0,0.0,0.0,0.0,0.0,0.0,0.0,0.0,0.0,4.0021,4.4757,4.8107,5.0785,5.267,5.2744,5.2382,5.1556,4.8704,4.5844,0.0,0.0,0.0,0.0,0.0,0.0,0.0,0.0,0.0,0.0,0.0,0.0,0.0,0.0,0.0,0.0,0.0,0.0,0.0,0.0,0.0,0.0,0.0,0.0,0.0,0.0,0.0,0.0,0.0,0.0,0.0,0.0,0.0,0.0,0.0,0.0,0.0,0.0,0.0,0.0,0.0,0.0,4.7077,4.7748,0.0,0.0,0.0,4.9018,4.8551,0.0,0.0,0.0,0.0,0.0,0.0,0.0,0.0,0.0,0.0,0.0,0.0,0.0,0.0,0.0,0.0,0.0,0.0,0.0,0.0,0.0,0.0,0.0,0.0,0.0,0.0,0.0,0.0,0.0,0.0,0.0,0.0,0.0,0.0,0.0,0.0,0.0,0.0,0.0,0.0,0.0,0.0,0.0,0.0,0.0,0.0,0.0,0.0,0.0,0.0,0.0,0.0,0.0,0.0,0.0,0.0,0.0,4.5674,4.9677,5.2494,5.4007,5.3896,5.3608,5.3153,5.0219,0.0,0.0,0.0,0.0,0.0,0.0,0.0,0.0,0.0,0.0,0.0,0.0,0.0,0.0,0.0,0.0,0.0,0.0,0.0,0.0,0.0,0.0,0.0,0.0,0.0,0.0,0.0,2.8876,0.0,0.0,0.0,0.0,0.0,0.0,0.0,0.0,0.0,0.0,0.0,0.0,0.0,0.0,4.6085,4.8513,4.9645,5.0289,0.0,0.0,5.0875,5.0298,5.0906,5.0362,0.0,0.0,0.0,0.0,0.0,0.0,0.0,0.0,0.0,0.0,0.0,0.0,0.0,0.0,0.0,0.0,0.0,0.0,0.0,0.0,0.0,0.0,0.0,0.0,0.0,0.0,0.0,0.0,0.0,0.0,0.0,0.0,0.0,0.0,0.0,0.0,0.0,0.0,0.0,0.0,0.0,0.0,0.0,0.0,0.0,0.0,0.0,0.0,0.0,0.0,0.0,0.0,0.0,0.0,4.3274,4.661,5.0522,5.3311,5.4825,5.4193,5.4156,5.4787,5.2457,4.9633,0.0,0.0,0.0,0.0,0.0,0.0,0.0,0.0,0.0,0.0,0.0,0.0,0.0,0.0,0.0,0.0,0.0,0.0,0.0,0.0,0.0,0.0,0.0,0.0,0.0,0.0,0.0,0.0,0.0,0.0,0.0,0.0,0.0,0.0,0.0,0.0,0.0,0.0,0.0,0.0,0.0,4.7486,4.928,5.0859,5.185,0.0,5.1887,5.1914,5.184,5.2584,5.2273,4.9767,0.0,0.0,0.0,0.0,0.0,0.0,0.0,0.0,0.0,0.0,0.0,0.0,0.0,0.0,0.0,0.0,0.0,0.0,0.0,0.0,0.0,0.0,0.0,0.0,0.0,0.0,0.0,0.0,0.0,0.0,0.0,0.0,0.0,0.0,0.0,0.0,0.0,0.0,0.0,0.0,0.0,0.0,0.0,0.0,0.0,0.0,0.0,0.0,0.0,0.0,0.0,0.0,0.0,4.3706,4.7439,5.1411,5.3962,5.4973,5.5233,5.5493,5.58,5.3413,5.1045,0.0,0.0,0.0,0.0,0.0,0.0,0.0,0.0,0.0,0.0,0.0,0.0,0.0,0.0,0.0,0.0,0.0,0.0,0.0,0.0,0.0,0.0,0.0,0.0,0.0,0.0,0.0,0.0,3.9292,4.0267,3.9921,0.0,0.0,0.0,0.0,0.0,0.0,0.0,0.0,0.0,0.0,4.9485,5.2206,5.3534,0.0,0.0,5.4333,5.4128,5.3566,5.3844,5.3066,5.0024,4.8638,0.0,0.0,0.0,0.0,0.0,0.0,0.0,0.0,0.0,0.0,0.0,0.0,0.0,0.0,0.0,0.0,0.0,0.0,0.0,0.0,0.0,0.0,0.0,0.0,0.0,0.0,0.0,0.0,0.0,0.0,0.0,0.0,0.0,0.0,0.0,0.0,0.0,0.0,0.0,0.0,0.0,0.0,0.0,0.0,0.0,0.0,0.0,0.0,0.0,0.0,0.0,0.0,4.4759,4.8223,5.2304,5.4791,5.5726,5.6097,5.6395,5.657,5.4723,5.2819,0.0,0.0,0.0,0.0,0.0,0.0,0.0,0.0,0.0,0.0,0.0,0.0,0.0,0.0,0.0,0.0,0.0,0.0,0.0,0.0,0.0,0.0,0.0,0.0,0.0,0.0,0.0,0.0,4.1833,4.2124,4.043,0.0,0.0,0.0,0.0,0.0,0.0,0.0,0.0,0.0,0.0,5.1557,5.4154,5.5147,5.5629,5.5764,5.5579,5.5168,5.4483,5.4275,5.3408,5.1066,0.0,0.0,0.0,0.0,0.0,0.0,0.0,0.0,0.0,0.0,0.0,0.0,0.0,0.0,0.0,0.0,0.0,0.0,0.0,0.0,0.0,0.0,0.0,0.0,0.0,0.0,0.0,2.6113,0.0,0.0,2.512,0.0,0.0,0.0,0.0,0.0,0.0,0.0,0.0,0.0,0.0,0.0,0.0,0.0,0.0,0.0,0.0,0.0,0.0,0.0,0.0,0.0,0.0,4.6666,4.911,5.3152,5.5908,5.7323,5.6692,5.6692,5.7425,5.6655,5.5047,5.2559,0.0,0.0,0.0,0.0,0.0,0.0,0.0,0.0,0.0,0.0,0.0,0.0,0.0,0.0,0.0,0.0,0.0,0.0,0.0,0.0,0.0,0.0,0.0,0.0,0.0,0.0,4.1064,4.273,4.3008,0.0,0.0,0.0,0.0,0.0,0.0,0.0,0.0,0.0,4.8022,5.1206,5.3633,5.4544,5.5184,5.575,5.5859,5.5121,5.4483,5.452,5.3871,5.3318,0.0,0.0,0.0,0.0,0.0,0.0,0.0,0.0,0.0,0.0,0.0,0.0,0.0,0.0,0.0,0.0,0.0,0.0,0.0,0.0,0.0,0.0,0.0,0.0,0.0,0.0,0.0,3.0984,3.2577,0.0,0.0,0.0,0.0,0.0,0.0,0.0,0.0,0.0,0.0,0.0,4.3779,4.3921,0.0,0.0,0.0,0.0,0.0,0.0,0.0,0.0,0.0,0.0,0.0,0.0,4.7754,5.0721,5.4727,5.7015,5.7509,5.7769,5.8019,5.8279,5.7509,5.5689,5.2679,0.0,0.0,0.0,0.0,0.0,0.0,0.0,0.0,0.0,0.0,0.0,0.0,0.0,0.0,0.0,0.0,0.0,0.0,0.0,0.0,0.0,0.0,0.0,0.0,0.0,4.2569,0.0,0.0,0.0,0.0,0.0,0.0,0.0,0.0,0.0,0.0,0.0,4.9926,5.2392,5.4062,5.5544,5.6936,5.732,5.7667,0.0,0.0,0.0,0.0,0.0,0.0,0.0,0.0,0.0,0.0,0.0,0.0,0.0,0.0,4.8928,4.592,4.5887,4.635,4.636,0.0,0.0,0.0,0.0,0.0,0.0,0.0,0.0,0.0,0.0,0.0,0.0,0.0,0.0,3.6056,0.0,3.7278,0.0,0.0,0.0,0.0,0.0,0.0,0.0,0.0,4.6424,4.8155,4.8852,4.8958,4.8707,0.0,4.7413,4.5256,0.0,0.0,0.0,0.0,0.0,0.0,0.0,0.0,4.9401,5.2325,5.5798,5.7722,5.7918,5.8438,5.8687,5.8687,5.7907,5.6496,5.4342,5.1936,4.9373,0.0,0.0,0.0,0.0,0.0,0.0,0.0,0.0,0.0,0.0,0.0,0.0,0.0,0.0,0.0,0.0,0.0,0.0,0.0,0.0,0.0,0.0,0.0,4.5534,0.0,0.0,0.0,0.0,0.0,0.0,0.0,0.0,0.0,4.7716,5.0509,5.3296,5.5438,5.663,5.7598,5.8402,0.0,0.0,0.0,0.0,0.0,0.0,0.0,5.7884,5.7074,5.7709,5.8111,5.7528,5.72,5.7025,5.707,0.0,0.0,5.1408,5.1092,5.1545,5.1597,5.2043,5.2611,5.3143,5.4103,5.4913,0.0,0.0,0.0,0.0,0.0,0.0,0.0,0.0,3.8854,3.9841,0.0,4.1487,0.0,0.0,0.0,0.0,0.0,4.4341,0.0,0.0,5.2763,5.4717,5.3869,5.3954,5.3982,5.3785,5.158,5.0925,5.1475,4.7961,0.0,0.0,0.0,0.0,0.0,0.0,5.1622,5.3944,5.6421,5.7982,5.8661,5.8687,5.8687,5.8687,5.7955,5.7509,5.7387,5.5131,5.3116,5.1491,4.837,0.0,0.0,0.0,0.0,0.0,0.0,0.0,0.0,0.0,0.0,0.0,0.0,0.0,0.0,0.0,0.0,0.0,0.0,0.0,0.0,4.7427,0.0,0.0,0.0,0.0,0.0,0.0,0.0,0.0,0.0,0.0,5.0785,5.333,5.58,5.7258,0.0,0.0,0.0,0.0,6.0792,6.0173,5.9863,5.9756,5.9841,5.9889,6.0242,6.1081,0.0,0.0,6.2689,6.1944,6.1321,6.1358,6.2039,6.1448,5.7417,5.6693,5.6741,5.6751,5.6893,5.6902,5.691,5.8216,5.9027,4.3129,0.0,0.0,0.0,0.0,3.9575,4.2012,4.6268,4.5728,4.6516,4.8172,4.7646,0.0,0.0,0.0,0.0,0.0,0.0,5.0189,5.225,5.4391,5.5538,5.5919,5.5939,5.6276,5.6817,5.5608,5.5993,5.7707,5.6206,5.2849,4.7986,0.0,0.0,0.0,0.0,5.3218,5.5542,5.7438,5.8496,5.8687,5.8687,5.8687,5.8687,5.8475,5.8093,5.7499,5.6793,5.5391,5.319,5.1676,0.0,0.0,0.0,0.0,0.0,0.0,0.0,0.0,0.0,0.0,0.0,0.0,0.0,0.0,0.0,0.0,0.0,0.0,0.0,4.8279,5.0386,5.0681,0.0,0.0,0.0,0.0,0.0,0.0,0.0,0.0,0.0,5.8362,5.8689,5.9196,0.0,0.0,6.0947,6.0723,6.156,6.2343,6.2748,6.278,0.0,6.3508,6.3142,6.2886,6.3169,6.391,6.4641,6.5201,6.5094,6.4955,6.5042,6.5272,6.5042,6.4056,6.2752,6.2003,6.2063,6.2543,6.2928,6.2973,6.3798,6.4435,5.1304,4.7465,4.4602,4.4403,4.5913,4.5542,4.7579,5.1052,5.0632,5.1098,5.2137,5.1981,5.0694,4.8642,4.8194,0.0,0.0,0.0,5.357,5.5701,5.6299,5.701,5.776,5.8071,5.8549,5.911,5.8657,5.9388,6.1184,6.0481,5.8111,5.4158,0.0,0.0,5.3017,5.4244,5.593,5.7995,5.9211,5.9831,5.9824,5.9737,5.969,5.969,5.9701,5.9478,5.8995,5.8958,5.813,5.631,5.5122,5.2967,0.0,0.0,0.0,0.0,0.0,0.0,0.0,0.0,0.0,0.0,0.0,4.1141,4.2633,0.0,0.0,0.0,4.7978,5.0015,5.2455,5.3645,0.0,0.0,0.0,0.0,0.0,0.0,0.0,5.6185,5.8072,6.0206,6.2747,6.2777,6.2707,6.3136,6.314,6.2997,6.2673,0.0,6.4578,6.5168,6.5223,6.5493,6.6281,6.6312,6.6514,6.7204,6.7741,6.8182,6.8661,6.8773,6.8794,6.8884,6.8832,6.8779,6.8853,6.7946,6.6719,6.5581,6.5936,6.6387,6.6087,6.7213,6.8012,5.8414,5.6816,5.1005,4.958,5.1134,5.1263,5.2317,5.3911,5.3963,5.4002,5.4049,5.4815,5.4267,5.2865,5.3068,0.0,5.4776,5.5689,5.7025,5.8622,5.8622,5.896,5.9599,6.0313,6.0754,6.0958,6.0954,6.1498,6.2537,6.1902,6.156,6.1435,5.9576,5.8183,5.7278,5.7997,5.9153,6.0735,6.12,6.1501,6.1582,6.131,6.1187,6.1187,6.1187,6.1176,6.1187,6.1176,6.0805,5.9913,5.8465,5.658,5.4054,0.0,0.0,0.0,0.0,0.0,0.0,0.0,0.0,0.0,0.0,0.0,0.0,0.0,0.0,5.0486,5.3758,0.0,5.6938,5.7153,0.0,0.0,0.0,5.6382,5.6576,5.7311,5.8429,6.0068,0.0,0.0,6.4922,6.5944,6.6362,6.6106,6.5868,6.5532,6.4925,6.6244,6.7293,6.7505,6.7477,6.7759,6.857,6.9281,7.0192,7.1596,7.2385,7.2128,7.2118,7.2166,7.2299,7.2128,7.2167,7.1947,7.1985,7.1711,7.1055,6.7864,6.7898,6.8188,6.7652,6.9032,6.9869,6.0045,5.9912,5.8196,5.7188,5.6673,5.6694,5.7,5.74,5.6837,5.6624,5.6597,5.6348,5.6098,5.5968,5.6717,5.7544,5.8468,5.9341,6.0345,6.1389,6.1427,6.1553,6.1826,6.1919,6.2391,6.3057,6.2395,6.2825,6.4203,6.3479,6.3027,6.2942,6.2568,6.1539,5.9888,6.0001,6.0464,6.1161,6.1303,6.1342,6.1268,6.1219,6.1187,6.1187,6.1187,6.1187,6.1187,6.1187,6.0815,5.995,5.9542,5.8205,5.579,5.2234,0.0,0.0,0.0,0.0,0.0,0.0,0.0,0.0,0.0,4.7409,4.9233,0.0,5.467,0.0,5.8324,6.0246,5.9958,6.1076,0.0,0.0,6.0775,6.109,6.1797,6.2585,6.3512,6.4588,6.5992,6.7423,6.8756,6.961,7.0287,7.0716,6.9105,6.8007,6.8509,6.9446,7.0089,7.0223,7.0678,7.1179,7.1378,7.1578,7.1948,7.2309,7.2432,7.2385,7.2385,7.2385,7.2385,7.2385,7.2355,7.2316,7.2343,7.2306,7.2106,7.1272,7.1214,7.1229,7.0866,7.1266,7.1486,6.1597,6.1567,6.1841,6.1582,6.0901,6.0205,5.9891,5.9932,5.956,5.9423,5.9395,5.9074,5.9101,5.9331,5.9938,6.0492,6.102,6.1595,6.2137,6.2625,6.2625,6.2603,6.2619,6.2903,6.3375,6.3923,6.3758,6.4375,6.5707,6.5296,6.521,6.5508,6.5599,6.5005,6.3833,6.262,6.2259,6.279,6.3166,6.3143,6.2694,6.3031,6.3027,6.2539,6.2113,6.189,6.1831,6.1432,6.0975,6.0545,6.0173,5.9423,5.8097,5.4988,5.2222,0.0,0.0,0.0,0.0,0.0,0.0,0.0,0.0,0.0,0.0,0.0,5.8774,5.966,6.1842,6.3083,6.2761,6.3608,6.4191,6.4208,6.4562,6.5166,6.6045,6.6882,6.7673,6.8548,6.95,7.0393,7.1237,7.1741,7.235,7.3141,7.2344,7.1671,7.1712,7.2111,7.2624,7.3468,7.3687,7.3944,7.4248,7.4286,7.4448,7.4781,7.4905,7.4781,7.44,7.4324,7.421,7.3868,7.3716,7.3649,7.3649,7.3573,7.3637,7.3899,7.4083,7.3636,7.2329,7.2939,7.3586,6.2928,6.2509,6.3401,6.3814,6.3819,6.2477,6.1878,6.1848,6.1935,6.1929,6.1864,6.193,6.2084,6.2268,6.2596,6.2747,6.2818,6.3092,6.3266,6.3381,6.3381,6.3352,6.3305,6.4051,6.4442,6.452,6.5229,6.6063,6.7036,6.7043,6.7352,6.7944,6.799,6.7873,6.7559,6.5305,6.4369,6.4849,6.5643,6.5634,6.486,6.5454,6.533,6.4389,6.3453,6.2936,6.2785,6.2007,6.1539,6.1512,6.0851,6.0465,6.0437,5.7604,5.5256,0.0,5.2398,0.0,0.0,0.0,0.0,0.0,0.0,0.0,0.0,6.0805,6.2178,6.4028,6.4909,6.5548,6.5855,6.594,6.6425,6.7433,6.8106,6.8818,6.9723,7.0381,7.0997,7.1676,7.1981,7.2362,7.302,7.3287,7.3818,7.4663,7.5245,7.5315,7.4807,7.4542,7.5054,7.6667,7.6303,7.6,7.6544,7.6744,7.7011,7.7737,7.7728,7.7755,7.6858,7.6782,7.66,7.598,7.5663,7.5551,7.5542,7.5428,7.5539,7.5956,7.6212,7.5614,7.3756,7.4497,7.5453,6.3598,6.3616,6.3894,6.4083,6.4131,6.4037,6.3905,6.3623,6.3045,6.2532,6.2167,6.2294,6.2499,6.2764,6.352,6.3879,6.3924,6.4596,6.5299,6.5979,6.5979,6.6315,6.6865,6.7056,6.714,6.7194,6.73,6.7523,6.7684,6.7829,6.786,6.7864,6.7889,6.7801,6.7519,0.0,0.0,0.0,6.639,6.6682,6.6512,6.5934,6.5526,6.5336,6.4437,0.0,6.3903,6.3733,6.332,6.2703,6.2553,0.0,0.0,0.0,0.0,0.0,0.0,0.0,0.0,0.0,0.0,0.0,6.1598,6.1789,6.1809,6.3874,6.5959,6.7697,6.8726,6.9565,7.0353,7.1087,7.1859,7.2648,7.2304,7.2351,7.3132,7.2826,7.2588,7.2733,7.3908,7.4795,7.5016,7.6124,7.7002,7.7096,7.7411,7.7746,7.8139,7.751,7.7375,7.7708,7.764,7.7564,7.7755,7.7784,7.787,7.7975,7.8022,7.7984,7.7793,7.7755,7.7755,7.7449,7.749,7.7424,7.7424,7.7388,7.7218,7.7417,7.7368,7.7085,7.6455,7.6661,7.6958,6.5213,6.5287,6.5469,6.561,0.0,6.5946,6.601,6.5851,6.4548,6.4107,6.4331,6.4459,6.4793,6.536,6.5826,6.6032,6.6032,6.6453,6.6865,6.7286,6.737,6.7623,6.8005,6.8051,6.8005,6.8013,6.8434,6.8855,6.9237,6.9774,7.0195,7.0491,7.0493,7.0461,7.0301,7.0342,6.9205,6.6868,6.7592,6.7838,6.7537,6.7449,6.7132,6.6606,6.5728,0.0,0.0,0.0,0.0,0.0,0.0,0.0,0.0,6.26,0.0,6.1675,6.1641,6.1906,6.2461,6.4051,6.5639,6.6965,6.785,6.758,6.5825,6.8088,6.9946,7.0828,7.1375,7.1829,7.2329,7.3093,7.3743,7.4125,7.4201,7.4554,7.5233,7.508,7.5004,7.5462,7.6188,7.6723,7.6723,7.7411,7.7984,7.8022,7.8404,7.8796,7.9178,7.8949,7.8748,7.9169,7.9245,7.9245,7.9245,7.9245,7.9207,7.9245,7.9245,7.9054,7.871,7.8634,7.8519,7.8137,7.8022,7.8022,7.7975,7.7902,7.7913,7.8323,7.8321,7.8364,7.8597,7.8394,7.8028,6.6763,6.6831,6.7088,6.7222,6.7315,6.746,6.7575,6.7622,0.0,0.0,0.0,6.6763,6.7192,6.7905,6.7905,6.7913,6.7928,6.7928,6.8089,6.8411,6.8518,6.8701,6.9015,6.9037,6.9037,6.9054,6.9734,7.0417,7.1084,7.185,7.2533,7.3131,7.3216,7.3223,7.3223,7.3223,7.1797,6.9085,6.9425,6.9494,6.8993,6.9411,6.9229,6.8316,6.7448,6.6888,6.6727,6.602,6.5603,6.5666,6.578,6.5939,6.6065,6.6225,6.6006,6.5433,6.6007,6.6759,6.7528,6.8929,7.0399,7.1841,7.2766,7.2253,6.9955,7.1761,7.3055,7.3208,7.3208,7.3323,7.3628,7.424,7.4766,7.508,7.5615,7.6274,7.6991,7.6991,7.7105,7.787,7.8022,7.8213,7.8213,7.8423,7.847,7.8585,7.9129,7.9617,7.9675,7.9636,7.9713,8.021,8.0277,8.043,8.0506,8.0621,8.0697,8.0659,8.0812,8.0697,8.0171,7.9942,7.9675,7.9283,7.8901,7.9016,7.893,7.9018,7.8962,7.9639,7.9665,7.9786,8.0385,8.0058,7.9412,6.7155,6.7146,6.7498,6.7613,6.763,6.7647,6.7715,6.7752,6.7515,6.7485,6.7624,6.7659,6.7782,6.7905,6.7905,6.7944,6.8089,6.8089,6.8893,7.0294,7.0309,7.1084,7.2464,7.251,7.251,7.2502,7.2587,7.2702,7.2855,7.3039,7.3161,7.3223,7.3269,7.3307,7.3268,7.3307,7.3098,7.2712,7.2594,7.245,7.2316,7.1621,7.1188,7.1002,7.0123,6.9652,6.9617,6.9456,6.9427,6.9435,7.0073,7.0536,7.0662,7.1234,7.1688,7.1689,7.182,7.1943,7.2037,7.2312,7.255,7.2834,7.3666,7.3713,7.2597,7.2788,7.3284,7.3934,7.4087,7.466,7.5921,7.6265,7.6914,7.8184,7.7984,7.7984,7.8757,7.829,7.7908,7.8108,7.8681,7.9101,7.9158,7.9709,8.0137,8.0213,8.0405,8.0684,8.1126,8.0812,8.043,8.0468,8.0506,8.0506,8.0735,8.1194,8.1547,8.1614,8.2158,8.2426,8.2235,8.2158,8.2082,8.2197,8.1967,8.2044,8.2073,8.2234,8.1995,8.2051,8.1944,8.2063,8.2177,8.2005,8.1555,7.0203,7.0174,7.034,7.0419,7.0463,7.0552,7.0595,7.0628,7.0637,6.9835,6.8613,6.8577,6.9152,6.9994,6.9994,7.0348,7.0854,7.0854,7.1291,7.2019,7.2095,7.2501,7.3192,7.3352,7.3307,7.3269,7.3775,7.3967,7.4014,7.4504,7.4749,7.4719,7.4749,7.4771,7.4771,7.4771,7.4764,7.4787,7.373,7.3129,7.3089,7.2614,7.2355,7.2355,7.193,7.1722,7.1722,7.2142,7.2362,7.2371,7.2706,7.2952,7.2995,7.2957,7.2945,7.2979,7.3029,7.3284,7.3743,7.4175,7.4659,7.5127,7.5531,7.5774,7.5778,7.5357,7.5255,7.5548,7.595,7.657,7.7335,7.784,7.8452,7.9178,7.9283,7.9513,7.9818,7.9627,7.9378,7.9424,7.9748,8.0042,8.0087,8.0476,8.0923,8.1307,8.1737,8.2208,8.2555,8.2278,8.1974,8.1881,8.1929,8.1938,8.1862,8.2206,8.2512,8.2474,8.2732,8.2999,8.2999,8.3037,8.3037,8.2999,8.3037,8.2999,8.3037,8.2961,8.297,8.297,8.2902,8.2862,8.2862,8.2862,8.2575,7.2742,7.2704,7.277,7.2776,7.2846,7.2953,7.2979,7.2987,7.3004,7.1904,7.0222,7.0069,7.0836,7.2001,7.2102,7.2502,7.3147,7.3231,7.3315,7.353,7.359,7.3697,7.3889,7.4024,7.4017,7.3973,7.4678,7.494,7.5018,7.5639,7.5976,7.5976,7.5976,7.5976,7.5976,7.5976,7.5985,7.5841,7.4536,7.3791,7.3744,7.3636,7.356,7.3552,7.356,7.356,7.359,7.4163,7.4507,7.4507,7.4851,7.5157,7.5348,7.5119,7.4974,7.5009,7.5051,7.5162,7.5493,7.6109,7.6725,7.7234,7.7237,7.7463,7.8007,7.7803,7.7377,7.7159,7.7561,7.8029,7.8362,7.8906,7.9394,7.9624,8.0197,8.0474,8.058,8.0514,8.0656,8.0853,8.09,8.0994,8.1265,8.1393,8.1709,8.2369,8.2945,8.3367,8.3541,8.3609,8.3538,8.36,8.3437,8.3111,8.3084,8.3295,8.3409,8.3343,8.3573,8.3725,8.3773,8.3668,8.3678,8.3802,8.3725,8.3811,8.3678,8.3697,8.3725,8.3792,8.3763,8.3668,8.3706,8.3706,8.3352,7.2803,7.2811,7.2995,7.2962,7.3047,7.3055,7.3064,7.3072,7.3071,7.2997,7.2729,7.2729,7.2775,7.2982,7.3046,7.32,7.3383,7.3307,7.3766,7.4517,7.457,7.5,7.5615,7.57,7.5738,7.5692,7.5777,7.5777,7.5769,7.593,7.5976,7.5976,7.5976,7.6015,7.6015,7.6015,7.6015,7.6,7.5772,7.5579,7.5386,7.5332,7.528,7.528,7.5242,7.528,7.5212,7.5356,7.5395,7.5509,7.6885,7.7984,7.8796,8.0124,8.0925,8.0855,8.0838,8.0447,7.9045,7.8944,7.8644,7.8245,7.8185,7.8215,7.8368,7.901,7.8985,7.8352,7.8117,7.8573,7.9233,7.9502,7.9953,8.0673,8.0826,8.0767,8.0864,8.0688,8.0947,8.1849,8.1872,8.2084,8.2727,8.3035,8.3222,8.3346,8.3615,8.3935,8.4412,8.4518,8.4739,8.4992,8.4349,8.3468,8.347,8.3914,8.4231,8.4356,8.493,8.516,8.5169,8.5302,8.5549,8.5503,8.554,8.5531,8.5694,8.5493,8.5456,8.5523,8.5446,8.5282,8.5272,8.5282,8.4852,7.4387,7.4387,7.446,7.4503,7.4546,7.4546,7.4541,7.4599,7.464,7.4648,7.4656,7.4742,7.4458,7.4006,7.3991,7.432,7.4887,7.4887,7.5101,7.5476,7.5476,7.5668,7.5976,7.5976,7.5976,7.5976,7.5976,7.5976,7.5976,7.5976,7.5976,7.5976,7.5976,7.6245,7.6707,7.6784,7.7022,7.7476,7.7439,7.7361,7.7136,7.6172,7.5863,7.6322,7.636,7.6399,7.6552,7.7777,7.8658,7.8696,7.9769,8.0343,8.019,8.0334,8.0237,7.9812,7.9791,7.9535,7.8897,7.8834,7.8919,7.9137,7.9135,7.9303,7.9794,8.0169,8.0374,8.0481,8.0038,8.0068,8.0878,8.1031,8.1376,8.2096,8.2288,8.2258,8.2258,8.2223,8.2432,8.2864,8.2885,8.2971,8.344,8.3981,8.4275,8.4429,8.4698,8.5172,8.5446,8.5484,8.56,8.5792,8.5331,8.4972,8.4854,8.5076,8.5317,8.5348,8.5531,8.576,8.5914,8.6315,8.6697,8.7205,8.7243,8.7676,8.8673,8.7734,8.7265,8.7331,8.7281,8.704,8.704,8.704,8.6619,7.5509,7.5518,7.5497,7.554,7.5599,7.5625,7.5636,7.5692,7.5716,7.5763,7.5771,7.5887,7.558,7.5049,7.5011,7.5386,7.593,7.5976,7.5976,7.5976,7.5976,7.5976,7.5976,7.5976,7.5976,7.5976,7.5976,7.5976,7.6015,7.6284,7.6361,7.6361,7.6592,7.7015,7.7561,7.7638,7.7907,7.84,7.8462,7.8546,7.8538,7.7254,7.6746,7.7281,7.7349,7.7349,7.7388,7.9152,8.0102,8.0102,8.0916,8.1223,8.0831,8.0409,8.0034,7.9689,7.9533,7.9452,7.9515,7.95,7.9661,8.0077,8.0091,8.0281,8.0827,8.1094,8.1516,8.1988,8.1832,8.1875,8.2374,8.2489,8.2796,8.3325,8.3363,8.3372,8.3342,8.3355,8.3449,8.3794,8.3862,8.3964,8.43,8.4816,8.5201,8.5277,8.5893,8.6478,8.6517,8.6662,8.6855,8.6824,8.6824,8.6735,8.6614,8.6682,8.6729,8.724,8.7472,8.7472,8.7012,8.7558,8.7892,8.8561,8.8698,8.8882,8.9382,8.8979,8.847,8.8685,8.853,8.811,8.788,8.8033,8.8071,7.5509,7.5489,7.5557,7.5599,7.5599,7.5652,7.5692,7.5716,7.5818,7.5887,7.5895,7.597,7.5969,7.5892,7.5846,7.593,7.5976,7.5976,7.5976,7.5976,7.5976,7.5976,7.5976,7.5976,7.6015,7.6015,7.6092,7.6092,7.6092,7.683,7.7253,7.7292,7.7907,7.8369,7.8446,7.8446,7.8484,7.8677,7.87,7.8931,7.9538,7.8854,7.8354,7.8333,7.827,7.824,7.8278,7.8385,7.8538,7.85,7.9514,8.0119,8.0801,8.1444,8.2028,8.265,8.2259,8.1917,8.181,8.1636,8.1469,8.113,8.0906,8.092,8.1338,8.1877,8.23,8.2354,8.303,8.3415,8.3569,8.3553,8.3599,8.3723,8.3692,8.3692,8.3654,8.3772,8.3973,8.4591,8.4826,8.5087,8.5816,8.6017,8.6132,8.6286,8.6863,8.7363,8.744,8.7979,8.8333,8.8372,8.841,8.8556,8.8577,8.8102,8.8818,8.9222,8.9146,9.0067,8.9903,8.9737,8.9802,8.9802,8.9866,8.9897,8.982,8.9573,8.913,8.8991,8.8769,8.8492,8.8721,8.8301,8.8377,7.5641,7.5641,7.5636,7.5715,7.5801,7.5833,7.5879,7.5894,7.5955,7.597,7.5978,7.6,7.5976,7.5976,7.5976,7.5976,7.5976,7.5976,7.5976,7.5976,7.5976,7.5976,7.6053,7.6553,7.6515,7.613,7.6553,7.6823,7.6899,7.7676,7.8061,7.8099,7.833,7.8754,7.9246,7.9323,7.9592,8.0092,8.0169,8.0323,8.0554,8.0323,8.0138,8.0045,7.9545,7.9268,7.9276,8.0275,8.0852,8.0852,8.1667,8.2004,8.1774,8.1535,8.1535,8.1804,8.1644,8.1507,8.1499,8.1475,8.156,8.1846,8.1838,8.2061,8.2585,8.2986,8.337,8.3862,8.417,8.4593,8.4978,8.4747,8.4632,8.5093,8.5209,8.5132,8.5209,8.5184,8.533,8.5654,8.606,8.6599,8.6846,8.7401,8.7748,8.7786,8.8025,8.8171,8.8256,8.8526,8.8795,8.8718,8.8718,8.9103,9.0287,8.9192,8.8897,8.932,8.9619,8.9918,8.9974,9.092,9.115,9.1084,9.1106,9.1165,9.1126,9.0759,9.0263,8.9784,8.9485,8.9332,8.9704,8.937,8.9447,7.5692,7.57,7.5763,7.5841,7.5895,7.5918,7.5963,7.5976,7.5976,7.5976,7.5976,7.5976,7.5976,7.5976,7.5976,7.6169,7.6361,7.613,7.5976,7.6015,7.6284,7.6399,7.6553,7.7292,7.7369,7.6938,7.7369,7.7676,7.7792,7.8523,7.8907,7.8946,7.9177,7.9631,8.0131,8.0208,8.0554,8.1016,8.1093,8.1093,8.1093,8.1093,8.1093,8.1016,8.0516,8.0246,8.0239,8.1323,8.19,8.1977,8.2477,8.2524,8.19,8.14,8.1093,8.1093,8.1093,8.1093,8.1131,8.1362,8.1747,8.2247,8.2593,8.3024,8.3563,8.387,8.4324,8.4777,8.5209,8.5555,8.5816,8.5593,8.5517,8.5978,8.6094,8.6094,8.6094,8.6055,8.6047,8.617,8.6786,8.7286,8.7517,8.8179,8.8526,8.8679,8.8902,8.9094,8.9094,8.9363,8.9517,8.9526,8.9594,9.0056,9.071,9.0154,9.0423,9.0846,9.0876,9.0799,9.0687,9.1747,9.2229,9.2239,9.2277,9.2408,9.2268,9.1907,9.1368,9.0746,9.0402,9.0135,9.0315,9.0468,9.0315,7.5739,7.5801,7.5856,7.5933,7.591,7.5978,7.5976,7.5976,7.5976,7.6053,7.6169,7.6092,7.6169,7.613,7.6322,7.6561,7.7099,7.6592,7.6284,7.6322,7.6984,7.7292,7.7369,7.8138,7.8523,7.8407,7.8484,7.8523,7.8561,7.9361,7.9823,7.9931,8.0554,8.0823,8.1054,8.1054,8.1131,8.1246,8.1285,8.1285,8.1131,8.1323,8.1362,8.1285,8.1246,8.1208,8.117,8.1246,8.1362,8.1362,8.1323,8.117,8.1246,8.1131,8.1131,8.1208,8.117,8.1131,8.1285,8.1939,8.2324,8.267,8.3178,8.367,8.3986,8.4516,8.4939,8.5132,8.5593,8.6094,8.6094,8.6132,8.6094,8.6094,8.6094,8.6094,8.6094,8.6132,8.6132,8.6363,8.7094,8.744,8.7632,8.8449,8.9026,8.918,8.9517,8.9932,8.9979,9.0441,9.1018,9.1056,9.0787,9.0825,9.1047,9.124,9.2124,9.2817,9.2722,9.2597,9.193,9.2354,9.2296,9.2257,9.1747,9.1837,9.1671,9.133,9.1062,9.0621,9.0621,9.061,9.0551,9.0551,9.0561,7.6794,7.6717,7.6194,7.5978,7.5978,7.6007,7.5976,7.5976,7.5976,7.6322,7.683,7.6899,7.7176,7.7638,7.7715,7.7869,7.8099,7.783,7.7715,7.7784,7.7984,7.8138,7.8292,7.8977,7.94,7.94,7.94,7.94,7.9554,8.0285,8.0669,8.0785,8.0939,8.1093,8.117,8.1631,8.1939,8.1977,8.2516,8.2832,8.2832,8.2785,8.2824,8.2824,8.2832,8.2832,8.2832,8.2247,8.2247,8.2755,8.2247,8.1708,8.1246,8.1093,8.1362,8.1862,8.1939,8.2247,8.2755,8.3062,8.3439,8.3978,8.4362,8.4747,8.5247,8.5517,8.5701,8.5709,8.5978,8.6094,8.617,8.6671,8.6748,8.617,8.6094,8.617,8.6247,8.6632,8.694,8.7171,8.8248,8.9009,8.9248,8.9825,9.0248,9.0287,9.0594,9.074,9.0816,9.0941,9.1171,9.1201,9.1201,9.1192,9.1145,9.1109,9.1544,9.2179,9.2448,9.265,9.2306,9.22,9.2218,9.1995,9.1482,9.1191,9.1024,9.0888,9.0697,9.0621,9.0621,9.0551,9.0508,9.0508,9.0551,7.7138,7.6746,7.6207,7.5976,7.6053,7.6322,7.6476,7.6553,7.683,7.7246,7.7676,7.7753,7.8023,7.8407,7.8484,7.8677,7.8938,7.8977,7.9169,7.9331,7.9061,7.8977,7.9092,7.9862,8.0285,8.0277,8.0285,8.0277,8.0323,8.0823,8.1093,8.1093,8.14,8.1554,8.1631,8.2331,8.2785,8.2862,8.3293,8.3601,8.3601,8.3601,8.3601,8.3601,8.3601,8.3755,8.3978,8.3555,8.3516,8.3901,8.3555,8.3016,8.2554,8.2285,8.2255,8.2639,8.2793,8.3016,8.3563,8.3862,8.4286,8.4824,8.5162,8.5517,8.5978,8.6094,8.617,8.6517,8.6594,8.6709,8.7094,8.7517,8.7594,8.7132,8.7132,8.6901,8.6786,8.7055,8.7325,8.7671,8.8778,8.9701,9.0086,9.0633,9.1163,9.1201,9.1201,9.1201,9.1201,9.1163,9.1201,9.1201,9.1201,9.1145,9.1109,9.1055,9.0952,9.1231,9.1481,9.1596,9.1528,9.1604,9.1658,9.1406,9.0979,9.0892,9.0774,9.0735,9.0621,9.0621,9.0621,9.0572,9.054,9.0551,9.0572,7.6907,7.6169,7.6092,7.613,7.6245,7.7022,7.7361,7.7484,7.8061,7.8407,7.8561,7.86,7.8677,7.8677,7.8946,7.9285,7.9746,7.9892,8.0208,8.0516,8.0246,7.9862,7.9977,8.0631,8.09,8.0977,8.0977,8.1016,8.0977,8.1208,8.117,8.1323,8.2016,8.2362,8.2554,8.3216,8.3678,8.367,8.3793,8.3909,8.3909,8.387,8.387,8.3909,8.3947,8.4247,8.4824,8.4978,8.497,8.4893,8.47,8.4555,8.4555,8.4016,8.3447,8.364,8.3678,8.3755,8.3947,8.4555,8.497,8.5124,8.5624,8.6094,8.6094,8.6132,8.6401,8.7132,8.7286,8.7632,8.8295,8.8709,8.8756,8.8833,8.841,8.7979,8.7555,8.7517,8.7671,8.794,8.894,9.0009,9.0124,9.0778,9.1086,9.1201,9.1201,9.1201,9.1201,9.1201,9.1201,9.1231,9.1252,9.1428,9.1498,9.1414,9.1347,9.1318,9.1279,9.1037,9.1046,9.112,9.1166,9.0864,9.0718,9.0669,9.0621,9.0621,9.0621,9.0621,9.0621,9.0621,9.061,9.0561,9.0561,7.8061,7.7792,7.7215,7.6938,7.7053,7.783,7.8176,7.8215,7.8407,7.8938,7.9323,7.9477,7.9785,8.0362,8.0362,8.0554,8.0669,8.0708,8.0823,8.1016,8.09,8.0746,8.0785,8.0977,8.1093,8.1131,8.117,8.1093,8.117,8.1747,8.1977,8.2016,8.2824,8.3255,8.3409,8.4132,8.4516,8.467,8.517,8.5401,8.5363,8.5363,8.544,8.544,8.5401,8.5478,8.5863,8.6401,8.6094,8.5008,8.4893,8.4593,8.4209,8.387,8.3986,8.4478,8.4555,8.4824,8.5324,8.5593,8.5739,8.5786,8.6008,8.6094,8.6094,8.6094,8.6555,8.7171,8.7401,8.7825,8.8641,8.9248,8.9787,9.0171,8.9017,8.8064,8.8295,8.8372,8.8556,8.9239,9.0163,9.0663,9.0855,9.097,9.1201,9.1201,9.1201,9.1201,9.1201,9.1183,9.1175,9.1351,9.1469,9.1768,9.1894,9.1806,9.1737,9.162,9.135,9.0781,9.077,9.0798,9.0777,9.0631,9.0669,9.0631,9.0621,9.0621,9.0621,9.0621,9.0621,9.0621,9.054,9.0519,9.053,7.8638,7.7984,7.7869,7.7792,7.7907,7.8669,7.9061,7.9138,7.9446,7.9823,8.0285,8.0362,8.0631,8.1054,8.1093,8.1093,8.1093,8.1093,8.1093,8.117,8.1439,8.14,8.117,8.1093,8.1246,8.1593,8.1593,8.1823,8.217,8.2631,8.2824,8.3016,8.3708,8.414,8.4209,8.4978,8.5393,8.547,8.5893,8.6094,8.6094,8.6094,8.6094,8.6094,8.6094,8.6094,8.617,8.6594,8.6632,8.6401,8.617,8.5709,8.5247,8.4832,8.4901,8.5393,8.5393,8.5624,8.5978,8.6094,8.6286,8.6555,8.6632,8.6863,8.7132,8.7209,8.7594,8.8902,8.8671,8.9094,8.9979,9.0441,9.0663,9.0825,8.9517,8.8671,8.9171,8.921,8.9402,8.997,9.0624,9.1201,9.1201,9.1201,9.1201,9.1201,9.1201,9.1201,9.1201,9.1175,9.136,9.1681,9.1922,9.221,9.2535,9.2569,9.2164,9.2008,9.1785,9.1128,9.0926,9.0888,9.0975,9.0975,9.0784,9.0697,9.085,9.0812,9.0621,9.0621,9.0621,9.0583,9.054,9.0519,9.0519,7.8938,7.763,7.833,7.8638,7.8754,7.9554,7.9939,8.0092,8.0631,8.0977,8.1016,8.1054,8.1016,8.1093,8.1093,8.1093,8.1093,8.1285,8.1439,8.1708,8.2054,8.2131,8.167,8.167,8.1939,8.2362,8.2439,8.2793,8.3255,8.3563,8.3717,8.3939,8.4593,8.497,8.5124,8.5701,8.6055,8.6017,8.6017,8.6094,8.6094,8.6094,8.6094,8.6094,8.6094,8.6094,8.6094,8.6247,8.6671,8.8295,8.7671,8.7094,8.7017,8.6517,8.6209,8.6209,8.6247,8.6286,8.6324,8.6517,8.6786,8.7401,8.7632,8.794,8.8517,8.8679,8.9248,9.0594,9.0355,9.047,9.1441,9.1518,9.1163,9.1095,9.0355,9.0086,9.0009,8.997,8.9932,9.0086,9.0816,9.124,9.1364,9.1402,9.1518,9.2133,9.2009,9.203,9.2012,9.2005,9.2142,9.2325,9.2526,9.2725,9.3047,9.3329,9.278,9.2355,9.2268,9.1892,9.1548,9.151,9.1548,9.1586,9.1663,9.1586,9.1472,9.1281,9.0899,9.0621,9.0621,9.0621,9.0621,9.0561,9.0561,7.9585,7.9285,7.9438,7.9515,7.9669,8.0439,8.0823,8.0823,8.0977,8.1093,8.1093,8.1093,8.1093,8.1093,8.1131,8.1093,8.1285,8.1785,8.2362,8.3062,8.3178,8.3255,8.3054,8.3024,8.3139,8.3332,8.3332,8.3447,8.3755,8.4362,8.4632,8.4747,8.5324,8.5816,8.5863,8.594,8.6094,8.6094,8.6094,8.6094,8.6094,8.6094,8.6094,8.6094,8.6094,8.6094,8.6094,8.6094,8.6286,8.6517,8.6624,8.6931,8.7132,8.6632,8.6517,8.7017,8.7132,8.7171,8.7248,8.7786,8.8218,8.8487,8.8979,8.9432,8.9586,8.9624,9.0124,9.0825,9.0432,9.0547,9.1325,9.1364,9.1201,9.1124,9.1047,9.0941,9.0816,9.0316,9.0278,9.0855,9.1556,9.221,9.221,9.2633,9.2826,9.3095,9.3077,9.3097,9.2966,9.2804,9.2901,9.3005,9.3307,9.3552,9.3844,9.3993,9.3474,9.306,9.2886,9.2809,9.2465,9.2542,9.2771,9.2771,9.2695,9.2542,9.2198,9.1586,9.1166,9.0899,9.0621,9.0621,9.0621,9.0621,9.0621,8.0162,7.9862,8.0246,8.04,8.0477,8.09,8.1093,8.1093,8.1093,8.1093,8.1093,8.1093,8.1093,8.1131,8.1477,8.167,8.1862,8.2516,8.3139,8.3601,8.3947,8.4209,8.4362,8.4516,8.4632,8.4286,8.4209,8.4362,8.4824,8.517,8.547,8.547,8.5893,8.6017,8.6094,8.6094,8.6094,8.6094,8.6094,8.6094,8.6094,8.6094,8.6094,8.6094,8.6094,8.6094,8.6094,8.6094,8.6522,8.6996,8.7218,8.7205,8.7316,8.6978,8.7209,8.7863,8.8402,8.8556,8.8786,8.9325,8.9863,8.9825,9.0287,9.0441,9.0509,9.0509,9.0932,9.1364,9.1124,9.074,9.1124,9.1201,9.1201,9.1278,9.1595,9.1787,9.1672,9.1056,9.0624,9.1171,9.1518,9.2018,9.2479,9.3192,9.3471,9.3423,9.3427,9.3437,9.3323,9.3217,9.3483,9.3698,9.4084,9.4403,9.4676,9.4616,9.4168,9.3879,9.3764,9.3726,9.3573,9.3841,9.4146,9.3803,9.3306,9.3191,9.2809,9.216,9.1472,9.1319,9.109,9.0784,9.0621,9.0621,9.0621,8.0669,8.0046,8.0785,8.1093,8.1093,8.1093,8.1093,8.1093,8.1093,8.1093,8.1131,8.1208,8.14,8.1477,8.217,8.2516,8.2901,8.3362,8.3947,8.4294,8.4824,8.5047,8.5201,8.5517,8.5593,8.5093,8.5055,8.544,8.5786,8.6094,8.594,8.6047,8.6055,8.6094,8.6094,8.6094,8.6094,8.6094,8.6094,8.6094,8.6094,8.6094,8.6094,8.6094,8.6363,8.6555,8.6748,8.697,8.7406,8.8626,8.8847,8.8469,8.8021,8.7962,8.8355,8.9248,8.9825,8.9893,9.0047,9.0586,9.1009,9.1201,9.1364,9.1402,9.1402,9.1441,9.171,9.1825,9.1672,9.1086,9.1201,9.1201,9.1287,9.1518,9.2133,9.2479,9.2518,9.1979,9.1748,9.1509,9.1982,9.2502,9.2878,9.3407,9.3617,9.381,9.385,9.3861,9.3764,9.382,9.4206,9.439,9.4747,9.4878,9.5151,9.5178,9.472,9.4605,9.449,9.4529,9.4529,9.472,9.4758,9.4146,9.3764,9.3524,9.3,9.2083,9.1625,9.1625,9.1281,9.0746,9.0621,9.0621,9.0621,8.1016,8.09,8.1054,8.1093,8.1093,8.1093,8.1093,8.1093,8.1093,8.1093,8.1208,8.1785,8.2016,8.2324,8.3024,8.3747,8.4286,8.4632,8.4978,8.5401,8.5747,8.5778,8.5816,8.5931,8.5978,8.5978,8.5863,8.5931,8.6047,8.6094,8.6094,8.6094,8.6094,8.6094,8.6094,8.6094,8.6094,8.6094,8.6094,8.6094,8.6094,8.6209,8.6401,8.6508,8.7047,8.7624,8.8278,8.8893,8.9385,8.9713,9.0376,9.0184,8.9858,9.0083,9.0707,9.1154,9.1133,9.0979,9.1047,9.1163,9.124,9.1364,9.1787,9.2133,9.2172,9.2172,9.2133,9.221,9.1864,9.1287,9.1201,9.1402,9.1633,9.2056,9.2518,9.2903,9.3326,9.3278,9.2932,9.2529,9.2869,9.3159,9.3534,9.3976,9.4427,9.4763,9.4896,9.4931,9.4919,9.4972,9.5215,9.5331,9.5429,9.5457,9.5522,9.5484,9.5331,9.5255,9.5178,9.5178,9.5255,9.5369,9.5178,9.4223,9.3726,9.3524,9.2847,9.2007,9.1548,9.1357,9.1013,9.0621,9.0621,9.0621,9.0621,8.1477,8.1093,8.1093,8.1093,8.1093,8.1093,8.1093,8.1093,8.1093,8.1323,8.1747,8.2131,8.2554,8.3093,8.3862,8.4709,8.5324,8.5517,8.5739,8.6094,8.6094,8.6094,8.6094,8.6094,8.6094,8.6094,8.6094,8.6132,8.6094,8.6094,8.6094,8.6094,8.6094,8.6094,8.6094,8.6094,8.6094,8.6094,8.6094,8.6132,8.6209,8.6517,8.7094,8.7962,8.8389,8.9063,8.9776,9.0144,9.0597,9.0973,9.1385,9.1615,9.172,9.1883,9.2055,9.1905,9.1825,9.1864,9.1979,9.2172,9.2364,9.1979,9.2287,9.221,9.1979,9.1787,9.2172,9.2402,9.2749,9.2287,9.1979,9.221,9.2479,9.2595,9.3172,9.3864,9.4201,9.428,9.4022,9.3628,9.3543,9.3755,9.4167,9.4685,9.5307,9.565,9.5811,9.5825,9.58,9.5719,9.5675,9.5653,9.5598,9.5598,9.5598,9.5598,9.5609,9.5609,9.5609,9.5609,9.556,9.5522,9.4758,9.3764,9.3497,9.3268,9.3038,9.2351,9.1739,9.1128,9.0861,9.0659,9.0621,9.0621,9.0621,8.1823,8.1093,8.1093,8.1093,8.1093,8.1093,8.1208,8.1323,8.1362,8.1862,8.2524,8.2824,8.3285,8.3947,8.4709,8.5517,8.6094,8.6055,8.6055,8.6094,8.6094,8.6094,8.6094,8.6094,8.6094,8.6132,8.644,8.6247,8.6094,8.6094,8.6094,8.6094,8.6094,8.6094,8.6094,8.6094,8.6094,8.6132,8.6324,8.6401,8.6748,8.7325,8.8201,8.9521,8.9749,9.0174,9.1029,9.1165,9.1606,9.2026,9.2352,9.2496,9.2872,9.3121,9.2584,9.1598,9.2056,9.2402,9.2595,9.2595,9.2556,9.2364,9.2249,9.2095,9.2402,9.2556,9.2441,9.2749,9.3172,9.3518,9.3172,9.3373,9.3557,9.3778,9.4346,9.4982,9.5069,9.5099,9.5012,9.4657,9.4263,9.4224,9.4538,9.4965,9.5498,9.5602,9.5761,9.5751,9.5686,9.5664,9.5632,9.5621,9.5609,9.5609,9.5609,9.5598,9.5609,9.5609,9.5609,9.5609,9.5484,9.5407,9.449,9.3688,9.2886,9.2656,9.2656,9.2416,9.151,9.0861,9.0774,9.0697,9.0621,9.0621,9.0621,8.1823,8.1093,8.1093,8.1093,8.1131,8.1131,8.1554,8.2131,8.217,8.2631,8.3478,8.417,8.4508,8.4901,8.5517,8.5978,8.6094,8.6094,8.6094,8.6094,8.6094,8.6094,8.6094,8.6094,8.6094,8.6247,8.6824,8.6748,8.6324,8.6132,8.617,8.6209,8.617,8.6132,8.6286,8.6286,8.6094,8.6286,8.6901,8.7594,8.8209,8.8479,8.8666,8.9075,8.9636,9.0627,9.1778,9.2008,9.2353,9.3006,9.3265,9.2718,9.1926,9.2213,9.2021,9.174,9.1941,9.2479,9.2364,9.2056,9.2018,9.2095,9.1902,9.2595,9.3403,9.4134,9.4057,9.3527,9.3787,9.4018,9.422,9.4095,9.4518,9.4789,9.506,9.5445,9.5646,9.553,9.5478,9.5466,9.4996,9.4725,9.4749,9.5172,9.5566,9.5593,9.5632,9.5643,9.5632,9.5609,9.5609,9.5609,9.5609,9.5609,9.5609,9.5609,9.5609,9.5609,9.5609,9.5609,9.5446,9.5255,9.4643,9.3803,9.2886,9.1892,9.1586,9.127,9.0774,9.0697,9.0659,9.0659,9.0621,9.0621,9.0784,8.2093,8.1708,8.1285,8.1362,8.1747,8.1785,8.2247,8.2909,8.3062,8.3516,8.4286,8.4709,8.5124,8.5547,8.6008,8.6094,8.6094,8.6094,8.6094,8.6094,8.6094,8.6094,8.6094,8.6094,8.6094,8.644,8.6824,8.6824,8.6517,8.6671,8.6824,8.6748,8.6401,8.644,8.6786,8.6824,8.7171,8.7555,8.8017,8.8556,8.9154,8.9388,8.9719,9.0558,9.0848,9.1576,9.237,9.271,9.2557,9.2771,9.262,9.221,9.1413,9.1401,9.1446,9.1355,9.1518,9.1748,9.171,9.1402,9.1595,9.1787,9.1941,9.271,9.4104,9.5143,9.5365,9.4527,9.4903,9.5172,9.5172,9.5134,9.5174,9.5358,9.5521,9.5675,9.5807,9.5831,9.5748,9.5772,9.5719,9.5325,9.5085,9.5309,9.5582,9.5621,9.5621,9.5621,9.5621,9.5609,9.5609,9.5609,9.5609,9.5609,9.5609,9.5609,9.5609,9.5609,9.5609,9.556,9.5407,9.5102,9.449,9.365,9.2618,9.1701,9.0822,9.0621,9.0659,9.0621,9.0621,9.0621,9.0659,9.1204,9.1434,8.2601,8.2562,8.1747,8.1747,8.2324,8.2516,8.3131,8.3862,8.3909,8.4401,8.5016,8.5239,8.5593,8.5978,8.6094,8.6094,8.6094,8.6094,8.6094,8.6094,8.6132,8.6247,8.6324,8.6363,8.6363,8.6748,8.7517,8.7632,8.7632,8.7671,8.7902,8.744,8.6824,8.6978,8.7517,8.7786,8.8055,8.8825,8.894,8.9423,9.0003,9.0142,9.0788,9.1404,9.1873,9.2108,9.2807,9.2533,9.2032,9.2194,9.1833,9.1519,9.1106,9.1141,9.1225,9.1183,9.1299,9.1444,9.1731,9.1864,9.1787,9.221,9.3018,9.421,9.4181,9.5518,9.6249,9.5403,9.5749,9.5855,9.5837,9.6058,9.5954,9.5848,9.5817,9.5892,9.5908,9.5814,9.574,9.5697,9.5653,9.5643,9.5479,9.5544,9.5609,9.5609,9.5609,9.5609,9.5609,9.5609,9.5609,9.5609,9.5609,9.5609,9.5609,9.5609,9.5609,9.5609,9.5609,9.5598,9.5484,9.4911,9.4212,9.3344,9.2465,9.1586,9.0774,9.0697,9.0621,9.0621,9.0621,9.0621,9.0822,9.1434,9.2083,8.3524,8.3447,8.2593,8.2324,8.2477,8.3178,8.4016,8.4786,8.4816,8.5247,8.5824,8.597,8.594,8.6094,8.6094,8.6094,8.6094,8.6094,8.6094,8.6094,8.6132,8.6517,8.6709,8.6786,8.694,8.8102,8.8517,8.8902,8.9316,8.9056,8.8594,8.7594,8.7478,8.791,8.841,8.8756,8.9133,8.971,8.9816,9.0128,9.0621,9.0797,9.0952,9.0935,9.0991,9.1219,9.2084,9.1564,9.141,9.1941,9.1519,9.1413,9.1286,9.134,9.1414,9.1589,9.1724,9.1994,9.2328,9.2846,9.3403,9.4172,9.5095,9.5865,9.5134,9.6403,9.6826,9.6202,9.6192,9.6462,9.654,9.6683,9.625,9.6209,9.5985,9.5807,9.5793,9.5719,9.5643,9.5621,9.5609,9.5609,9.5609,9.5609,9.5609,9.5609,9.5609,9.5609,9.5609,9.5609,9.5609,9.5609,9.5609,9.5609,9.5609,9.5609,9.5609,9.5609,9.5609,9.5609,9.556,9.4872,9.4136,9.3524,9.2733,9.1739,9.0975,9.1013,9.0975,9.0697,9.0621,9.0784,9.127,9.2045,9.2656,8.3101,8.3601,8.3785,8.3901,8.3939,8.4247,8.4863,8.5555,8.5632,8.5786,8.6094,8.6094,8.6094,8.6094,8.6094,8.6094,8.6094,8.6094,8.6094,8.6094,8.6209,8.6632,8.694,8.7325,8.7555,8.8641,8.9171,8.9171,8.9056,8.9787,8.9663,8.897,8.8479,8.8748,8.9248,8.9863,9.0325,9.047,9.0663,9.0867,9.0965,9.1046,9.1,9.0924,9.0867,9.0982,9.1279,9.1058,9.1136,9.127,9.1154,9.1363,9.1715,9.1867,9.2127,9.2561,9.2841,9.3158,9.311,9.359,9.407,9.5317,9.6172,9.648,9.5788,9.6865,9.698,9.6577,9.6222,9.6434,9.6376,9.6192,9.6046,9.6173,9.61,9.5817,9.5686,9.5632,9.5609,9.5609,9.5609,9.5609,9.5609,9.5609,9.5609,9.5609,9.5609,9.5609,9.5609,9.5609,9.5609,9.5609,9.5609,9.5609,9.5609,9.5609,9.5609,9.5609,9.5609,9.5609,9.556,9.4911,9.4174,9.3639,9.3229,9.258,9.2007,9.1663,9.1319,9.0965,9.0965,9.109,9.1778,9.2607,9.3344,8.3439,8.4063,8.4893,8.5124,8.4931,8.5162,8.5547,8.6017,8.6055,8.6094,8.6094,8.6094,8.6094,8.6132,8.644,8.6286,8.6286,8.6363,8.6286,8.6324,8.644,8.6978,8.7525,8.7987,8.841,8.9248,8.9556,8.9624,8.9748,9.0086,9.0201,9.0086,8.9787,8.994,9.0248,9.0816,9.1201,9.1201,9.1201,9.1145,9.1118,9.1064,9.1018,9.0962,9.0915,9.0963,9.1059,9.0992,9.0982,9.1067,9.1152,9.1525,9.2005,9.2475,9.2889,9.3591,9.4216,9.4513,9.4187,9.4398,9.5213,9.6779,9.6711,9.6711,9.6548,9.6798,9.6616,9.6376,9.6117,9.6049,9.6029,9.5928,9.5846,9.5942,9.5872,9.5675,9.5653,9.5609,9.5609,9.5609,9.5609,9.5609,9.5609,9.5609,9.5609,9.5609,9.5609,9.5609,9.5609,9.5609,9.5609,9.5609,9.5609,9.5609,9.5609,9.5609,9.5609,9.5609,9.5609,9.5609,9.5407,9.4872,9.4479,9.4097,9.3754,9.3421,9.2962,9.2427,9.1778,9.1156,9.1357,9.1625,9.2389,9.3268,9.4223,8.4816,8.4978,8.5701,8.5585,8.5085,8.5739,8.6055,8.6094,8.6094,8.6094,8.6094,8.6094,8.617,8.6363,8.6901,8.6824,8.6594,8.7017,8.7017,8.6594,8.7094,8.7833,8.8372,8.8833,8.9325,9.0517,9.0547,9.0432,9.0902,9.0855,9.097,9.1009,9.0778,9.0825,9.1133,9.1163,9.1201,9.1201,9.1201,9.1118,9.1073,9.1055,9.1046,9.1028,9.0972,9.1038,9.1333,9.1324,9.1401,9.1609,9.1589,9.2059,9.2742,9.2726,9.314,9.3947,9.4479,9.4727,9.4826,9.5714,9.6827,9.7837,9.7481,9.6798,9.6404,9.629,9.6261,9.6107,9.6009,9.5908,9.5835,9.581,9.5708,9.5675,9.5653,9.5632,9.5609,9.5609,9.5609,9.5609,9.5609,9.5609,9.5609,9.5609,9.5609,9.5609,9.5609,9.5609,9.5609,9.5609,9.5609,9.5609,9.5609,9.5609,9.5609,9.5609,9.5609,9.5609,9.5609,9.5609,9.5609,9.5369,9.4987,9.4594,9.4403,9.4261,9.3726,9.3115,9.2542,9.2034,9.2045,9.2351,9.3115,9.3879,9.4796,8.5201,8.5709,8.5978,8.594,8.5747,8.5978,8.6094,8.6094,8.6094,8.6094,8.6094,8.6094,8.6478,8.694,8.7209,8.7248,8.7209,8.7786,8.7786,8.7171,8.7872,8.8709,8.9248,8.9594,9.0133,9.0816,9.0855,9.0778,9.1124,9.1201,9.1201,9.1201,9.1192,9.1201,9.1163,9.1201,9.1201,9.1201,9.1201,9.1183,9.1118,9.1118,9.1157,9.1148,9.115,9.1446,9.197,9.1973,9.2174,9.2547,9.2633,9.3059,9.3743,9.3822,9.4484,9.545,9.6159,9.6587,9.6851,9.7374,9.7491,9.7875,9.75,9.6655,9.6175,9.6127,9.6068,9.5989,9.5898,9.5814,9.5821,9.5697,9.5643,9.5632,9.5621,9.5609,9.5609,9.5609,9.5609,9.5609,9.5609,9.5609,9.5609,9.5609,9.5609,9.5609,9.5609,9.5609,9.5609,9.5609,9.5609,9.5609,9.5609,9.5609,9.5609,9.5609,9.5609,9.5609,9.5609,9.5609,9.5609,9.5609,9.5484,9.5102,9.5102,9.5102,9.4567,9.4032,9.3497,9.3115,9.3153,9.3191,9.3688,9.4414,9.5216,8.5624,8.6094,8.6094,8.6094,8.6094,8.6094,8.6094,8.6094,8.6094,8.6094,8.6094,8.6094,8.6555,8.7248,8.7709,8.7833,8.794,8.8671,8.8679,8.8055,8.8709,8.9325,8.9778,9.0239,9.0633,9.1086,9.1201,9.1201,9.1201,9.1201,9.1201,9.1201,9.1136,9.1136,9.1145,9.1201,9.1201,9.1201,9.1201,9.1201,9.1192,9.124,9.1393,9.1586,9.1778,9.2056,9.2672,9.3027,9.3133,9.3586,9.3828,9.4099,9.46,9.5193,9.5726,9.6667,9.7123,9.751,9.7827,9.7054,9.7107,9.7733,9.6922,9.6424,9.6125,9.5989,9.5949,9.5877,9.5821,9.5778,9.5697,9.5609,9.5609,9.5609,9.5609,9.5609,9.5609,9.5609,9.5609,9.5609,9.5609,9.5609,9.5609,9.5609,9.5609,9.5609,9.5609,9.5609,9.5609,9.5609,9.5609,9.5609,9.5609,9.5609,9.5609,9.5609,9.5609,9.5609,9.5609,9.5609,9.5609,9.5609,9.5609,9.5609,9.5484,9.5369,9.5369,9.5025,9.4452,9.4299,9.4452,9.449,9.4479,9.4911,9.556,8.6094,8.6094,8.6094,8.6094,8.6094,8.6118,8.611,8.6102,8.6102,8.6094,8.6094,8.6094,8.6671,8.7555,8.8286,8.8632,8.891,8.9594,8.9325,8.9171,8.9594,8.9893,9.0278,9.074,9.1009,9.1124,9.1201,9.1201,9.1201,9.1201,9.1201,9.1136,9.1082,9.1091,9.1118,9.1136,9.1145,9.1163,9.1201,9.1201,9.1201,9.1355,9.1748,9.2095,9.2441,9.2979,9.348,9.3796,9.3864,9.3943,9.3926,9.4302,9.4791,9.5494,9.6225,9.6724,9.6926,9.7363,9.7412,9.6336,9.632,9.6925,9.7071,9.6651,9.6227,9.5877,9.5825,9.5772,9.5686,9.5653,9.5609,9.5609,9.5609,9.5609,9.5609,9.5609,9.5609,9.5609,9.5609,9.5609,9.5609,9.5609,9.5609,9.5609,9.5609,9.5609,9.5609,9.5609,9.5609,9.5609,9.5609,9.5609,9.5609,9.5609,9.5609,9.5609,9.5609,9.5609,9.5609,9.5609,9.5609,9.5609,9.5609,9.5609,9.5609,9.556,9.5522,9.5522,9.5446,9.5407,9.5216,9.5102,9.4911,9.514,9.5598,8.6094,8.6094,8.6094,8.6126,8.6191,8.6246,8.6285,8.6153,8.6183,8.6159,8.6094,8.6094,8.6987,8.8286,8.8603,8.9056,8.971,9.0201,9.0124,9.0124,9.0325,9.0663,9.0893,9.1047,9.1201,9.1201,9.1201,9.1201,9.1201,9.1201,9.1118,9.1064,9.1018,9.1037,9.1055,9.1064,9.1109,9.1154,9.1201,9.124,9.1479,9.1748,9.2249,9.2672,9.3172,9.3787,9.4394,9.4586,9.476,9.5214,9.531,9.555,9.5463,9.6214,9.6888,9.6839,9.6871,9.6832,9.6374,9.5981,9.5861,9.6069,9.6263,9.618,9.5891,9.5783,9.5768,9.5675,9.5643,9.5609,9.5609,9.5609,9.5609,9.5609,9.5609,9.5609,9.5609,9.5609,9.5609,9.5609,9.5609,9.5609,9.5609,9.5609,9.5609,9.5609,9.5609,9.5609,9.5609,9.5609,9.5609,9.5609,9.5609,9.5609,9.5609,9.5609,9.5609,9.5609,9.5609,9.5609,9.5609,9.5609,9.5609,9.5609,9.5609,9.5609,9.5609,9.5598,9.5598,9.5598,9.5435,9.5407,9.5407,9.55,9.5531,8.6094,8.6094,8.6135,8.6176,8.6323,8.6414,8.6561,8.6709,8.6439,8.6377,8.6651,8.6682,8.7581,8.8979,8.9248,8.9633,9.0441,9.0787,9.0825,9.0748,9.0932,9.1047,9.1163,9.1201,9.1201,9.1201,9.1201,9.1201,9.1192,9.1109,9.1064,9.0963,9.0934,9.0963,9.0991,9.1,9.1055,9.1157,9.124,9.1402,9.1825,9.2287,9.271,9.3441,9.4027,9.4625,9.528,9.5395,9.5675,9.5962,9.6019,9.5967,9.5915,9.6495,9.691,9.6909,9.6859,9.6439,9.5953,9.5768,9.5653,9.5643,9.5664,9.5735,9.5746,9.5686,9.5653,9.5621,9.5609,9.5609,9.5609,9.5609,9.5609,9.5609,9.5609,9.5609,9.5609,9.5609,9.5609,9.5609,9.5609,9.5609,9.5609,9.5609,9.5609,9.5609,9.5609,9.5609,9.5609,9.5609,9.5609,9.5609,9.5609,9.5609,9.5609,9.5609,9.5609,9.5609,9.5609,9.5609,9.5609,9.5609,9.5609,9.5609,9.5609,9.5598,9.5587,9.5598,9.5598,9.5576,9.552,9.5398,9.5349,9.5398,9.5429,8.6094,8.6118,8.6207,8.6408,8.6609,8.6662,8.7132,8.7775,8.7092,8.701,8.7549,8.7602,8.8408,8.9577,8.9765,9.0257,9.0795,9.1142,9.1171,9.1171,9.1124,9.1201,9.1201,9.1201,9.1201,9.1201,9.1201,9.1154,9.1127,9.1064,9.0963,9.0896,9.1,9.104,9.0963,9.1222,9.1364,9.153,9.1595,9.1748,9.2326,9.2787,9.3364,9.4604,9.5038,9.5357,9.5858,9.604,9.6039,9.5928,9.5856,9.5832,9.6216,9.6287,9.6614,9.6745,9.6706,9.6248,9.5789,9.5621,9.5621,9.5609,9.5609,9.5621,9.5643,9.5643,9.5621,9.5609,9.5609,9.5609,9.5609,9.5609,9.5609,9.5609,9.5609,9.5609,9.5609,9.5609,9.5609,9.5609,9.5609,9.5609,9.5609,9.5598,9.5565,9.5587,9.5598,9.5598,9.5576,9.5576,9.5598,9.5598,9.5598,9.5598,9.5609,9.5609,9.5609,9.5609,9.5609,9.5609,9.5609,9.5609,9.5609,9.5609,9.5598,9.5576,9.5576,9.5554,9.5509,9.5429,9.5371,9.5298,9.5324,9.5336,9.5301,8.6135,8.6207,8.6353,8.6819,8.7473,8.7568,8.8052,8.8833,8.8657,8.8533,8.8568,8.8621,8.9106,9.0031,9.0077,9.0522,9.1095,9.1206,9.121,9.1163,9.1201,9.1201,9.1201,9.1201,9.1201,9.1201,9.1192,9.1109,9.1037,9.0944,9.0906,9.0894,9.1229,9.1519,9.128,9.1596,9.2045,9.2163,9.2346,9.2462,9.2846,9.3864,9.4758,9.5231,9.5424,9.5819,9.6097,9.6009,9.5928,9.5825,9.5793,9.6074,9.6598,9.6183,9.6324,9.6668,9.6324,9.5942,9.5751,9.5609,9.5609,9.5609,9.5609,9.5609,9.5609,9.5609,9.5609,9.5609,9.5609,9.5609,9.5609,9.5609,9.5609,9.5609,9.5609,9.5609,9.5609,9.5609,9.5609,9.5609,9.5609,9.5598,9.5598,9.5576,9.5543,9.5543,9.5587,9.5587,9.552,9.5509,9.5565,9.5576,9.5598,9.5598,9.5598,9.5609,9.5609,9.5609,9.5609,9.5609,9.5598,9.5598,9.5598,9.5598,9.5598,9.5543,9.5486,9.5452,9.5394,9.5301,9.5215,9.5179,9.5107,9.5094,9.5082,8.6183,8.6285,8.6829,8.7371,8.787,8.8298,8.8969,8.9634,8.9743,8.9894,9.0047,8.9779,8.9933,9.0636,9.0593,9.0689,9.1261,9.1258,9.1206,9.1219,9.1201,9.1201,9.1201,9.1192,9.1127,9.1118,9.1084,9.0981,9.0906,9.0877,9.0874,9.1265,9.191,9.2171,9.1999,9.2622,9.2918,9.3056,9.328,9.3647,9.3868,9.4954,9.5492,9.5694,9.6098,9.6336,9.5987,9.5887,9.5814,9.5729,9.5697,9.579,9.6041,9.5877,9.5866,9.6057,9.5904,9.5609,9.5609,9.5609,9.5609,9.5609,9.5609,9.5609,9.5609,9.5609,9.5609,9.5609,9.5609,9.5609,9.5609,9.5609,9.5609,9.5609,9.5609,9.5609,9.5609,9.5609,9.5609,9.5609,9.5587,9.5554,9.5565,9.5576,9.552,9.5394,9.544,9.5425,9.5417,9.5452,9.5498,9.5554,9.5576,9.5598,9.5609,9.5609,9.5609,9.5609,9.5609,9.5598,9.5598,9.5598,9.5598,9.5543,9.5498,9.544,9.5394,9.5348,9.5265,9.5131,9.5094,9.5058,9.4983,9.4921,9.4933,8.6277,8.6555,8.7423,8.7979,8.8305,8.9008,8.9827,9.0478,9.0555,9.0981,9.1392,9.0748,9.0952,9.1261,9.1376,9.1374,9.1325,9.1258,9.1215,9.1227,9.1201,9.1145,9.1175,9.1175,9.1073,9.0991,9.0954,9.0838,9.0749,9.0959,9.139,9.1954,9.2388,9.2765,9.3352,9.3726,9.3831,9.4109,9.4503,9.5195,9.5761,9.626,9.6337,9.6576,9.6861,9.6786,9.6263,9.5931,9.5888,9.5664,9.5621,9.5697,9.5724,9.5675,9.5675,9.5713,9.5751,9.5609,9.5609,9.5609,9.5609,9.5609,9.5609,9.5609,9.5609,9.5609,9.5609,9.5609,9.5609,9.5609,9.5609,9.5609,9.5609,9.5609,9.5609,9.5609,9.5609,9.5609,9.5609,9.5609,9.5576,9.5543,9.5531,9.5554,9.5452,9.5312,9.5215,9.5215,9.5239,9.5371,9.5452,9.5509,9.5554,9.5576,9.5598,9.5609,9.5609,9.5609,9.5598,9.5587,9.5576,9.5543,9.5486,9.5417,9.5359,9.5324,9.5227,9.5167,9.5082,9.5008,9.4971,9.4946,9.4908,9.4857,9.4832,8.6693,8.7507,8.7786,8.8646,8.982,9.0091,9.0671,9.1367,9.1406,9.1561,9.1593,9.1593,9.1564,9.1659,9.1406,9.1341,9.1382,9.1292,9.1206,9.121,9.1145,9.1109,9.1064,9.1028,9.0981,9.0944,9.0886,9.0778,9.1054,9.1485,9.184,9.2194,9.3754,9.3937,9.3533,9.41,9.4907,9.5204,9.528,9.5739,9.6649,9.7109,9.7455,9.7758,9.804,9.7527,9.7014,9.6746,9.6243,9.5839,9.5609,9.5609,9.5609,9.5609,9.5609,9.5609,9.5609,9.5609,9.5609,9.5609,9.5609,9.5609,9.5609,9.5609,9.5609,9.5609,9.5609,9.5609,9.5609,9.5609,9.5609,9.5609,9.5609,9.5609,9.5609,9.5609,9.5609,9.5609,9.5609,9.5609,9.5598,9.5554,9.5531,9.5486,9.5345,9.5227,9.5205,9.5167,9.5119,9.5227,9.5394,9.5463,9.552,9.5565,9.5609,9.5609,9.5609,9.5609,9.5587,9.5565,9.552,9.5452,9.5383,9.5289,9.5241,9.5179,9.5107,9.5033,9.4983,9.4908,9.4857,9.4819,9.4806,9.4806,9.4806]}]]